<?xml version="1.0" encoding="UTF-8" standalone="no" ?>
<gpx xmlns="http://www.topografix.com/GPX/1/1" xmlns:xsi="http://www.w3.org/2001/XMLSchema-instance" xsi:schemaLocation="http://www.topografix.com/GPX/1/1 http://www.topografix.com/GPX/1/1/gpx.xsd" version="1.1" creator="VisuGPX - https://www.visugpx.com">
  <metadata>
    <name>Bonrepos-sur-Aussonnelle 29 juil. 2021 à 10:42</name>
  </metadata>
  <trk>
    <name><![CDATA[Bonrepos-sur-Aussonnelle 29 juil. 2021 à 10:42]]></name>
    <extensions>
      <line xmlns="http://www.topografix.com/GPX/gpx_style/0/2">
        <color>0000FF</color>
        <width>4</width>
      </line>
    </extensions>
    <trkseg>
      <trkpt lat="43.55874" lon="1.14519">
        <ele>245</ele>
        <time>2021-07-29T08:42:45Z</time>
      </trkpt>
      <trkpt lat="43.55872" lon="1.14508">
        <ele>245</ele>
        <time>2021-07-29T08:42:57Z</time>
      </trkpt>
      <trkpt lat="43.5587" lon="1.14497">
        <ele>245</ele>
        <time>2021-07-29T08:43:09Z</time>
      </trkpt>
      <trkpt lat="43.55868" lon="1.14484">
        <ele>244</ele>
        <time>2021-07-29T08:43:15Z</time>
      </trkpt>
      <trkpt lat="43.55869" lon="1.14472">
        <ele>244</ele>
        <time>2021-07-29T08:43:22Z</time>
      </trkpt>
      <trkpt lat="43.55867" lon="1.1446">
        <ele>245</ele>
        <time>2021-07-29T08:43:31Z</time>
      </trkpt>
      <trkpt lat="43.55863" lon="1.14449">
        <ele>244</ele>
        <time>2021-07-29T08:43:39Z</time>
      </trkpt>
      <trkpt lat="43.55861" lon="1.14438">
        <ele>241</ele>
        <time>2021-07-29T08:43:46Z</time>
      </trkpt>
      <trkpt lat="43.5586" lon="1.14426">
        <ele>242</ele>
        <time>2021-07-29T08:43:59Z</time>
      </trkpt>
      <trkpt lat="43.55857" lon="1.14416">
        <ele>243</ele>
        <time>2021-07-29T08:44:07Z</time>
      </trkpt>
      <trkpt lat="43.55856" lon="1.14403">
        <ele>246</ele>
        <time>2021-07-29T08:44:17Z</time>
      </trkpt>
      <trkpt lat="43.55853" lon="1.14392">
        <ele>246</ele>
        <time>2021-07-29T08:44:25Z</time>
      </trkpt>
      <trkpt lat="43.55853" lon="1.1438">
        <ele>245</ele>
        <time>2021-07-29T08:44:37Z</time>
      </trkpt>
      <trkpt lat="43.55853" lon="1.14369">
        <ele>245</ele>
        <time>2021-07-29T08:44:43Z</time>
      </trkpt>
      <trkpt lat="43.55853" lon="1.14357">
        <ele>244</ele>
        <time>2021-07-29T08:44:50Z</time>
      </trkpt>
      <trkpt lat="43.55851" lon="1.14346">
        <ele>244</ele>
        <time>2021-07-29T08:44:57Z</time>
      </trkpt>
      <trkpt lat="43.55849" lon="1.14334">
        <ele>242</ele>
        <time>2021-07-29T08:45:17Z</time>
      </trkpt>
      <trkpt lat="43.55848" lon="1.14323">
        <ele>242</ele>
        <time>2021-07-29T08:45:24Z</time>
      </trkpt>
      <trkpt lat="43.55848" lon="1.14311">
        <ele>241</ele>
        <time>2021-07-29T08:45:30Z</time>
      </trkpt>
      <trkpt lat="43.55847" lon="1.14299">
        <ele>241</ele>
        <time>2021-07-29T08:45:37Z</time>
      </trkpt>
      <trkpt lat="43.55846" lon="1.14287">
        <ele>242</ele>
        <time>2021-07-29T08:45:43Z</time>
      </trkpt>
      <trkpt lat="43.55846" lon="1.14276">
        <ele>242</ele>
        <time>2021-07-29T08:45:51Z</time>
      </trkpt>
      <trkpt lat="43.55848" lon="1.14264">
        <ele>242</ele>
        <time>2021-07-29T08:46:01Z</time>
      </trkpt>
      <trkpt lat="43.55847" lon="1.14253">
        <ele>241</ele>
        <time>2021-07-29T08:46:09Z</time>
      </trkpt>
      <trkpt lat="43.55845" lon="1.14242">
        <ele>241</ele>
        <time>2021-07-29T08:46:17Z</time>
      </trkpt>
      <trkpt lat="43.55846" lon="1.1423">
        <ele>241</ele>
        <time>2021-07-29T08:46:24Z</time>
      </trkpt>
      <trkpt lat="43.55846" lon="1.14218">
        <ele>242</ele>
        <time>2021-07-29T08:46:31Z</time>
      </trkpt>
      <trkpt lat="43.55844" lon="1.14208">
        <ele>242</ele>
        <time>2021-07-29T08:46:36Z</time>
      </trkpt>
      <trkpt lat="43.55842" lon="1.14196">
        <ele>241</ele>
        <time>2021-07-29T08:46:42Z</time>
      </trkpt>
      <trkpt lat="43.5584" lon="1.14186">
        <ele>241</ele>
        <time>2021-07-29T08:46:47Z</time>
      </trkpt>
      <trkpt lat="43.55841" lon="1.14174">
        <ele>240</ele>
        <time>2021-07-29T08:46:53Z</time>
      </trkpt>
      <trkpt lat="43.5584" lon="1.14162">
        <ele>240</ele>
        <time>2021-07-29T08:47:00Z</time>
      </trkpt>
      <trkpt lat="43.55839" lon="1.1415">
        <ele>241</ele>
        <time>2021-07-29T08:47:08Z</time>
      </trkpt>
      <trkpt lat="43.55841" lon="1.14139">
        <ele>243</ele>
        <time>2021-07-29T08:47:18Z</time>
      </trkpt>
      <trkpt lat="43.55839" lon="1.14129">
        <ele>245</ele>
        <time>2021-07-29T08:47:34Z</time>
      </trkpt>
      <trkpt lat="43.55838" lon="1.14117">
        <ele>244</ele>
        <time>2021-07-29T08:47:41Z</time>
      </trkpt>
      <trkpt lat="43.55839" lon="1.14105">
        <ele>244</ele>
        <time>2021-07-29T08:47:48Z</time>
      </trkpt>
      <trkpt lat="43.55839" lon="1.14093">
        <ele>244</ele>
        <time>2021-07-29T08:47:54Z</time>
      </trkpt>
      <trkpt lat="43.55839" lon="1.14081">
        <ele>243</ele>
        <time>2021-07-29T08:48:01Z</time>
      </trkpt>
      <trkpt lat="43.55837" lon="1.1407">
        <ele>242</ele>
        <time>2021-07-29T08:48:08Z</time>
      </trkpt>
      <trkpt lat="43.55836" lon="1.14058">
        <ele>246</ele>
        <time>2021-07-29T08:48:18Z</time>
      </trkpt>
      <trkpt lat="43.55836" lon="1.14046">
        <ele>245</ele>
        <time>2021-07-29T08:48:28Z</time>
      </trkpt>
      <trkpt lat="43.55836" lon="1.14034">
        <ele>245</ele>
        <time>2021-07-29T08:48:34Z</time>
      </trkpt>
      <trkpt lat="43.55834" lon="1.14023">
        <ele>244</ele>
        <time>2021-07-29T08:48:42Z</time>
      </trkpt>
      <trkpt lat="43.55836" lon="1.14011">
        <ele>244</ele>
        <time>2021-07-29T08:48:50Z</time>
      </trkpt>
      <trkpt lat="43.55834" lon="1.14">
        <ele>244</ele>
        <time>2021-07-29T08:48:57Z</time>
      </trkpt>
      <trkpt lat="43.55834" lon="1.1399">
        <ele>244</ele>
        <time>2021-07-29T08:49:04Z</time>
      </trkpt>
      <trkpt lat="43.55834" lon="1.13978">
        <ele>244</ele>
        <time>2021-07-29T08:49:12Z</time>
      </trkpt>
      <trkpt lat="43.55833" lon="1.13966">
        <ele>246</ele>
        <time>2021-07-29T08:49:19Z</time>
      </trkpt>
      <trkpt lat="43.55837" lon="1.13955">
        <ele>247</ele>
        <time>2021-07-29T08:49:26Z</time>
      </trkpt>
      <trkpt lat="43.55837" lon="1.13943">
        <ele>247</ele>
        <time>2021-07-29T08:49:34Z</time>
      </trkpt>
      <trkpt lat="43.55838" lon="1.13932">
        <ele>247</ele>
        <time>2021-07-29T08:49:43Z</time>
      </trkpt>
      <trkpt lat="43.55836" lon="1.13923">
        <ele>245</ele>
        <time>2021-07-29T08:49:50Z</time>
      </trkpt>
      <trkpt lat="43.55836" lon="1.13911">
        <ele>245</ele>
        <time>2021-07-29T08:49:56Z</time>
      </trkpt>
      <trkpt lat="43.55834" lon="1.13899">
        <ele>245</ele>
        <time>2021-07-29T08:50:02Z</time>
      </trkpt>
      <trkpt lat="43.55831" lon="1.13888">
        <ele>244</ele>
        <time>2021-07-29T08:50:09Z</time>
      </trkpt>
      <trkpt lat="43.55831" lon="1.13877">
        <ele>243</ele>
        <time>2021-07-29T08:50:18Z</time>
      </trkpt>
      <trkpt lat="43.55833" lon="1.13865">
        <ele>243</ele>
        <time>2021-07-29T08:50:25Z</time>
      </trkpt>
      <trkpt lat="43.55832" lon="1.13853">
        <ele>242</ele>
        <time>2021-07-29T08:50:34Z</time>
      </trkpt>
      <trkpt lat="43.5583" lon="1.13842">
        <ele>241</ele>
        <time>2021-07-29T08:50:43Z</time>
      </trkpt>
      <trkpt lat="43.55828" lon="1.1383">
        <ele>241</ele>
        <time>2021-07-29T08:50:51Z</time>
      </trkpt>
      <trkpt lat="43.55826" lon="1.13819">
        <ele>244</ele>
        <time>2021-07-29T08:51:04Z</time>
      </trkpt>
      <trkpt lat="43.55826" lon="1.13807">
        <ele>243</ele>
        <time>2021-07-29T08:51:13Z</time>
      </trkpt>
      <trkpt lat="43.55829" lon="1.13796">
        <ele>243</ele>
        <time>2021-07-29T08:51:23Z</time>
      </trkpt>
      <trkpt lat="43.55837" lon="1.1379">
        <ele>243</ele>
        <time>2021-07-29T08:51:31Z</time>
      </trkpt>
      <trkpt lat="43.55846" lon="1.13786">
        <ele>243</ele>
        <time>2021-07-29T08:51:39Z</time>
      </trkpt>
      <trkpt lat="43.55854" lon="1.13782">
        <ele>242</ele>
        <time>2021-07-29T08:51:47Z</time>
      </trkpt>
      <trkpt lat="43.55861" lon="1.1378">
        <ele>244</ele>
        <time>2021-07-29T08:51:55Z</time>
      </trkpt>
      <trkpt lat="43.55866" lon="1.1377">
        <ele>245</ele>
        <time>2021-07-29T08:52:25Z</time>
      </trkpt>
      <trkpt lat="43.55866" lon="1.13759">
        <ele>245</ele>
        <time>2021-07-29T08:52:31Z</time>
      </trkpt>
      <trkpt lat="43.55865" lon="1.13748">
        <ele>244</ele>
        <time>2021-07-29T08:52:37Z</time>
      </trkpt>
      <trkpt lat="43.55865" lon="1.13737">
        <ele>245</ele>
        <time>2021-07-29T08:52:43Z</time>
      </trkpt>
      <trkpt lat="43.55864" lon="1.13726">
        <ele>244</ele>
        <time>2021-07-29T08:52:51Z</time>
      </trkpt>
      <trkpt lat="43.55865" lon="1.13715">
        <ele>245</ele>
        <time>2021-07-29T08:52:58Z</time>
      </trkpt>
      <trkpt lat="43.55869" lon="1.13705">
        <ele>245</ele>
        <time>2021-07-29T08:53:05Z</time>
      </trkpt>
      <trkpt lat="43.55871" lon="1.13694">
        <ele>245</ele>
        <time>2021-07-29T08:53:11Z</time>
      </trkpt>
      <trkpt lat="43.55871" lon="1.13684">
        <ele>244</ele>
        <time>2021-07-29T08:53:17Z</time>
      </trkpt>
      <trkpt lat="43.55875" lon="1.13673">
        <ele>244</ele>
        <time>2021-07-29T08:53:24Z</time>
      </trkpt>
      <trkpt lat="43.55877" lon="1.13662">
        <ele>243</ele>
        <time>2021-07-29T08:53:31Z</time>
      </trkpt>
      <trkpt lat="43.55881" lon="1.13653">
        <ele>242</ele>
        <time>2021-07-29T08:53:37Z</time>
      </trkpt>
      <trkpt lat="43.55886" lon="1.13644">
        <ele>243</ele>
        <time>2021-07-29T08:53:44Z</time>
      </trkpt>
      <trkpt lat="43.55885" lon="1.13633">
        <ele>242</ele>
        <time>2021-07-29T08:53:51Z</time>
      </trkpt>
      <trkpt lat="43.55889" lon="1.13622">
        <ele>243</ele>
        <time>2021-07-29T08:53:58Z</time>
      </trkpt>
      <trkpt lat="43.5589" lon="1.1361">
        <ele>242</ele>
        <time>2021-07-29T08:54:06Z</time>
      </trkpt>
      <trkpt lat="43.55884" lon="1.13602">
        <ele>243</ele>
        <time>2021-07-29T08:54:14Z</time>
      </trkpt>
      <trkpt lat="43.55881" lon="1.13591">
        <ele>245</ele>
        <time>2021-07-29T08:54:21Z</time>
      </trkpt>
      <trkpt lat="43.55877" lon="1.13581">
        <ele>244</ele>
        <time>2021-07-29T08:54:27Z</time>
      </trkpt>
      <trkpt lat="43.5587" lon="1.13573">
        <ele>244</ele>
        <time>2021-07-29T08:54:34Z</time>
      </trkpt>
      <trkpt lat="43.55865" lon="1.13566">
        <ele>244</ele>
        <time>2021-07-29T08:54:41Z</time>
      </trkpt>
      <trkpt lat="43.55862" lon="1.13556">
        <ele>246</ele>
        <time>2021-07-29T08:54:47Z</time>
      </trkpt>
      <trkpt lat="43.55861" lon="1.13545">
        <ele>248</ele>
        <time>2021-07-29T08:54:55Z</time>
      </trkpt>
      <trkpt lat="43.55861" lon="1.13533">
        <ele>247</ele>
        <time>2021-07-29T08:55:03Z</time>
      </trkpt>
      <trkpt lat="43.55862" lon="1.13521">
        <ele>247</ele>
        <time>2021-07-29T08:55:10Z</time>
      </trkpt>
      <trkpt lat="43.55858" lon="1.1351">
        <ele>247</ele>
        <time>2021-07-29T08:55:16Z</time>
      </trkpt>
      <trkpt lat="43.5585" lon="1.13507">
        <ele>250</ele>
        <time>2021-07-29T08:55:25Z</time>
      </trkpt>
      <trkpt lat="43.55843" lon="1.13515">
        <ele>249</ele>
        <time>2021-07-29T08:55:33Z</time>
      </trkpt>
      <trkpt lat="43.55836" lon="1.13521">
        <ele>249</ele>
        <time>2021-07-29T08:55:40Z</time>
      </trkpt>
      <trkpt lat="43.55829" lon="1.13514">
        <ele>249</ele>
        <time>2021-07-29T08:55:50Z</time>
      </trkpt>
      <trkpt lat="43.55828" lon="1.13502">
        <ele>249</ele>
        <time>2021-07-29T08:55:58Z</time>
      </trkpt>
      <trkpt lat="43.55828" lon="1.13491">
        <ele>250</ele>
        <time>2021-07-29T08:56:05Z</time>
      </trkpt>
      <trkpt lat="43.55829" lon="1.13479">
        <ele>250</ele>
        <time>2021-07-29T08:56:11Z</time>
      </trkpt>
      <trkpt lat="43.55828" lon="1.13469">
        <ele>250</ele>
        <time>2021-07-29T08:56:17Z</time>
      </trkpt>
      <trkpt lat="43.55828" lon="1.13458">
        <ele>249</ele>
        <time>2021-07-29T08:56:24Z</time>
      </trkpt>
      <trkpt lat="43.55828" lon="1.13447">
        <ele>250</ele>
        <time>2021-07-29T08:56:31Z</time>
      </trkpt>
      <trkpt lat="43.5583" lon="1.13436">
        <ele>249</ele>
        <time>2021-07-29T08:56:38Z</time>
      </trkpt>
      <trkpt lat="43.55831" lon="1.13425">
        <ele>250</ele>
        <time>2021-07-29T08:56:45Z</time>
      </trkpt>
      <trkpt lat="43.55831" lon="1.13414">
        <ele>252</ele>
        <time>2021-07-29T08:56:53Z</time>
      </trkpt>
      <trkpt lat="43.55833" lon="1.13405">
        <ele>252</ele>
        <time>2021-07-29T08:57:01Z</time>
      </trkpt>
      <trkpt lat="43.55835" lon="1.13392">
        <ele>251</ele>
        <time>2021-07-29T08:57:06Z</time>
      </trkpt>
      <trkpt lat="43.55836" lon="1.1338">
        <ele>250</ele>
        <time>2021-07-29T08:57:12Z</time>
      </trkpt>
      <trkpt lat="43.55836" lon="1.13368">
        <ele>252</ele>
        <time>2021-07-29T08:57:20Z</time>
      </trkpt>
      <trkpt lat="43.55834" lon="1.13356">
        <ele>253</ele>
        <time>2021-07-29T08:57:28Z</time>
      </trkpt>
      <trkpt lat="43.55832" lon="1.13345">
        <ele>254</ele>
        <time>2021-07-29T08:57:36Z</time>
      </trkpt>
      <trkpt lat="43.55832" lon="1.13333">
        <ele>255</ele>
        <time>2021-07-29T08:57:43Z</time>
      </trkpt>
      <trkpt lat="43.55834" lon="1.13321">
        <ele>254</ele>
        <time>2021-07-29T08:57:50Z</time>
      </trkpt>
      <trkpt lat="43.55837" lon="1.13311">
        <ele>253</ele>
        <time>2021-07-29T08:58:03Z</time>
      </trkpt>
      <trkpt lat="43.55843" lon="1.13302">
        <ele>252</ele>
        <time>2021-07-29T08:58:11Z</time>
      </trkpt>
      <trkpt lat="43.5585" lon="1.13296">
        <ele>256</ele>
        <time>2021-07-29T08:58:30Z</time>
      </trkpt>
      <trkpt lat="43.55856" lon="1.13304">
        <ele>255</ele>
        <time>2021-07-29T08:58:39Z</time>
      </trkpt>
      <trkpt lat="43.55863" lon="1.13308">
        <ele>253</ele>
        <time>2021-07-29T08:58:46Z</time>
      </trkpt>
      <trkpt lat="43.55871" lon="1.13313">
        <ele>254</ele>
        <time>2021-07-29T08:58:53Z</time>
      </trkpt>
      <trkpt lat="43.55879" lon="1.13318">
        <ele>253</ele>
        <time>2021-07-29T08:59:01Z</time>
      </trkpt>
      <trkpt lat="43.55887" lon="1.13318">
        <ele>252</ele>
        <time>2021-07-29T08:59:18Z</time>
      </trkpt>
      <trkpt lat="43.55895" lon="1.13317">
        <ele>250</ele>
        <time>2021-07-29T08:59:27Z</time>
      </trkpt>
      <trkpt lat="43.55904" lon="1.13318">
        <ele>249</ele>
        <time>2021-07-29T08:59:36Z</time>
      </trkpt>
      <trkpt lat="43.55912" lon="1.13315">
        <ele>249</ele>
        <time>2021-07-29T08:59:46Z</time>
      </trkpt>
      <trkpt lat="43.5592" lon="1.13312">
        <ele>251</ele>
        <time>2021-07-29T08:59:53Z</time>
      </trkpt>
      <trkpt lat="43.55928" lon="1.1331">
        <ele>254</ele>
        <time>2021-07-29T09:00:00Z</time>
      </trkpt>
      <trkpt lat="43.55936" lon="1.13308">
        <ele>254</ele>
        <time>2021-07-29T09:00:06Z</time>
      </trkpt>
      <trkpt lat="43.55944" lon="1.13306">
        <ele>254</ele>
        <time>2021-07-29T09:00:13Z</time>
      </trkpt>
      <trkpt lat="43.55951" lon="1.13303">
        <ele>254</ele>
        <time>2021-07-29T09:00:21Z</time>
      </trkpt>
      <trkpt lat="43.5596" lon="1.13305">
        <ele>254</ele>
        <time>2021-07-29T09:00:28Z</time>
      </trkpt>
      <trkpt lat="43.55968" lon="1.13305">
        <ele>254</ele>
        <time>2021-07-29T09:00:34Z</time>
      </trkpt>
      <trkpt lat="43.55977" lon="1.13306">
        <ele>255</ele>
        <time>2021-07-29T09:00:43Z</time>
      </trkpt>
      <trkpt lat="43.55985" lon="1.1331">
        <ele>258</ele>
        <time>2021-07-29T09:00:51Z</time>
      </trkpt>
      <trkpt lat="43.55993" lon="1.13308">
        <ele>260</ele>
        <time>2021-07-29T09:00:58Z</time>
      </trkpt>
      <trkpt lat="43.56002" lon="1.13307">
        <ele>262</ele>
        <time>2021-07-29T09:01:06Z</time>
      </trkpt>
      <trkpt lat="43.5601" lon="1.13308">
        <ele>264</ele>
        <time>2021-07-29T09:01:14Z</time>
      </trkpt>
      <trkpt lat="43.56019" lon="1.13308">
        <ele>266</ele>
        <time>2021-07-29T09:01:22Z</time>
      </trkpt>
      <trkpt lat="43.56028" lon="1.13308">
        <ele>265</ele>
        <time>2021-07-29T09:01:29Z</time>
      </trkpt>
      <trkpt lat="43.56037" lon="1.13307">
        <ele>265</ele>
        <time>2021-07-29T09:01:38Z</time>
      </trkpt>
      <trkpt lat="43.56045" lon="1.13306">
        <ele>268</ele>
        <time>2021-07-29T09:01:48Z</time>
      </trkpt>
      <trkpt lat="43.56054" lon="1.13306">
        <ele>270</ele>
        <time>2021-07-29T09:01:56Z</time>
      </trkpt>
      <trkpt lat="43.56062" lon="1.13308">
        <ele>271</ele>
        <time>2021-07-29T09:02:03Z</time>
      </trkpt>
      <trkpt lat="43.56071" lon="1.13307">
        <ele>271</ele>
        <time>2021-07-29T09:02:12Z</time>
      </trkpt>
      <trkpt lat="43.56079" lon="1.13307">
        <ele>273</ele>
        <time>2021-07-29T09:02:21Z</time>
      </trkpt>
      <trkpt lat="43.56087" lon="1.13305">
        <ele>274</ele>
        <time>2021-07-29T09:02:30Z</time>
      </trkpt>
      <trkpt lat="43.56095" lon="1.13303">
        <ele>276</ele>
        <time>2021-07-29T09:02:44Z</time>
      </trkpt>
      <trkpt lat="43.56103" lon="1.13304">
        <ele>277</ele>
        <time>2021-07-29T09:02:51Z</time>
      </trkpt>
      <trkpt lat="43.56111" lon="1.13302">
        <ele>278</ele>
        <time>2021-07-29T09:02:58Z</time>
      </trkpt>
      <trkpt lat="43.56119" lon="1.13301">
        <ele>280</ele>
        <time>2021-07-29T09:03:06Z</time>
      </trkpt>
      <trkpt lat="43.56128" lon="1.13301">
        <ele>283</ele>
        <time>2021-07-29T09:03:16Z</time>
      </trkpt>
      <trkpt lat="43.56137" lon="1.13299">
        <ele>284</ele>
        <time>2021-07-29T09:03:23Z</time>
      </trkpt>
      <trkpt lat="43.56145" lon="1.13297">
        <ele>284</ele>
        <time>2021-07-29T09:03:33Z</time>
      </trkpt>
      <trkpt lat="43.56154" lon="1.13297">
        <ele>285</ele>
        <time>2021-07-29T09:03:41Z</time>
      </trkpt>
      <trkpt lat="43.56162" lon="1.13297">
        <ele>286</ele>
        <time>2021-07-29T09:03:50Z</time>
      </trkpt>
      <trkpt lat="43.5617" lon="1.13298">
        <ele>289</ele>
        <time>2021-07-29T09:03:58Z</time>
      </trkpt>
      <trkpt lat="43.56178" lon="1.13296">
        <ele>292</ele>
        <time>2021-07-29T09:04:05Z</time>
      </trkpt>
      <trkpt lat="43.56187" lon="1.13294">
        <ele>294</ele>
        <time>2021-07-29T09:04:12Z</time>
      </trkpt>
      <trkpt lat="43.56195" lon="1.13294">
        <ele>295</ele>
        <time>2021-07-29T09:04:19Z</time>
      </trkpt>
      <trkpt lat="43.56204" lon="1.13291">
        <ele>294</ele>
        <time>2021-07-29T09:04:28Z</time>
      </trkpt>
      <trkpt lat="43.56212" lon="1.13295">
        <ele>292</ele>
        <time>2021-07-29T09:04:40Z</time>
      </trkpt>
      <trkpt lat="43.56215" lon="1.13306">
        <ele>293</ele>
        <time>2021-07-29T09:04:53Z</time>
      </trkpt>
      <trkpt lat="43.56223" lon="1.13309">
        <ele>293</ele>
        <time>2021-07-29T09:05:02Z</time>
      </trkpt>
      <trkpt lat="43.56232" lon="1.13308">
        <ele>293</ele>
        <time>2021-07-29T09:05:09Z</time>
      </trkpt>
      <trkpt lat="43.56234" lon="1.13296">
        <ele>292</ele>
        <time>2021-07-29T09:05:18Z</time>
      </trkpt>
      <trkpt lat="43.56242" lon="1.13289">
        <ele>293</ele>
        <time>2021-07-29T09:05:43Z</time>
      </trkpt>
      <trkpt lat="43.56246" lon="1.1328">
        <ele>293</ele>
        <time>2021-07-29T09:05:49Z</time>
      </trkpt>
      <trkpt lat="43.56247" lon="1.13268">
        <ele>292</ele>
        <time>2021-07-29T09:05:58Z</time>
      </trkpt>
      <trkpt lat="43.5625" lon="1.13256">
        <ele>292</ele>
        <time>2021-07-29T09:06:05Z</time>
      </trkpt>
      <trkpt lat="43.56251" lon="1.13244">
        <ele>292</ele>
        <time>2021-07-29T09:06:13Z</time>
      </trkpt>
      <trkpt lat="43.56252" lon="1.13233">
        <ele>290</ele>
        <time>2021-07-29T09:06:21Z</time>
      </trkpt>
      <trkpt lat="43.56254" lon="1.13222">
        <ele>290</ele>
        <time>2021-07-29T09:06:27Z</time>
      </trkpt>
      <trkpt lat="43.56256" lon="1.13211">
        <ele>290</ele>
        <time>2021-07-29T09:06:33Z</time>
      </trkpt>
      <trkpt lat="43.56258" lon="1.132">
        <ele>289</ele>
        <time>2021-07-29T09:06:40Z</time>
      </trkpt>
      <trkpt lat="43.56261" lon="1.13189">
        <ele>289</ele>
        <time>2021-07-29T09:06:47Z</time>
      </trkpt>
      <trkpt lat="43.56261" lon="1.13178">
        <ele>289</ele>
        <time>2021-07-29T09:06:54Z</time>
      </trkpt>
      <trkpt lat="43.56263" lon="1.13168">
        <ele>288</ele>
        <time>2021-07-29T09:07:00Z</time>
      </trkpt>
      <trkpt lat="43.56265" lon="1.13158">
        <ele>287</ele>
        <time>2021-07-29T09:07:05Z</time>
      </trkpt>
      <trkpt lat="43.56266" lon="1.13148">
        <ele>287</ele>
        <time>2021-07-29T09:07:10Z</time>
      </trkpt>
      <trkpt lat="43.56269" lon="1.13136">
        <ele>287</ele>
        <time>2021-07-29T09:07:16Z</time>
      </trkpt>
      <trkpt lat="43.5627" lon="1.13124">
        <ele>287</ele>
        <time>2021-07-29T09:07:23Z</time>
      </trkpt>
      <trkpt lat="43.56269" lon="1.13113">
        <ele>287</ele>
        <time>2021-07-29T09:07:30Z</time>
      </trkpt>
      <trkpt lat="43.5627" lon="1.13102">
        <ele>289</ele>
        <time>2021-07-29T09:07:37Z</time>
      </trkpt>
      <trkpt lat="43.5627" lon="1.1309">
        <ele>288</ele>
        <time>2021-07-29T09:07:43Z</time>
      </trkpt>
      <trkpt lat="43.56268" lon="1.13079">
        <ele>288</ele>
        <time>2021-07-29T09:07:50Z</time>
      </trkpt>
      <trkpt lat="43.56269" lon="1.13068">
        <ele>289</ele>
        <time>2021-07-29T09:07:58Z</time>
      </trkpt>
      <trkpt lat="43.56266" lon="1.13058">
        <ele>291</ele>
        <time>2021-07-29T09:08:04Z</time>
      </trkpt>
      <trkpt lat="43.56265" lon="1.13046">
        <ele>290</ele>
        <time>2021-07-29T09:08:11Z</time>
      </trkpt>
      <trkpt lat="43.56265" lon="1.13034">
        <ele>290</ele>
        <time>2021-07-29T09:08:17Z</time>
      </trkpt>
      <trkpt lat="43.56266" lon="1.13023">
        <ele>291</ele>
        <time>2021-07-29T09:08:24Z</time>
      </trkpt>
      <trkpt lat="43.56267" lon="1.13011">
        <ele>290</ele>
        <time>2021-07-29T09:08:31Z</time>
      </trkpt>
      <trkpt lat="43.5627" lon="1.13">
        <ele>289</ele>
        <time>2021-07-29T09:08:38Z</time>
      </trkpt>
      <trkpt lat="43.56271" lon="1.12987">
        <ele>288</ele>
        <time>2021-07-29T09:08:45Z</time>
      </trkpt>
      <trkpt lat="43.56272" lon="1.12976">
        <ele>288</ele>
        <time>2021-07-29T09:08:52Z</time>
      </trkpt>
      <trkpt lat="43.56274" lon="1.12965">
        <ele>288</ele>
        <time>2021-07-29T09:08:59Z</time>
      </trkpt>
      <trkpt lat="43.56273" lon="1.12953">
        <ele>289</ele>
        <time>2021-07-29T09:09:08Z</time>
      </trkpt>
      <trkpt lat="43.56275" lon="1.12941">
        <ele>287</ele>
        <time>2021-07-29T09:09:16Z</time>
      </trkpt>
      <trkpt lat="43.56275" lon="1.12929">
        <ele>286</ele>
        <time>2021-07-29T09:09:23Z</time>
      </trkpt>
      <trkpt lat="43.56277" lon="1.12917">
        <ele>286</ele>
        <time>2021-07-29T09:09:29Z</time>
      </trkpt>
      <trkpt lat="43.56279" lon="1.12906">
        <ele>285</ele>
        <time>2021-07-29T09:09:36Z</time>
      </trkpt>
      <trkpt lat="43.5628" lon="1.12895">
        <ele>286</ele>
        <time>2021-07-29T09:09:42Z</time>
      </trkpt>
      <trkpt lat="43.5628" lon="1.12883">
        <ele>285</ele>
        <time>2021-07-29T09:09:49Z</time>
      </trkpt>
      <trkpt lat="43.56283" lon="1.12873">
        <ele>286</ele>
        <time>2021-07-29T09:09:57Z</time>
      </trkpt>
      <trkpt lat="43.56284" lon="1.12862">
        <ele>286</ele>
        <time>2021-07-29T09:10:04Z</time>
      </trkpt>
      <trkpt lat="43.56284" lon="1.1285">
        <ele>287</ele>
        <time>2021-07-29T09:10:14Z</time>
      </trkpt>
      <trkpt lat="43.56286" lon="1.12838">
        <ele>286</ele>
        <time>2021-07-29T09:10:21Z</time>
      </trkpt>
      <trkpt lat="43.56286" lon="1.12827">
        <ele>284</ele>
        <time>2021-07-29T09:10:28Z</time>
      </trkpt>
      <trkpt lat="43.56287" lon="1.12815">
        <ele>283</ele>
        <time>2021-07-29T09:10:35Z</time>
      </trkpt>
      <trkpt lat="43.56287" lon="1.12803">
        <ele>285</ele>
        <time>2021-07-29T09:10:42Z</time>
      </trkpt>
      <trkpt lat="43.56281" lon="1.12795">
        <ele>282</ele>
        <time>2021-07-29T09:11:12Z</time>
      </trkpt>
      <trkpt lat="43.5628" lon="1.12783">
        <ele>279</ele>
        <time>2021-07-29T09:11:19Z</time>
      </trkpt>
      <trkpt lat="43.56281" lon="1.12771">
        <ele>282</ele>
        <time>2021-07-29T09:11:56Z</time>
      </trkpt>
      <trkpt lat="43.5628" lon="1.12759">
        <ele>282</ele>
        <time>2021-07-29T09:12:03Z</time>
      </trkpt>
      <trkpt lat="43.5628" lon="1.12748">
        <ele>282</ele>
        <time>2021-07-29T09:12:09Z</time>
      </trkpt>
      <trkpt lat="43.56281" lon="1.12737">
        <ele>283</ele>
        <time>2021-07-29T09:12:16Z</time>
      </trkpt>
      <trkpt lat="43.56282" lon="1.12726">
        <ele>283</ele>
        <time>2021-07-29T09:12:23Z</time>
      </trkpt>
      <trkpt lat="43.56283" lon="1.12715">
        <ele>282</ele>
        <time>2021-07-29T09:12:28Z</time>
      </trkpt>
      <trkpt lat="43.56283" lon="1.12703">
        <ele>282</ele>
        <time>2021-07-29T09:12:35Z</time>
      </trkpt>
      <trkpt lat="43.56284" lon="1.12692">
        <ele>282</ele>
        <time>2021-07-29T09:12:41Z</time>
      </trkpt>
      <trkpt lat="43.56285" lon="1.1268">
        <ele>282</ele>
        <time>2021-07-29T09:12:48Z</time>
      </trkpt>
      <trkpt lat="43.56285" lon="1.12667">
        <ele>282</ele>
        <time>2021-07-29T09:12:54Z</time>
      </trkpt>
      <trkpt lat="43.56286" lon="1.12656">
        <ele>281</ele>
        <time>2021-07-29T09:13:00Z</time>
      </trkpt>
      <trkpt lat="43.56288" lon="1.12645">
        <ele>280</ele>
        <time>2021-07-29T09:13:08Z</time>
      </trkpt>
      <trkpt lat="43.56288" lon="1.12633">
        <ele>281</ele>
        <time>2021-07-29T09:13:14Z</time>
      </trkpt>
      <trkpt lat="43.5629" lon="1.12622">
        <ele>282</ele>
        <time>2021-07-29T09:13:21Z</time>
      </trkpt>
      <trkpt lat="43.56292" lon="1.12611">
        <ele>280</ele>
        <time>2021-07-29T09:13:26Z</time>
      </trkpt>
      <trkpt lat="43.56291" lon="1.126">
        <ele>281</ele>
        <time>2021-07-29T09:13:33Z</time>
      </trkpt>
      <trkpt lat="43.56292" lon="1.12588">
        <ele>283</ele>
        <time>2021-07-29T09:13:40Z</time>
      </trkpt>
      <trkpt lat="43.56294" lon="1.12579">
        <ele>282</ele>
        <time>2021-07-29T09:13:44Z</time>
      </trkpt>
      <trkpt lat="43.56294" lon="1.12568">
        <ele>284</ele>
        <time>2021-07-29T09:13:49Z</time>
      </trkpt>
      <trkpt lat="43.56292" lon="1.12556">
        <ele>285</ele>
        <time>2021-07-29T09:13:55Z</time>
      </trkpt>
      <trkpt lat="43.56294" lon="1.12545">
        <ele>284</ele>
        <time>2021-07-29T09:14:01Z</time>
      </trkpt>
      <trkpt lat="43.56296" lon="1.12534">
        <ele>283</ele>
        <time>2021-07-29T09:14:08Z</time>
      </trkpt>
      <trkpt lat="43.56297" lon="1.12523">
        <ele>284</ele>
        <time>2021-07-29T09:14:13Z</time>
      </trkpt>
      <trkpt lat="43.56301" lon="1.12513">
        <ele>284</ele>
        <time>2021-07-29T09:14:19Z</time>
      </trkpt>
      <trkpt lat="43.56304" lon="1.12502">
        <ele>283</ele>
        <time>2021-07-29T09:14:26Z</time>
      </trkpt>
      <trkpt lat="43.56307" lon="1.12491">
        <ele>282</ele>
        <time>2021-07-29T09:14:33Z</time>
      </trkpt>
      <trkpt lat="43.5631" lon="1.12481">
        <ele>284</ele>
        <time>2021-07-29T09:14:40Z</time>
      </trkpt>
      <trkpt lat="43.56315" lon="1.12471">
        <ele>284</ele>
        <time>2021-07-29T09:14:47Z</time>
      </trkpt>
      <trkpt lat="43.56319" lon="1.12461">
        <ele>284</ele>
        <time>2021-07-29T09:14:54Z</time>
      </trkpt>
      <trkpt lat="43.56324" lon="1.12451">
        <ele>284</ele>
        <time>2021-07-29T09:15:00Z</time>
      </trkpt>
      <trkpt lat="43.5633" lon="1.12443">
        <ele>284</ele>
        <time>2021-07-29T09:15:06Z</time>
      </trkpt>
      <trkpt lat="43.56336" lon="1.12437">
        <ele>284</ele>
        <time>2021-07-29T09:15:13Z</time>
      </trkpt>
      <trkpt lat="43.56343" lon="1.12432">
        <ele>284</ele>
        <time>2021-07-29T09:15:19Z</time>
      </trkpt>
      <trkpt lat="43.5635" lon="1.12427">
        <ele>285</ele>
        <time>2021-07-29T09:15:25Z</time>
      </trkpt>
      <trkpt lat="43.56357" lon="1.12421">
        <ele>284</ele>
        <time>2021-07-29T09:15:31Z</time>
      </trkpt>
      <trkpt lat="43.56365" lon="1.12417">
        <ele>284</ele>
        <time>2021-07-29T09:15:38Z</time>
      </trkpt>
      <trkpt lat="43.56372" lon="1.12414">
        <ele>287</ele>
        <time>2021-07-29T09:15:42Z</time>
      </trkpt>
      <trkpt lat="43.56379" lon="1.12407">
        <ele>289</ele>
        <time>2021-07-29T09:15:49Z</time>
      </trkpt>
      <trkpt lat="43.5638" lon="1.12395">
        <ele>290</ele>
        <time>2021-07-29T09:15:56Z</time>
      </trkpt>
      <trkpt lat="43.56383" lon="1.12385">
        <ele>290</ele>
        <time>2021-07-29T09:16:04Z</time>
      </trkpt>
      <trkpt lat="43.56388" lon="1.12375">
        <ele>289</ele>
        <time>2021-07-29T09:16:11Z</time>
      </trkpt>
      <trkpt lat="43.5639" lon="1.12363">
        <ele>288</ele>
        <time>2021-07-29T09:16:18Z</time>
      </trkpt>
      <trkpt lat="43.56394" lon="1.12352">
        <ele>288</ele>
        <time>2021-07-29T09:16:24Z</time>
      </trkpt>
      <trkpt lat="43.56397" lon="1.12342">
        <ele>289</ele>
        <time>2021-07-29T09:16:31Z</time>
      </trkpt>
      <trkpt lat="43.56398" lon="1.12331">
        <ele>289</ele>
        <time>2021-07-29T09:16:38Z</time>
      </trkpt>
      <trkpt lat="43.56399" lon="1.12319">
        <ele>290</ele>
        <time>2021-07-29T09:16:44Z</time>
      </trkpt>
      <trkpt lat="43.56399" lon="1.12308">
        <ele>289</ele>
        <time>2021-07-29T09:16:51Z</time>
      </trkpt>
      <trkpt lat="43.56398" lon="1.12296">
        <ele>292</ele>
        <time>2021-07-29T09:16:57Z</time>
      </trkpt>
      <trkpt lat="43.56396" lon="1.12285">
        <ele>293</ele>
        <time>2021-07-29T09:17:04Z</time>
      </trkpt>
      <trkpt lat="43.56391" lon="1.12275">
        <ele>293</ele>
        <time>2021-07-29T09:17:11Z</time>
      </trkpt>
      <trkpt lat="43.56385" lon="1.12268">
        <ele>292</ele>
        <time>2021-07-29T09:17:18Z</time>
      </trkpt>
      <trkpt lat="43.56377" lon="1.12264">
        <ele>293</ele>
        <time>2021-07-29T09:17:24Z</time>
      </trkpt>
      <trkpt lat="43.56369" lon="1.12259">
        <ele>294</ele>
        <time>2021-07-29T09:17:31Z</time>
      </trkpt>
      <trkpt lat="43.56361" lon="1.12255">
        <ele>295</ele>
        <time>2021-07-29T09:17:39Z</time>
      </trkpt>
      <trkpt lat="43.56354" lon="1.1225">
        <ele>297</ele>
        <time>2021-07-29T09:17:46Z</time>
      </trkpt>
      <trkpt lat="43.56347" lon="1.12246">
        <ele>296</ele>
        <time>2021-07-29T09:17:53Z</time>
      </trkpt>
      <trkpt lat="43.56339" lon="1.12243">
        <ele>297</ele>
        <time>2021-07-29T09:18:00Z</time>
      </trkpt>
      <trkpt lat="43.5633" lon="1.1224">
        <ele>299</ele>
        <time>2021-07-29T09:18:08Z</time>
      </trkpt>
      <trkpt lat="43.56322" lon="1.12236">
        <ele>297</ele>
        <time>2021-07-29T09:18:17Z</time>
      </trkpt>
      <trkpt lat="43.56314" lon="1.12236">
        <ele>297</ele>
        <time>2021-07-29T09:18:24Z</time>
      </trkpt>
      <trkpt lat="43.56305" lon="1.12233">
        <ele>297</ele>
        <time>2021-07-29T09:18:33Z</time>
      </trkpt>
      <trkpt lat="43.56297" lon="1.12229">
        <ele>298</ele>
        <time>2021-07-29T09:18:41Z</time>
      </trkpt>
      <trkpt lat="43.56291" lon="1.12222">
        <ele>298</ele>
        <time>2021-07-29T09:18:49Z</time>
      </trkpt>
      <trkpt lat="43.56284" lon="1.12215">
        <ele>299</ele>
        <time>2021-07-29T09:18:55Z</time>
      </trkpt>
      <trkpt lat="43.56278" lon="1.12208">
        <ele>302</ele>
        <time>2021-07-29T09:19:03Z</time>
      </trkpt>
      <trkpt lat="43.56271" lon="1.12201">
        <ele>305</ele>
        <time>2021-07-29T09:19:11Z</time>
      </trkpt>
      <trkpt lat="43.56264" lon="1.12193">
        <ele>307</ele>
        <time>2021-07-29T09:19:19Z</time>
      </trkpt>
      <trkpt lat="43.56258" lon="1.12186">
        <ele>308</ele>
        <time>2021-07-29T09:19:26Z</time>
      </trkpt>
      <trkpt lat="43.56252" lon="1.12177">
        <ele>308</ele>
        <time>2021-07-29T09:19:33Z</time>
      </trkpt>
      <trkpt lat="43.56246" lon="1.1217">
        <ele>309</ele>
        <time>2021-07-29T09:19:39Z</time>
      </trkpt>
      <trkpt lat="43.56239" lon="1.12164">
        <ele>308</ele>
        <time>2021-07-29T09:19:47Z</time>
      </trkpt>
      <trkpt lat="43.56232" lon="1.12159">
        <ele>308</ele>
        <time>2021-07-29T09:19:52Z</time>
      </trkpt>
      <trkpt lat="43.56226" lon="1.12152">
        <ele>308</ele>
        <time>2021-07-29T09:19:58Z</time>
      </trkpt>
      <trkpt lat="43.56218" lon="1.12146">
        <ele>310</ele>
        <time>2021-07-29T09:20:14Z</time>
      </trkpt>
      <trkpt lat="43.56211" lon="1.12139">
        <ele>311</ele>
        <time>2021-07-29T09:20:23Z</time>
      </trkpt>
      <trkpt lat="43.56203" lon="1.12133">
        <ele>310</ele>
        <time>2021-07-29T09:20:30Z</time>
      </trkpt>
      <trkpt lat="43.56197" lon="1.12127">
        <ele>310</ele>
        <time>2021-07-29T09:20:39Z</time>
      </trkpt>
      <trkpt lat="43.56196" lon="1.12115">
        <ele>309</ele>
        <time>2021-07-29T09:20:57Z</time>
      </trkpt>
      <trkpt lat="43.56199" lon="1.12104">
        <ele>308</ele>
        <time>2021-07-29T09:21:05Z</time>
      </trkpt>
      <trkpt lat="43.56206" lon="1.12097">
        <ele>309</ele>
        <time>2021-07-29T09:21:11Z</time>
      </trkpt>
      <trkpt lat="43.56212" lon="1.12089">
        <ele>309</ele>
        <time>2021-07-29T09:21:18Z</time>
      </trkpt>
      <trkpt lat="43.56216" lon="1.12078">
        <ele>310</ele>
        <time>2021-07-29T09:21:25Z</time>
      </trkpt>
      <trkpt lat="43.56217" lon="1.12067">
        <ele>310</ele>
        <time>2021-07-29T09:21:32Z</time>
      </trkpt>
      <trkpt lat="43.56214" lon="1.12055">
        <ele>309</ele>
        <time>2021-07-29T09:21:41Z</time>
      </trkpt>
      <trkpt lat="43.56214" lon="1.12043">
        <ele>304</ele>
        <time>2021-07-29T09:22:42Z</time>
      </trkpt>
      <trkpt lat="43.56218" lon="1.12034">
        <ele>303</ele>
        <time>2021-07-29T09:22:49Z</time>
      </trkpt>
      <trkpt lat="43.56218" lon="1.12022">
        <ele>302</ele>
        <time>2021-07-29T09:22:56Z</time>
      </trkpt>
      <trkpt lat="43.56212" lon="1.12014">
        <ele>303</ele>
        <time>2021-07-29T09:23:04Z</time>
      </trkpt>
      <trkpt lat="43.56208" lon="1.12003">
        <ele>304</ele>
        <time>2021-07-29T09:23:17Z</time>
      </trkpt>
      <trkpt lat="43.56206" lon="1.11992">
        <ele>304</ele>
        <time>2021-07-29T09:23:26Z</time>
      </trkpt>
      <trkpt lat="43.56204" lon="1.11981">
        <ele>303</ele>
        <time>2021-07-29T09:23:34Z</time>
      </trkpt>
      <trkpt lat="43.56207" lon="1.11971">
        <ele>300</ele>
        <time>2021-07-29T09:23:51Z</time>
      </trkpt>
      <trkpt lat="43.56214" lon="1.11963">
        <ele>298</ele>
        <time>2021-07-29T09:23:58Z</time>
      </trkpt>
      <trkpt lat="43.56222" lon="1.11959">
        <ele>296</ele>
        <time>2021-07-29T09:24:08Z</time>
      </trkpt>
      <trkpt lat="43.56223" lon="1.11948">
        <ele>293</ele>
        <time>2021-07-29T09:24:21Z</time>
      </trkpt>
      <trkpt lat="43.56222" lon="1.11937">
        <ele>295</ele>
        <time>2021-07-29T09:24:29Z</time>
      </trkpt>
      <trkpt lat="43.56221" lon="1.11924">
        <ele>295</ele>
        <time>2021-07-29T09:24:39Z</time>
      </trkpt>
      <trkpt lat="43.56222" lon="1.11913">
        <ele>293</ele>
        <time>2021-07-29T09:24:47Z</time>
      </trkpt>
      <trkpt lat="43.56222" lon="1.11901">
        <ele>291</ele>
        <time>2021-07-29T09:24:55Z</time>
      </trkpt>
      <trkpt lat="43.56222" lon="1.11889">
        <ele>291</ele>
        <time>2021-07-29T09:25:02Z</time>
      </trkpt>
      <trkpt lat="43.56222" lon="1.11877">
        <ele>291</ele>
        <time>2021-07-29T09:25:10Z</time>
      </trkpt>
      <trkpt lat="43.56219" lon="1.11867">
        <ele>290</ele>
        <time>2021-07-29T09:25:17Z</time>
      </trkpt>
      <trkpt lat="43.56213" lon="1.1186">
        <ele>290</ele>
        <time>2021-07-29T09:25:23Z</time>
      </trkpt>
      <trkpt lat="43.56206" lon="1.11857">
        <ele>291</ele>
        <time>2021-07-29T09:25:33Z</time>
      </trkpt>
      <trkpt lat="43.56197" lon="1.11861">
        <ele>292</ele>
        <time>2021-07-29T09:25:43Z</time>
      </trkpt>
      <trkpt lat="43.56189" lon="1.1186">
        <ele>294</ele>
        <time>2021-07-29T09:25:52Z</time>
      </trkpt>
      <trkpt lat="43.56181" lon="1.11856">
        <ele>294</ele>
        <time>2021-07-29T09:26:00Z</time>
      </trkpt>
      <trkpt lat="43.56174" lon="1.11849">
        <ele>294</ele>
        <time>2021-07-29T09:26:08Z</time>
      </trkpt>
      <trkpt lat="43.56167" lon="1.11843">
        <ele>295</ele>
        <time>2021-07-29T09:26:15Z</time>
      </trkpt>
      <trkpt lat="43.56159" lon="1.11838">
        <ele>295</ele>
        <time>2021-07-29T09:26:22Z</time>
      </trkpt>
      <trkpt lat="43.56151" lon="1.11835">
        <ele>295</ele>
        <time>2021-07-29T09:26:31Z</time>
      </trkpt>
      <trkpt lat="43.56143" lon="1.11834">
        <ele>295</ele>
        <time>2021-07-29T09:26:38Z</time>
      </trkpt>
      <trkpt lat="43.56135" lon="1.11832">
        <ele>295</ele>
        <time>2021-07-29T09:26:47Z</time>
      </trkpt>
      <trkpt lat="43.56127" lon="1.11835">
        <ele>295</ele>
        <time>2021-07-29T09:26:53Z</time>
      </trkpt>
      <trkpt lat="43.56121" lon="1.11842">
        <ele>297</ele>
        <time>2021-07-29T09:27:01Z</time>
      </trkpt>
      <trkpt lat="43.56115" lon="1.11852">
        <ele>299</ele>
        <time>2021-07-29T09:27:09Z</time>
      </trkpt>
      <trkpt lat="43.56111" lon="1.11861">
        <ele>301</ele>
        <time>2021-07-29T09:27:16Z</time>
      </trkpt>
      <trkpt lat="43.56109" lon="1.11869">
        <ele>305</ele>
        <time>2021-07-29T09:27:25Z</time>
      </trkpt>
      <trkpt lat="43.56104" lon="1.1188">
        <ele>307</ele>
        <time>2021-07-29T09:27:32Z</time>
      </trkpt>
      <trkpt lat="43.561" lon="1.1189">
        <ele>307</ele>
        <time>2021-07-29T09:27:39Z</time>
      </trkpt>
      <trkpt lat="43.56099" lon="1.11901">
        <ele>308</ele>
        <time>2021-07-29T09:27:45Z</time>
      </trkpt>
      <trkpt lat="43.56093" lon="1.11911">
        <ele>310</ele>
        <time>2021-07-29T09:27:53Z</time>
      </trkpt>
      <trkpt lat="43.56089" lon="1.11921">
        <ele>309</ele>
        <time>2021-07-29T09:28:00Z</time>
      </trkpt>
      <trkpt lat="43.56092" lon="1.11931">
        <ele>306</ele>
        <time>2021-07-29T09:28:06Z</time>
      </trkpt>
      <trkpt lat="43.56095" lon="1.11941">
        <ele>305</ele>
        <time>2021-07-29T09:28:12Z</time>
      </trkpt>
      <trkpt lat="43.56098" lon="1.1195">
        <ele>306</ele>
        <time>2021-07-29T09:28:19Z</time>
      </trkpt>
      <trkpt lat="43.56103" lon="1.11959">
        <ele>307</ele>
        <time>2021-07-29T09:28:26Z</time>
      </trkpt>
      <trkpt lat="43.56104" lon="1.1197">
        <ele>304</ele>
        <time>2021-07-29T09:28:33Z</time>
      </trkpt>
      <trkpt lat="43.56101" lon="1.11982">
        <ele>305</ele>
        <time>2021-07-29T09:28:40Z</time>
      </trkpt>
      <trkpt lat="43.561" lon="1.11994">
        <ele>305</ele>
        <time>2021-07-29T09:28:48Z</time>
      </trkpt>
      <trkpt lat="43.56097" lon="1.12004">
        <ele>305</ele>
        <time>2021-07-29T09:28:54Z</time>
      </trkpt>
      <trkpt lat="43.56091" lon="1.12013">
        <ele>304</ele>
        <time>2021-07-29T09:29:01Z</time>
      </trkpt>
      <trkpt lat="43.56085" lon="1.12022">
        <ele>305</ele>
        <time>2021-07-29T09:29:07Z</time>
      </trkpt>
      <trkpt lat="43.56078" lon="1.12029">
        <ele>307</ele>
        <time>2021-07-29T09:29:13Z</time>
      </trkpt>
      <trkpt lat="43.56072" lon="1.12022">
        <ele>309</ele>
        <time>2021-07-29T09:29:23Z</time>
      </trkpt>
      <trkpt lat="43.56068" lon="1.12012">
        <ele>309</ele>
        <time>2021-07-29T09:29:30Z</time>
      </trkpt>
      <trkpt lat="43.56063" lon="1.12003">
        <ele>310</ele>
        <time>2021-07-29T09:29:37Z</time>
      </trkpt>
      <trkpt lat="43.56059" lon="1.11994">
        <ele>309</ele>
        <time>2021-07-29T09:29:43Z</time>
      </trkpt>
      <trkpt lat="43.56053" lon="1.11985">
        <ele>309</ele>
        <time>2021-07-29T09:29:49Z</time>
      </trkpt>
      <trkpt lat="43.56047" lon="1.11977">
        <ele>309</ele>
        <time>2021-07-29T09:29:55Z</time>
      </trkpt>
      <trkpt lat="43.56043" lon="1.11968">
        <ele>309</ele>
        <time>2021-07-29T09:30:01Z</time>
      </trkpt>
      <trkpt lat="43.56039" lon="1.11958">
        <ele>311</ele>
        <time>2021-07-29T09:30:07Z</time>
      </trkpt>
      <trkpt lat="43.56033" lon="1.11949">
        <ele>310</ele>
        <time>2021-07-29T09:30:13Z</time>
      </trkpt>
      <trkpt lat="43.56028" lon="1.11941">
        <ele>310</ele>
        <time>2021-07-29T09:30:19Z</time>
      </trkpt>
      <trkpt lat="43.56021" lon="1.11933">
        <ele>309</ele>
        <time>2021-07-29T09:30:25Z</time>
      </trkpt>
      <trkpt lat="43.56017" lon="1.11924">
        <ele>308</ele>
        <time>2021-07-29T09:30:31Z</time>
      </trkpt>
      <trkpt lat="43.56013" lon="1.11914">
        <ele>307</ele>
        <time>2021-07-29T09:30:38Z</time>
      </trkpt>
      <trkpt lat="43.56011" lon="1.11903">
        <ele>308</ele>
        <time>2021-07-29T09:30:45Z</time>
      </trkpt>
      <trkpt lat="43.56013" lon="1.11892">
        <ele>307</ele>
        <time>2021-07-29T09:30:52Z</time>
      </trkpt>
      <trkpt lat="43.56014" lon="1.11881">
        <ele>306</ele>
        <time>2021-07-29T09:30:58Z</time>
      </trkpt>
      <trkpt lat="43.56016" lon="1.11871">
        <ele>305</ele>
        <time>2021-07-29T09:31:04Z</time>
      </trkpt>
      <trkpt lat="43.56018" lon="1.1186">
        <ele>304</ele>
        <time>2021-07-29T09:31:11Z</time>
      </trkpt>
      <trkpt lat="43.56019" lon="1.11848">
        <ele>304</ele>
        <time>2021-07-29T09:31:18Z</time>
      </trkpt>
      <trkpt lat="43.56021" lon="1.11837">
        <ele>304</ele>
        <time>2021-07-29T09:31:25Z</time>
      </trkpt>
      <trkpt lat="43.56022" lon="1.11827">
        <ele>305</ele>
        <time>2021-07-29T09:31:30Z</time>
      </trkpt>
      <trkpt lat="43.56023" lon="1.11816">
        <ele>306</ele>
        <time>2021-07-29T09:31:35Z</time>
      </trkpt>
      <trkpt lat="43.56022" lon="1.11805">
        <ele>305</ele>
        <time>2021-07-29T09:31:42Z</time>
      </trkpt>
      <trkpt lat="43.56021" lon="1.11793">
        <ele>305</ele>
        <time>2021-07-29T09:31:50Z</time>
      </trkpt>
      <trkpt lat="43.56018" lon="1.11782">
        <ele>304</ele>
        <time>2021-07-29T09:31:57Z</time>
      </trkpt>
      <trkpt lat="43.56016" lon="1.11771">
        <ele>306</ele>
        <time>2021-07-29T09:32:08Z</time>
      </trkpt>
      <trkpt lat="43.56015" lon="1.11759">
        <ele>305</ele>
        <time>2021-07-29T09:32:16Z</time>
      </trkpt>
      <trkpt lat="43.56011" lon="1.11748">
        <ele>305</ele>
        <time>2021-07-29T09:32:23Z</time>
      </trkpt>
      <trkpt lat="43.56008" lon="1.11737">
        <ele>307</ele>
        <time>2021-07-29T09:32:30Z</time>
      </trkpt>
      <trkpt lat="43.56007" lon="1.11726">
        <ele>307</ele>
        <time>2021-07-29T09:32:36Z</time>
      </trkpt>
      <trkpt lat="43.56006" lon="1.11715">
        <ele>306</ele>
        <time>2021-07-29T09:32:42Z</time>
      </trkpt>
      <trkpt lat="43.56006" lon="1.11704">
        <ele>306</ele>
        <time>2021-07-29T09:32:48Z</time>
      </trkpt>
      <trkpt lat="43.56007" lon="1.11692">
        <ele>306</ele>
        <time>2021-07-29T09:32:55Z</time>
      </trkpt>
      <trkpt lat="43.56009" lon="1.11681">
        <ele>307</ele>
        <time>2021-07-29T09:33:02Z</time>
      </trkpt>
      <trkpt lat="43.56012" lon="1.11669">
        <ele>308</ele>
        <time>2021-07-29T09:33:09Z</time>
      </trkpt>
      <trkpt lat="43.56013" lon="1.11658">
        <ele>309</ele>
        <time>2021-07-29T09:33:15Z</time>
      </trkpt>
      <trkpt lat="43.56013" lon="1.11646">
        <ele>310</ele>
        <time>2021-07-29T09:33:24Z</time>
      </trkpt>
      <trkpt lat="43.56014" lon="1.11634">
        <ele>311</ele>
        <time>2021-07-29T09:33:31Z</time>
      </trkpt>
      <trkpt lat="43.56013" lon="1.11624">
        <ele>310</ele>
        <time>2021-07-29T09:33:37Z</time>
      </trkpt>
      <trkpt lat="43.56011" lon="1.11612">
        <ele>309</ele>
        <time>2021-07-29T09:33:43Z</time>
      </trkpt>
      <trkpt lat="43.56006" lon="1.11602">
        <ele>309</ele>
        <time>2021-07-29T09:33:51Z</time>
      </trkpt>
      <trkpt lat="43.56001" lon="1.11593">
        <ele>309</ele>
        <time>2021-07-29T09:33:58Z</time>
      </trkpt>
      <trkpt lat="43.55997" lon="1.11584">
        <ele>310</ele>
        <time>2021-07-29T09:34:03Z</time>
      </trkpt>
      <trkpt lat="43.55992" lon="1.11573">
        <ele>309</ele>
        <time>2021-07-29T09:34:10Z</time>
      </trkpt>
      <trkpt lat="43.55986" lon="1.11565">
        <ele>309</ele>
        <time>2021-07-29T09:34:18Z</time>
      </trkpt>
      <trkpt lat="43.5598" lon="1.11559">
        <ele>309</ele>
        <time>2021-07-29T09:34:24Z</time>
      </trkpt>
      <trkpt lat="43.55973" lon="1.1155">
        <ele>309</ele>
        <time>2021-07-29T09:34:30Z</time>
      </trkpt>
      <trkpt lat="43.55968" lon="1.11542">
        <ele>310</ele>
        <time>2021-07-29T09:34:37Z</time>
      </trkpt>
      <trkpt lat="43.55962" lon="1.11533">
        <ele>310</ele>
        <time>2021-07-29T09:34:44Z</time>
      </trkpt>
      <trkpt lat="43.55956" lon="1.11524">
        <ele>312</ele>
        <time>2021-07-29T09:34:52Z</time>
      </trkpt>
      <trkpt lat="43.55953" lon="1.11513">
        <ele>310</ele>
        <time>2021-07-29T09:35:00Z</time>
      </trkpt>
      <trkpt lat="43.55948" lon="1.11502">
        <ele>311</ele>
        <time>2021-07-29T09:35:07Z</time>
      </trkpt>
      <trkpt lat="43.55944" lon="1.11492">
        <ele>310</ele>
        <time>2021-07-29T09:35:15Z</time>
      </trkpt>
      <trkpt lat="43.55941" lon="1.11482">
        <ele>310</ele>
        <time>2021-07-29T09:35:22Z</time>
      </trkpt>
      <trkpt lat="43.55938" lon="1.1147">
        <ele>310</ele>
        <time>2021-07-29T09:35:29Z</time>
      </trkpt>
      <trkpt lat="43.55937" lon="1.11459">
        <ele>310</ele>
        <time>2021-07-29T09:35:35Z</time>
      </trkpt>
      <trkpt lat="43.55939" lon="1.11447">
        <ele>309</ele>
        <time>2021-07-29T09:35:42Z</time>
      </trkpt>
      <trkpt lat="43.5594" lon="1.11436">
        <ele>310</ele>
        <time>2021-07-29T09:35:49Z</time>
      </trkpt>
      <trkpt lat="43.55941" lon="1.11425">
        <ele>310</ele>
        <time>2021-07-29T09:35:55Z</time>
      </trkpt>
      <trkpt lat="43.55941" lon="1.11414">
        <ele>309</ele>
        <time>2021-07-29T09:36:01Z</time>
      </trkpt>
      <trkpt lat="43.55944" lon="1.11402">
        <ele>309</ele>
        <time>2021-07-29T09:36:08Z</time>
      </trkpt>
      <trkpt lat="43.55946" lon="1.11391">
        <ele>309</ele>
        <time>2021-07-29T09:36:15Z</time>
      </trkpt>
      <trkpt lat="43.55947" lon="1.1138">
        <ele>308</ele>
        <time>2021-07-29T09:36:22Z</time>
      </trkpt>
      <trkpt lat="43.55949" lon="1.11369">
        <ele>307</ele>
        <time>2021-07-29T09:36:28Z</time>
      </trkpt>
      <trkpt lat="43.5595" lon="1.11357">
        <ele>306</ele>
        <time>2021-07-29T09:36:35Z</time>
      </trkpt>
      <trkpt lat="43.55952" lon="1.11347">
        <ele>306</ele>
        <time>2021-07-29T09:36:40Z</time>
      </trkpt>
      <trkpt lat="43.55955" lon="1.11336">
        <ele>308</ele>
        <time>2021-07-29T09:36:47Z</time>
      </trkpt>
      <trkpt lat="43.55957" lon="1.11326">
        <ele>308</ele>
        <time>2021-07-29T09:36:53Z</time>
      </trkpt>
      <trkpt lat="43.5596" lon="1.11316">
        <ele>308</ele>
        <time>2021-07-29T09:36:59Z</time>
      </trkpt>
      <trkpt lat="43.5596" lon="1.11306">
        <ele>309</ele>
        <time>2021-07-29T09:37:05Z</time>
      </trkpt>
      <trkpt lat="43.55962" lon="1.11295">
        <ele>308</ele>
        <time>2021-07-29T09:37:11Z</time>
      </trkpt>
      <trkpt lat="43.55962" lon="1.11283">
        <ele>307</ele>
        <time>2021-07-29T09:37:18Z</time>
      </trkpt>
      <trkpt lat="43.55961" lon="1.11272">
        <ele>308</ele>
        <time>2021-07-29T09:37:24Z</time>
      </trkpt>
      <trkpt lat="43.5596" lon="1.11261">
        <ele>306</ele>
        <time>2021-07-29T09:37:30Z</time>
      </trkpt>
      <trkpt lat="43.55959" lon="1.1125">
        <ele>308</ele>
        <time>2021-07-29T09:37:36Z</time>
      </trkpt>
      <trkpt lat="43.55961" lon="1.1124">
        <ele>307</ele>
        <time>2021-07-29T09:37:42Z</time>
      </trkpt>
      <trkpt lat="43.55962" lon="1.11228">
        <ele>308</ele>
        <time>2021-07-29T09:37:49Z</time>
      </trkpt>
      <trkpt lat="43.55962" lon="1.11216">
        <ele>308</ele>
        <time>2021-07-29T09:37:56Z</time>
      </trkpt>
      <trkpt lat="43.55961" lon="1.11206">
        <ele>308</ele>
        <time>2021-07-29T09:38:02Z</time>
      </trkpt>
      <trkpt lat="43.55961" lon="1.11194">
        <ele>308</ele>
        <time>2021-07-29T09:38:09Z</time>
      </trkpt>
      <trkpt lat="43.55961" lon="1.11182">
        <ele>308</ele>
        <time>2021-07-29T09:38:16Z</time>
      </trkpt>
      <trkpt lat="43.55959" lon="1.1117">
        <ele>307</ele>
        <time>2021-07-29T09:38:23Z</time>
      </trkpt>
      <trkpt lat="43.55957" lon="1.11158">
        <ele>306</ele>
        <time>2021-07-29T09:38:30Z</time>
      </trkpt>
      <trkpt lat="43.55955" lon="1.11147">
        <ele>306</ele>
        <time>2021-07-29T09:38:36Z</time>
      </trkpt>
      <trkpt lat="43.55953" lon="1.11136">
        <ele>305</ele>
        <time>2021-07-29T09:38:43Z</time>
      </trkpt>
      <trkpt lat="43.5595" lon="1.11126">
        <ele>304</ele>
        <time>2021-07-29T09:38:50Z</time>
      </trkpt>
      <trkpt lat="43.55949" lon="1.11114">
        <ele>304</ele>
        <time>2021-07-29T09:38:56Z</time>
      </trkpt>
      <trkpt lat="43.55947" lon="1.11103">
        <ele>303</ele>
        <time>2021-07-29T09:39:03Z</time>
      </trkpt>
      <trkpt lat="43.55946" lon="1.11092">
        <ele>302</ele>
        <time>2021-07-29T09:39:10Z</time>
      </trkpt>
      <trkpt lat="43.55945" lon="1.11081">
        <ele>301</ele>
        <time>2021-07-29T09:39:16Z</time>
      </trkpt>
      <trkpt lat="43.55943" lon="1.1107">
        <ele>301</ele>
        <time>2021-07-29T09:39:22Z</time>
      </trkpt>
      <trkpt lat="43.55942" lon="1.1106">
        <ele>302</ele>
        <time>2021-07-29T09:39:28Z</time>
      </trkpt>
      <trkpt lat="43.5594" lon="1.11048">
        <ele>302</ele>
        <time>2021-07-29T09:39:35Z</time>
      </trkpt>
      <trkpt lat="43.55939" lon="1.11037">
        <ele>301</ele>
        <time>2021-07-29T09:39:41Z</time>
      </trkpt>
      <trkpt lat="43.55937" lon="1.11026">
        <ele>300</ele>
        <time>2021-07-29T09:39:47Z</time>
      </trkpt>
      <trkpt lat="43.55935" lon="1.11015">
        <ele>300</ele>
        <time>2021-07-29T09:39:54Z</time>
      </trkpt>
      <trkpt lat="43.55935" lon="1.11004">
        <ele>300</ele>
        <time>2021-07-29T09:40:00Z</time>
      </trkpt>
      <trkpt lat="43.55933" lon="1.10993">
        <ele>299</ele>
        <time>2021-07-29T09:40:07Z</time>
      </trkpt>
      <trkpt lat="43.55932" lon="1.10982">
        <ele>298</ele>
        <time>2021-07-29T09:40:14Z</time>
      </trkpt>
      <trkpt lat="43.5593" lon="1.1097">
        <ele>298</ele>
        <time>2021-07-29T09:40:21Z</time>
      </trkpt>
      <trkpt lat="43.5593" lon="1.10959">
        <ele>298</ele>
        <time>2021-07-29T09:40:28Z</time>
      </trkpt>
      <trkpt lat="43.55929" lon="1.10948">
        <ele>300</ele>
        <time>2021-07-29T09:40:44Z</time>
      </trkpt>
      <trkpt lat="43.55923" lon="1.1094">
        <ele>304</ele>
        <time>2021-07-29T09:41:02Z</time>
      </trkpt>
      <trkpt lat="43.55919" lon="1.10929">
        <ele>303</ele>
        <time>2021-07-29T09:41:09Z</time>
      </trkpt>
      <trkpt lat="43.55918" lon="1.10918">
        <ele>302</ele>
        <time>2021-07-29T09:41:37Z</time>
      </trkpt>
      <trkpt lat="43.55915" lon="1.10907">
        <ele>300</ele>
        <time>2021-07-29T09:41:45Z</time>
      </trkpt>
      <trkpt lat="43.55913" lon="1.10897">
        <ele>301</ele>
        <time>2021-07-29T09:41:51Z</time>
      </trkpt>
      <trkpt lat="43.55911" lon="1.10886">
        <ele>302</ele>
        <time>2021-07-29T09:41:57Z</time>
      </trkpt>
      <trkpt lat="43.55906" lon="1.10877">
        <ele>301</ele>
        <time>2021-07-29T09:42:04Z</time>
      </trkpt>
      <trkpt lat="43.559" lon="1.10871">
        <ele>303</ele>
        <time>2021-07-29T09:42:10Z</time>
      </trkpt>
      <trkpt lat="43.55892" lon="1.10865">
        <ele>303</ele>
        <time>2021-07-29T09:42:18Z</time>
      </trkpt>
      <trkpt lat="43.55885" lon="1.10857">
        <ele>301</ele>
        <time>2021-07-29T09:42:27Z</time>
      </trkpt>
      <trkpt lat="43.55878" lon="1.10851">
        <ele>300</ele>
        <time>2021-07-29T09:42:35Z</time>
      </trkpt>
      <trkpt lat="43.55871" lon="1.10845">
        <ele>298</ele>
        <time>2021-07-29T09:42:43Z</time>
      </trkpt>
      <trkpt lat="43.55865" lon="1.10836">
        <ele>297</ele>
        <time>2021-07-29T09:42:51Z</time>
      </trkpt>
      <trkpt lat="43.55857" lon="1.10831">
        <ele>296</ele>
        <time>2021-07-29T09:42:59Z</time>
      </trkpt>
      <trkpt lat="43.55851" lon="1.10822">
        <ele>294</ele>
        <time>2021-07-29T09:43:05Z</time>
      </trkpt>
      <trkpt lat="43.55848" lon="1.10811">
        <ele>293</ele>
        <time>2021-07-29T09:43:13Z</time>
      </trkpt>
      <trkpt lat="43.55847" lon="1.108">
        <ele>293</ele>
        <time>2021-07-29T09:43:19Z</time>
      </trkpt>
      <trkpt lat="43.55843" lon="1.10789">
        <ele>292</ele>
        <time>2021-07-29T09:43:27Z</time>
      </trkpt>
      <trkpt lat="43.55844" lon="1.10778">
        <ele>292</ele>
        <time>2021-07-29T09:43:33Z</time>
      </trkpt>
      <trkpt lat="43.55843" lon="1.10766">
        <ele>293</ele>
        <time>2021-07-29T09:43:40Z</time>
      </trkpt>
      <trkpt lat="43.55845" lon="1.10754">
        <ele>294</ele>
        <time>2021-07-29T09:43:48Z</time>
      </trkpt>
      <trkpt lat="43.55842" lon="1.10744">
        <ele>293</ele>
        <time>2021-07-29T09:43:55Z</time>
      </trkpt>
      <trkpt lat="43.55839" lon="1.10733">
        <ele>291</ele>
        <time>2021-07-29T09:44:35Z</time>
      </trkpt>
      <trkpt lat="43.55839" lon="1.10722">
        <ele>291</ele>
        <time>2021-07-29T09:44:41Z</time>
      </trkpt>
      <trkpt lat="43.55838" lon="1.1071">
        <ele>292</ele>
        <time>2021-07-29T09:44:48Z</time>
      </trkpt>
      <trkpt lat="43.55837" lon="1.10698">
        <ele>291</ele>
        <time>2021-07-29T09:44:56Z</time>
      </trkpt>
      <trkpt lat="43.55837" lon="1.10686">
        <ele>290</ele>
        <time>2021-07-29T09:45:03Z</time>
      </trkpt>
      <trkpt lat="43.55837" lon="1.10675">
        <ele>290</ele>
        <time>2021-07-29T09:45:10Z</time>
      </trkpt>
      <trkpt lat="43.55837" lon="1.10663">
        <ele>290</ele>
        <time>2021-07-29T09:45:17Z</time>
      </trkpt>
      <trkpt lat="43.55836" lon="1.10652">
        <ele>291</ele>
        <time>2021-07-29T09:45:23Z</time>
      </trkpt>
      <trkpt lat="43.55835" lon="1.10641">
        <ele>291</ele>
        <time>2021-07-29T09:45:29Z</time>
      </trkpt>
      <trkpt lat="43.55832" lon="1.1063">
        <ele>287</ele>
        <time>2021-07-29T09:45:37Z</time>
      </trkpt>
      <trkpt lat="43.5583" lon="1.10618">
        <ele>288</ele>
        <time>2021-07-29T09:45:43Z</time>
      </trkpt>
      <trkpt lat="43.55826" lon="1.10608">
        <ele>287</ele>
        <time>2021-07-29T09:45:49Z</time>
      </trkpt>
      <trkpt lat="43.55821" lon="1.10598">
        <ele>288</ele>
        <time>2021-07-29T09:45:56Z</time>
      </trkpt>
      <trkpt lat="43.55818" lon="1.10587">
        <ele>286</ele>
        <time>2021-07-29T09:46:04Z</time>
      </trkpt>
      <trkpt lat="43.55813" lon="1.10578">
        <ele>285</ele>
        <time>2021-07-29T09:46:11Z</time>
      </trkpt>
      <trkpt lat="43.55808" lon="1.10569">
        <ele>283</ele>
        <time>2021-07-29T09:46:18Z</time>
      </trkpt>
      <trkpt lat="43.55803" lon="1.10561">
        <ele>282</ele>
        <time>2021-07-29T09:46:24Z</time>
      </trkpt>
      <trkpt lat="43.55799" lon="1.10551">
        <ele>280</ele>
        <time>2021-07-29T09:46:30Z</time>
      </trkpt>
      <trkpt lat="43.55796" lon="1.10539">
        <ele>280</ele>
        <time>2021-07-29T09:46:38Z</time>
      </trkpt>
      <trkpt lat="43.55793" lon="1.10528">
        <ele>280</ele>
        <time>2021-07-29T09:46:44Z</time>
      </trkpt>
      <trkpt lat="43.55792" lon="1.10517">
        <ele>280</ele>
        <time>2021-07-29T09:46:52Z</time>
      </trkpt>
      <trkpt lat="43.55788" lon="1.10506">
        <ele>279</ele>
        <time>2021-07-29T09:46:58Z</time>
      </trkpt>
      <trkpt lat="43.55784" lon="1.10496">
        <ele>279</ele>
        <time>2021-07-29T09:47:04Z</time>
      </trkpt>
      <trkpt lat="43.55784" lon="1.10484">
        <ele>280</ele>
        <time>2021-07-29T09:47:12Z</time>
      </trkpt>
      <trkpt lat="43.55783" lon="1.10473">
        <ele>280</ele>
        <time>2021-07-29T09:47:19Z</time>
      </trkpt>
      <trkpt lat="43.55783" lon="1.10461">
        <ele>281</ele>
        <time>2021-07-29T09:47:25Z</time>
      </trkpt>
      <trkpt lat="43.55783" lon="1.1045">
        <ele>280</ele>
        <time>2021-07-29T09:47:33Z</time>
      </trkpt>
      <trkpt lat="43.55783" lon="1.10437">
        <ele>279</ele>
        <time>2021-07-29T09:47:41Z</time>
      </trkpt>
      <trkpt lat="43.55783" lon="1.10425">
        <ele>278</ele>
        <time>2021-07-29T09:47:49Z</time>
      </trkpt>
      <trkpt lat="43.55783" lon="1.10414">
        <ele>279</ele>
        <time>2021-07-29T09:47:55Z</time>
      </trkpt>
      <trkpt lat="43.55782" lon="1.10401">
        <ele>277</ele>
        <time>2021-07-29T09:48:02Z</time>
      </trkpt>
      <trkpt lat="43.55783" lon="1.1039">
        <ele>278</ele>
        <time>2021-07-29T09:48:09Z</time>
      </trkpt>
      <trkpt lat="43.5578" lon="1.10379">
        <ele>277</ele>
        <time>2021-07-29T09:48:31Z</time>
      </trkpt>
      <trkpt lat="43.55779" lon="1.10367">
        <ele>277</ele>
        <time>2021-07-29T09:48:38Z</time>
      </trkpt>
      <trkpt lat="43.55776" lon="1.10356">
        <ele>277</ele>
        <time>2021-07-29T09:48:45Z</time>
      </trkpt>
      <trkpt lat="43.55776" lon="1.10344">
        <ele>278</ele>
        <time>2021-07-29T09:48:52Z</time>
      </trkpt>
      <trkpt lat="43.55774" lon="1.10333">
        <ele>278</ele>
        <time>2021-07-29T09:48:59Z</time>
      </trkpt>
      <trkpt lat="43.55775" lon="1.10322">
        <ele>278</ele>
        <time>2021-07-29T09:49:05Z</time>
      </trkpt>
      <trkpt lat="43.55773" lon="1.1031">
        <ele>278</ele>
        <time>2021-07-29T09:49:12Z</time>
      </trkpt>
      <trkpt lat="43.55772" lon="1.10299">
        <ele>279</ele>
        <time>2021-07-29T09:49:18Z</time>
      </trkpt>
      <trkpt lat="43.55771" lon="1.10289">
        <ele>279</ele>
        <time>2021-07-29T09:49:24Z</time>
      </trkpt>
      <trkpt lat="43.55769" lon="1.10278">
        <ele>279</ele>
        <time>2021-07-29T09:49:31Z</time>
      </trkpt>
      <trkpt lat="43.55767" lon="1.10267">
        <ele>281</ele>
        <time>2021-07-29T09:49:43Z</time>
      </trkpt>
      <trkpt lat="43.55764" lon="1.10256">
        <ele>281</ele>
        <time>2021-07-29T09:51:09Z</time>
      </trkpt>
      <trkpt lat="43.55763" lon="1.10244">
        <ele>281</ele>
        <time>2021-07-29T09:51:19Z</time>
      </trkpt>
      <trkpt lat="43.55762" lon="1.10233">
        <ele>280</ele>
        <time>2021-07-29T09:51:45Z</time>
      </trkpt>
      <trkpt lat="43.55761" lon="1.10222">
        <ele>280</ele>
        <time>2021-07-29T09:51:52Z</time>
      </trkpt>
      <trkpt lat="43.55762" lon="1.1021">
        <ele>281</ele>
        <time>2021-07-29T09:52:01Z</time>
      </trkpt>
      <trkpt lat="43.55764" lon="1.10198">
        <ele>281</ele>
        <time>2021-07-29T09:52:08Z</time>
      </trkpt>
      <trkpt lat="43.55765" lon="1.10188">
        <ele>283</ele>
        <time>2021-07-29T09:52:14Z</time>
      </trkpt>
      <trkpt lat="43.55767" lon="1.10176">
        <ele>283</ele>
        <time>2021-07-29T09:52:21Z</time>
      </trkpt>
      <trkpt lat="43.55768" lon="1.10164">
        <ele>283</ele>
        <time>2021-07-29T09:52:28Z</time>
      </trkpt>
      <trkpt lat="43.55769" lon="1.10153">
        <ele>282</ele>
        <time>2021-07-29T09:52:33Z</time>
      </trkpt>
      <trkpt lat="43.55767" lon="1.10142">
        <ele>281</ele>
        <time>2021-07-29T09:52:39Z</time>
      </trkpt>
      <trkpt lat="43.55766" lon="1.10129">
        <ele>283</ele>
        <time>2021-07-29T09:52:47Z</time>
      </trkpt>
      <trkpt lat="43.55766" lon="1.10118">
        <ele>285</ele>
        <time>2021-07-29T09:52:54Z</time>
      </trkpt>
      <trkpt lat="43.55766" lon="1.10107">
        <ele>285</ele>
        <time>2021-07-29T09:53:02Z</time>
      </trkpt>
      <trkpt lat="43.55768" lon="1.10097">
        <ele>285</ele>
        <time>2021-07-29T09:53:08Z</time>
      </trkpt>
      <trkpt lat="43.5577" lon="1.10086">
        <ele>285</ele>
        <time>2021-07-29T09:53:14Z</time>
      </trkpt>
      <trkpt lat="43.55773" lon="1.10075">
        <ele>285</ele>
        <time>2021-07-29T09:53:20Z</time>
      </trkpt>
      <trkpt lat="43.55772" lon="1.10063">
        <ele>285</ele>
        <time>2021-07-29T09:53:26Z</time>
      </trkpt>
      <trkpt lat="43.55774" lon="1.10052">
        <ele>284</ele>
        <time>2021-07-29T09:53:35Z</time>
      </trkpt>
      <trkpt lat="43.55775" lon="1.10041">
        <ele>282</ele>
        <time>2021-07-29T09:53:42Z</time>
      </trkpt>
      <trkpt lat="43.55778" lon="1.10031">
        <ele>281</ele>
        <time>2021-07-29T09:53:50Z</time>
      </trkpt>
      <trkpt lat="43.5578" lon="1.1002">
        <ele>281</ele>
        <time>2021-07-29T09:53:56Z</time>
      </trkpt>
      <trkpt lat="43.55782" lon="1.10008">
        <ele>282</ele>
        <time>2021-07-29T09:54:02Z</time>
      </trkpt>
      <trkpt lat="43.55782" lon="1.09997">
        <ele>282</ele>
        <time>2021-07-29T09:54:08Z</time>
      </trkpt>
      <trkpt lat="43.55786" lon="1.09987">
        <ele>282</ele>
        <time>2021-07-29T09:54:15Z</time>
      </trkpt>
      <trkpt lat="43.55787" lon="1.09974">
        <ele>282</ele>
        <time>2021-07-29T09:54:22Z</time>
      </trkpt>
      <trkpt lat="43.55789" lon="1.09963">
        <ele>282</ele>
        <time>2021-07-29T09:54:29Z</time>
      </trkpt>
      <trkpt lat="43.55791" lon="1.09952">
        <ele>280</ele>
        <time>2021-07-29T09:54:42Z</time>
      </trkpt>
      <trkpt lat="43.55795" lon="1.0994">
        <ele>280</ele>
        <time>2021-07-29T09:54:49Z</time>
      </trkpt>
      <trkpt lat="43.55798" lon="1.0993">
        <ele>279</ele>
        <time>2021-07-29T09:54:55Z</time>
      </trkpt>
      <trkpt lat="43.558" lon="1.09919">
        <ele>279</ele>
        <time>2021-07-29T09:55:01Z</time>
      </trkpt>
      <trkpt lat="43.55803" lon="1.09909">
        <ele>279</ele>
        <time>2021-07-29T09:55:07Z</time>
      </trkpt>
      <trkpt lat="43.55805" lon="1.09897">
        <ele>280</ele>
        <time>2021-07-29T09:55:13Z</time>
      </trkpt>
      <trkpt lat="43.55807" lon="1.09887">
        <ele>280</ele>
        <time>2021-07-29T09:55:19Z</time>
      </trkpt>
      <trkpt lat="43.55808" lon="1.09875">
        <ele>280</ele>
        <time>2021-07-29T09:55:26Z</time>
      </trkpt>
      <trkpt lat="43.55809" lon="1.09864">
        <ele>280</ele>
        <time>2021-07-29T09:55:33Z</time>
      </trkpt>
      <trkpt lat="43.55811" lon="1.09853">
        <ele>279</ele>
        <time>2021-07-29T09:55:40Z</time>
      </trkpt>
      <trkpt lat="43.55813" lon="1.09842">
        <ele>280</ele>
        <time>2021-07-29T09:55:47Z</time>
      </trkpt>
      <trkpt lat="43.55816" lon="1.09832">
        <ele>281</ele>
        <time>2021-07-29T09:55:54Z</time>
      </trkpt>
      <trkpt lat="43.55818" lon="1.09821">
        <ele>282</ele>
        <time>2021-07-29T09:56:01Z</time>
      </trkpt>
      <trkpt lat="43.55819" lon="1.09809">
        <ele>282</ele>
        <time>2021-07-29T09:56:08Z</time>
      </trkpt>
      <trkpt lat="43.55822" lon="1.09797">
        <ele>281</ele>
        <time>2021-07-29T09:56:14Z</time>
      </trkpt>
      <trkpt lat="43.55824" lon="1.09786">
        <ele>280</ele>
        <time>2021-07-29T09:56:21Z</time>
      </trkpt>
      <trkpt lat="43.55827" lon="1.09776">
        <ele>279</ele>
        <time>2021-07-29T09:56:27Z</time>
      </trkpt>
      <trkpt lat="43.55829" lon="1.09764">
        <ele>277</ele>
        <time>2021-07-29T09:56:34Z</time>
      </trkpt>
      <trkpt lat="43.55831" lon="1.09754">
        <ele>277</ele>
        <time>2021-07-29T09:56:40Z</time>
      </trkpt>
      <trkpt lat="43.55833" lon="1.09742">
        <ele>277</ele>
        <time>2021-07-29T09:56:47Z</time>
      </trkpt>
      <trkpt lat="43.55835" lon="1.09731">
        <ele>279</ele>
        <time>2021-07-29T09:56:54Z</time>
      </trkpt>
      <trkpt lat="43.55838" lon="1.0972">
        <ele>278</ele>
        <time>2021-07-29T09:57:01Z</time>
      </trkpt>
      <trkpt lat="43.55842" lon="1.09709">
        <ele>276</ele>
        <time>2021-07-29T09:57:09Z</time>
      </trkpt>
      <trkpt lat="43.55845" lon="1.09698">
        <ele>277</ele>
        <time>2021-07-29T09:57:16Z</time>
      </trkpt>
      <trkpt lat="43.55847" lon="1.09688">
        <ele>276</ele>
        <time>2021-07-29T09:57:24Z</time>
      </trkpt>
      <trkpt lat="43.55849" lon="1.09677">
        <ele>276</ele>
        <time>2021-07-29T09:57:31Z</time>
      </trkpt>
      <trkpt lat="43.55853" lon="1.09666">
        <ele>276</ele>
        <time>2021-07-29T09:57:38Z</time>
      </trkpt>
      <trkpt lat="43.55855" lon="1.09655">
        <ele>276</ele>
        <time>2021-07-29T09:57:46Z</time>
      </trkpt>
      <trkpt lat="43.55858" lon="1.09643">
        <ele>275</ele>
        <time>2021-07-29T09:57:53Z</time>
      </trkpt>
      <trkpt lat="43.55861" lon="1.09633">
        <ele>275</ele>
        <time>2021-07-29T09:57:59Z</time>
      </trkpt>
      <trkpt lat="43.55863" lon="1.09623">
        <ele>274</ele>
        <time>2021-07-29T09:58:05Z</time>
      </trkpt>
      <trkpt lat="43.55865" lon="1.09612">
        <ele>274</ele>
        <time>2021-07-29T09:58:11Z</time>
      </trkpt>
      <trkpt lat="43.55867" lon="1.096">
        <ele>276</ele>
        <time>2021-07-29T09:58:18Z</time>
      </trkpt>
      <trkpt lat="43.55871" lon="1.09589">
        <ele>274</ele>
        <time>2021-07-29T09:58:25Z</time>
      </trkpt>
      <trkpt lat="43.55873" lon="1.09577">
        <ele>275</ele>
        <time>2021-07-29T09:58:33Z</time>
      </trkpt>
      <trkpt lat="43.55875" lon="1.09567">
        <ele>276</ele>
        <time>2021-07-29T09:58:39Z</time>
      </trkpt>
      <trkpt lat="43.55878" lon="1.09558">
        <ele>274</ele>
        <time>2021-07-29T09:58:44Z</time>
      </trkpt>
      <trkpt lat="43.55882" lon="1.09548">
        <ele>274</ele>
        <time>2021-07-29T09:58:50Z</time>
      </trkpt>
      <trkpt lat="43.55884" lon="1.09538">
        <ele>272</ele>
        <time>2021-07-29T09:58:56Z</time>
      </trkpt>
      <trkpt lat="43.55888" lon="1.09527">
        <ele>273</ele>
        <time>2021-07-29T09:59:03Z</time>
      </trkpt>
      <trkpt lat="43.55891" lon="1.09517">
        <ele>272</ele>
        <time>2021-07-29T09:59:09Z</time>
      </trkpt>
      <trkpt lat="43.55896" lon="1.09506">
        <ele>272</ele>
        <time>2021-07-29T09:59:16Z</time>
      </trkpt>
      <trkpt lat="43.559" lon="1.09496">
        <ele>272</ele>
        <time>2021-07-29T09:59:22Z</time>
      </trkpt>
      <trkpt lat="43.55902" lon="1.09484">
        <ele>270</ele>
        <time>2021-07-29T09:59:30Z</time>
      </trkpt>
      <trkpt lat="43.55904" lon="1.09473">
        <ele>270</ele>
        <time>2021-07-29T09:59:37Z</time>
      </trkpt>
      <trkpt lat="43.55907" lon="1.09463">
        <ele>270</ele>
        <time>2021-07-29T09:59:42Z</time>
      </trkpt>
      <trkpt lat="43.55908" lon="1.09452">
        <ele>271</ele>
        <time>2021-07-29T09:59:48Z</time>
      </trkpt>
      <trkpt lat="43.55911" lon="1.09441">
        <ele>275</ele>
        <time>2021-07-29T09:59:55Z</time>
      </trkpt>
      <trkpt lat="43.55912" lon="1.09429">
        <ele>279</ele>
        <time>2021-07-29T10:00:01Z</time>
      </trkpt>
      <trkpt lat="43.55914" lon="1.09417">
        <ele>280</ele>
        <time>2021-07-29T10:00:08Z</time>
      </trkpt>
      <trkpt lat="43.55917" lon="1.09406">
        <ele>280</ele>
        <time>2021-07-29T10:00:15Z</time>
      </trkpt>
      <trkpt lat="43.55919" lon="1.09394">
        <ele>279</ele>
        <time>2021-07-29T10:00:22Z</time>
      </trkpt>
      <trkpt lat="43.55922" lon="1.09383">
        <ele>280</ele>
        <time>2021-07-29T10:00:28Z</time>
      </trkpt>
      <trkpt lat="43.55925" lon="1.09373">
        <ele>278</ele>
        <time>2021-07-29T10:00:34Z</time>
      </trkpt>
      <trkpt lat="43.55927" lon="1.09362">
        <ele>278</ele>
        <time>2021-07-29T10:00:40Z</time>
      </trkpt>
      <trkpt lat="43.5593" lon="1.09352">
        <ele>278</ele>
        <time>2021-07-29T10:00:46Z</time>
      </trkpt>
      <trkpt lat="43.55934" lon="1.09341">
        <ele>278</ele>
        <time>2021-07-29T10:00:54Z</time>
      </trkpt>
      <trkpt lat="43.55937" lon="1.09331">
        <ele>279</ele>
        <time>2021-07-29T10:01:00Z</time>
      </trkpt>
      <trkpt lat="43.5594" lon="1.09319">
        <ele>279</ele>
        <time>2021-07-29T10:01:06Z</time>
      </trkpt>
      <trkpt lat="43.55942" lon="1.09308">
        <ele>279</ele>
        <time>2021-07-29T10:01:13Z</time>
      </trkpt>
      <trkpt lat="43.55943" lon="1.09297">
        <ele>280</ele>
        <time>2021-07-29T10:01:20Z</time>
      </trkpt>
      <trkpt lat="43.55944" lon="1.09287">
        <ele>280</ele>
        <time>2021-07-29T10:01:26Z</time>
      </trkpt>
      <trkpt lat="43.55945" lon="1.09276">
        <ele>280</ele>
        <time>2021-07-29T10:01:32Z</time>
      </trkpt>
      <trkpt lat="43.55945" lon="1.09264">
        <ele>280</ele>
        <time>2021-07-29T10:01:38Z</time>
      </trkpt>
      <trkpt lat="43.55946" lon="1.09253">
        <ele>279</ele>
        <time>2021-07-29T10:01:44Z</time>
      </trkpt>
      <trkpt lat="43.55945" lon="1.0924">
        <ele>279</ele>
        <time>2021-07-29T10:01:51Z</time>
      </trkpt>
      <trkpt lat="43.55945" lon="1.09229">
        <ele>280</ele>
        <time>2021-07-29T10:01:57Z</time>
      </trkpt>
      <trkpt lat="43.55947" lon="1.09218">
        <ele>280</ele>
        <time>2021-07-29T10:02:03Z</time>
      </trkpt>
      <trkpt lat="43.55948" lon="1.09206">
        <ele>279</ele>
        <time>2021-07-29T10:02:10Z</time>
      </trkpt>
      <trkpt lat="43.5595" lon="1.09195">
        <ele>279</ele>
        <time>2021-07-29T10:02:17Z</time>
      </trkpt>
      <trkpt lat="43.55953" lon="1.09184">
        <ele>278</ele>
        <time>2021-07-29T10:02:24Z</time>
      </trkpt>
      <trkpt lat="43.55955" lon="1.09173">
        <ele>277</ele>
        <time>2021-07-29T10:02:31Z</time>
      </trkpt>
      <trkpt lat="43.55958" lon="1.09163">
        <ele>276</ele>
        <time>2021-07-29T10:02:38Z</time>
      </trkpt>
      <trkpt lat="43.55961" lon="1.09152">
        <ele>275</ele>
        <time>2021-07-29T10:02:45Z</time>
      </trkpt>
      <trkpt lat="43.55964" lon="1.09143">
        <ele>271</ele>
        <time>2021-07-29T10:02:52Z</time>
      </trkpt>
      <trkpt lat="43.55969" lon="1.09133">
        <ele>270</ele>
        <time>2021-07-29T10:02:59Z</time>
      </trkpt>
      <trkpt lat="43.55973" lon="1.09124">
        <ele>271</ele>
        <time>2021-07-29T10:03:06Z</time>
      </trkpt>
      <trkpt lat="43.5598" lon="1.09116">
        <ele>270</ele>
        <time>2021-07-29T10:03:13Z</time>
      </trkpt>
      <trkpt lat="43.55987" lon="1.09109">
        <ele>270</ele>
        <time>2021-07-29T10:03:19Z</time>
      </trkpt>
      <trkpt lat="43.55994" lon="1.09103">
        <ele>270</ele>
        <time>2021-07-29T10:03:26Z</time>
      </trkpt>
      <trkpt lat="43.55986" lon="1.09107">
        <ele>267</ele>
        <time>2021-07-29T10:03:42Z</time>
      </trkpt>
      <trkpt lat="43.55979" lon="1.0911">
        <ele>268</ele>
        <time>2021-07-29T10:03:49Z</time>
      </trkpt>
      <trkpt lat="43.55971" lon="1.09113">
        <ele>267</ele>
        <time>2021-07-29T10:03:56Z</time>
      </trkpt>
      <trkpt lat="43.55963" lon="1.09116">
        <ele>267</ele>
        <time>2021-07-29T10:04:02Z</time>
      </trkpt>
      <trkpt lat="43.55954" lon="1.09116">
        <ele>267</ele>
        <time>2021-07-29T10:04:10Z</time>
      </trkpt>
      <trkpt lat="43.55946" lon="1.09115">
        <ele>267</ele>
        <time>2021-07-29T10:04:17Z</time>
      </trkpt>
      <trkpt lat="43.55938" lon="1.09114">
        <ele>265</ele>
        <time>2021-07-29T10:04:23Z</time>
      </trkpt>
      <trkpt lat="43.5593" lon="1.09111">
        <ele>265</ele>
        <time>2021-07-29T10:04:29Z</time>
      </trkpt>
      <trkpt lat="43.55922" lon="1.09109">
        <ele>265</ele>
        <time>2021-07-29T10:04:35Z</time>
      </trkpt>
      <trkpt lat="43.55915" lon="1.09105">
        <ele>265</ele>
        <time>2021-07-29T10:04:41Z</time>
      </trkpt>
      <trkpt lat="43.55907" lon="1.09104">
        <ele>266</ele>
        <time>2021-07-29T10:04:46Z</time>
      </trkpt>
      <trkpt lat="43.559" lon="1.09101">
        <ele>266</ele>
        <time>2021-07-29T10:04:51Z</time>
      </trkpt>
      <trkpt lat="43.55892" lon="1.09098">
        <ele>266</ele>
        <time>2021-07-29T10:04:57Z</time>
      </trkpt>
      <trkpt lat="43.55884" lon="1.09093">
        <ele>268</ele>
        <time>2021-07-29T10:05:03Z</time>
      </trkpt>
      <trkpt lat="43.55876" lon="1.09089">
        <ele>269</ele>
        <time>2021-07-29T10:05:10Z</time>
      </trkpt>
      <trkpt lat="43.55869" lon="1.09085">
        <ele>269</ele>
        <time>2021-07-29T10:05:17Z</time>
      </trkpt>
      <trkpt lat="43.55861" lon="1.09081">
        <ele>269</ele>
        <time>2021-07-29T10:05:24Z</time>
      </trkpt>
      <trkpt lat="43.55854" lon="1.09075">
        <ele>269</ele>
        <time>2021-07-29T10:05:30Z</time>
      </trkpt>
      <trkpt lat="43.55847" lon="1.0907">
        <ele>268</ele>
        <time>2021-07-29T10:05:36Z</time>
      </trkpt>
      <trkpt lat="43.55839" lon="1.09064">
        <ele>266</ele>
        <time>2021-07-29T10:05:43Z</time>
      </trkpt>
      <trkpt lat="43.55832" lon="1.09059">
        <ele>266</ele>
        <time>2021-07-29T10:05:49Z</time>
      </trkpt>
      <trkpt lat="43.55824" lon="1.09053">
        <ele>265</ele>
        <time>2021-07-29T10:05:55Z</time>
      </trkpt>
      <trkpt lat="43.55817" lon="1.09049">
        <ele>264</ele>
        <time>2021-07-29T10:06:01Z</time>
      </trkpt>
      <trkpt lat="43.5581" lon="1.09046">
        <ele>263</ele>
        <time>2021-07-29T10:06:07Z</time>
      </trkpt>
      <trkpt lat="43.55801" lon="1.09043">
        <ele>262</ele>
        <time>2021-07-29T10:06:13Z</time>
      </trkpt>
      <trkpt lat="43.55793" lon="1.09044">
        <ele>262</ele>
        <time>2021-07-29T10:06:19Z</time>
      </trkpt>
      <trkpt lat="43.55785" lon="1.09044">
        <ele>260</ele>
        <time>2021-07-29T10:06:26Z</time>
      </trkpt>
      <trkpt lat="43.55777" lon="1.09046">
        <ele>261</ele>
        <time>2021-07-29T10:06:32Z</time>
      </trkpt>
      <trkpt lat="43.55769" lon="1.0905">
        <ele>259</ele>
        <time>2021-07-29T10:06:38Z</time>
      </trkpt>
      <trkpt lat="43.55761" lon="1.09053">
        <ele>260</ele>
        <time>2021-07-29T10:06:45Z</time>
      </trkpt>
      <trkpt lat="43.55753" lon="1.09057">
        <ele>260</ele>
        <time>2021-07-29T10:06:51Z</time>
      </trkpt>
      <trkpt lat="43.55746" lon="1.0906">
        <ele>259</ele>
        <time>2021-07-29T10:06:57Z</time>
      </trkpt>
      <trkpt lat="43.55739" lon="1.09064">
        <ele>258</ele>
        <time>2021-07-29T10:07:03Z</time>
      </trkpt>
      <trkpt lat="43.55731" lon="1.09068">
        <ele>258</ele>
        <time>2021-07-29T10:07:10Z</time>
      </trkpt>
      <trkpt lat="43.55723" lon="1.09074">
        <ele>257</ele>
        <time>2021-07-29T10:07:17Z</time>
      </trkpt>
      <trkpt lat="43.55717" lon="1.0908">
        <ele>258</ele>
        <time>2021-07-29T10:07:22Z</time>
      </trkpt>
      <trkpt lat="43.55709" lon="1.09084">
        <ele>258</ele>
        <time>2021-07-29T10:07:28Z</time>
      </trkpt>
      <trkpt lat="43.55701" lon="1.09087">
        <ele>258</ele>
        <time>2021-07-29T10:07:34Z</time>
      </trkpt>
      <trkpt lat="43.55694" lon="1.09091">
        <ele>258</ele>
        <time>2021-07-29T10:07:40Z</time>
      </trkpt>
      <trkpt lat="43.55686" lon="1.09094">
        <ele>258</ele>
        <time>2021-07-29T10:07:47Z</time>
      </trkpt>
      <trkpt lat="43.55678" lon="1.09099">
        <ele>257</ele>
        <time>2021-07-29T10:07:53Z</time>
      </trkpt>
      <trkpt lat="43.5567" lon="1.09103">
        <ele>257</ele>
        <time>2021-07-29T10:07:59Z</time>
      </trkpt>
      <trkpt lat="43.55662" lon="1.09106">
        <ele>257</ele>
        <time>2021-07-29T10:08:05Z</time>
      </trkpt>
      <trkpt lat="43.55654" lon="1.09112">
        <ele>257</ele>
        <time>2021-07-29T10:08:12Z</time>
      </trkpt>
      <trkpt lat="43.55647" lon="1.09115">
        <ele>256</ele>
        <time>2021-07-29T10:08:18Z</time>
      </trkpt>
      <trkpt lat="43.5564" lon="1.09119">
        <ele>256</ele>
        <time>2021-07-29T10:08:23Z</time>
      </trkpt>
      <trkpt lat="43.55632" lon="1.09121">
        <ele>256</ele>
        <time>2021-07-29T10:08:30Z</time>
      </trkpt>
      <trkpt lat="43.55623" lon="1.09126">
        <ele>256</ele>
        <time>2021-07-29T10:08:37Z</time>
      </trkpt>
      <trkpt lat="43.55616" lon="1.09131">
        <ele>256</ele>
        <time>2021-07-29T10:08:43Z</time>
      </trkpt>
      <trkpt lat="43.55608" lon="1.09135">
        <ele>255</ele>
        <time>2021-07-29T10:08:49Z</time>
      </trkpt>
      <trkpt lat="43.55599" lon="1.09138">
        <ele>255</ele>
        <time>2021-07-29T10:08:55Z</time>
      </trkpt>
      <trkpt lat="43.55592" lon="1.09143">
        <ele>255</ele>
        <time>2021-07-29T10:09:02Z</time>
      </trkpt>
      <trkpt lat="43.55584" lon="1.09146">
        <ele>256</ele>
        <time>2021-07-29T10:09:08Z</time>
      </trkpt>
      <trkpt lat="43.55576" lon="1.09151">
        <ele>255</ele>
        <time>2021-07-29T10:09:14Z</time>
      </trkpt>
      <trkpt lat="43.55568" lon="1.09156">
        <ele>255</ele>
        <time>2021-07-29T10:09:21Z</time>
      </trkpt>
      <trkpt lat="43.5556" lon="1.0916">
        <ele>255</ele>
        <time>2021-07-29T10:09:28Z</time>
      </trkpt>
      <trkpt lat="43.55551" lon="1.09163">
        <ele>255</ele>
        <time>2021-07-29T10:09:34Z</time>
      </trkpt>
      <trkpt lat="43.55544" lon="1.09166">
        <ele>255</ele>
        <time>2021-07-29T10:09:40Z</time>
      </trkpt>
      <trkpt lat="43.55536" lon="1.0917">
        <ele>254</ele>
        <time>2021-07-29T10:09:48Z</time>
      </trkpt>
      <trkpt lat="43.55528" lon="1.09174">
        <ele>254</ele>
        <time>2021-07-29T10:09:54Z</time>
      </trkpt>
      <trkpt lat="43.5552" lon="1.09178">
        <ele>252</ele>
        <time>2021-07-29T10:10:00Z</time>
      </trkpt>
      <trkpt lat="43.55512" lon="1.09182">
        <ele>252</ele>
        <time>2021-07-29T10:10:06Z</time>
      </trkpt>
      <trkpt lat="43.55504" lon="1.09187">
        <ele>252</ele>
        <time>2021-07-29T10:10:12Z</time>
      </trkpt>
      <trkpt lat="43.55497" lon="1.09191">
        <ele>253</ele>
        <time>2021-07-29T10:10:21Z</time>
      </trkpt>
      <trkpt lat="43.55489" lon="1.09195">
        <ele>253</ele>
        <time>2021-07-29T10:10:27Z</time>
      </trkpt>
      <trkpt lat="43.55481" lon="1.09198">
        <ele>254</ele>
        <time>2021-07-29T10:10:34Z</time>
      </trkpt>
      <trkpt lat="43.55473" lon="1.092">
        <ele>253</ele>
        <time>2021-07-29T10:10:41Z</time>
      </trkpt>
      <trkpt lat="43.55465" lon="1.09205">
        <ele>254</ele>
        <time>2021-07-29T10:10:47Z</time>
      </trkpt>
      <trkpt lat="43.55458" lon="1.0921">
        <ele>254</ele>
        <time>2021-07-29T10:10:53Z</time>
      </trkpt>
      <trkpt lat="43.55449" lon="1.09215">
        <ele>254</ele>
        <time>2021-07-29T10:10:59Z</time>
      </trkpt>
      <trkpt lat="43.55442" lon="1.09218">
        <ele>253</ele>
        <time>2021-07-29T10:11:05Z</time>
      </trkpt>
      <trkpt lat="43.55435" lon="1.09223">
        <ele>253</ele>
        <time>2021-07-29T10:11:11Z</time>
      </trkpt>
      <trkpt lat="43.55427" lon="1.09227">
        <ele>253</ele>
        <time>2021-07-29T10:11:17Z</time>
      </trkpt>
      <trkpt lat="43.55419" lon="1.09232">
        <ele>254</ele>
        <time>2021-07-29T10:11:24Z</time>
      </trkpt>
      <trkpt lat="43.55412" lon="1.09237">
        <ele>254</ele>
        <time>2021-07-29T10:11:31Z</time>
      </trkpt>
      <trkpt lat="43.55405" lon="1.09243">
        <ele>253</ele>
        <time>2021-07-29T10:11:37Z</time>
      </trkpt>
      <trkpt lat="43.55398" lon="1.09248">
        <ele>252</ele>
        <time>2021-07-29T10:11:44Z</time>
      </trkpt>
      <trkpt lat="43.5539" lon="1.09254">
        <ele>252</ele>
        <time>2021-07-29T10:11:50Z</time>
      </trkpt>
      <trkpt lat="43.55382" lon="1.09258">
        <ele>251</ele>
        <time>2021-07-29T10:11:57Z</time>
      </trkpt>
      <trkpt lat="43.55375" lon="1.09263">
        <ele>251</ele>
        <time>2021-07-29T10:12:03Z</time>
      </trkpt>
      <trkpt lat="43.55368" lon="1.09268">
        <ele>251</ele>
        <time>2021-07-29T10:12:09Z</time>
      </trkpt>
      <trkpt lat="43.5536" lon="1.09274">
        <ele>250</ele>
        <time>2021-07-29T10:12:16Z</time>
      </trkpt>
      <trkpt lat="43.55353" lon="1.09279">
        <ele>251</ele>
        <time>2021-07-29T10:12:22Z</time>
      </trkpt>
      <trkpt lat="43.55346" lon="1.09285">
        <ele>252</ele>
        <time>2021-07-29T10:12:28Z</time>
      </trkpt>
      <trkpt lat="43.55339" lon="1.0929">
        <ele>252</ele>
        <time>2021-07-29T10:12:33Z</time>
      </trkpt>
      <trkpt lat="43.55331" lon="1.09295">
        <ele>251</ele>
        <time>2021-07-29T10:12:39Z</time>
      </trkpt>
      <trkpt lat="43.55323" lon="1.09299">
        <ele>251</ele>
        <time>2021-07-29T10:12:45Z</time>
      </trkpt>
      <trkpt lat="43.55316" lon="1.09305">
        <ele>251</ele>
        <time>2021-07-29T10:12:51Z</time>
      </trkpt>
      <trkpt lat="43.55309" lon="1.09311">
        <ele>250</ele>
        <time>2021-07-29T10:12:57Z</time>
      </trkpt>
      <trkpt lat="43.55301" lon="1.09317">
        <ele>249</ele>
        <time>2021-07-29T10:13:03Z</time>
      </trkpt>
      <trkpt lat="43.55294" lon="1.09321">
        <ele>249</ele>
        <time>2021-07-29T10:13:09Z</time>
      </trkpt>
      <trkpt lat="43.55287" lon="1.09327">
        <ele>248</ele>
        <time>2021-07-29T10:13:15Z</time>
      </trkpt>
      <trkpt lat="43.5528" lon="1.09332">
        <ele>248</ele>
        <time>2021-07-29T10:13:21Z</time>
      </trkpt>
      <trkpt lat="43.55273" lon="1.09337">
        <ele>248</ele>
        <time>2021-07-29T10:13:26Z</time>
      </trkpt>
      <trkpt lat="43.55266" lon="1.09342">
        <ele>248</ele>
        <time>2021-07-29T10:13:32Z</time>
      </trkpt>
      <trkpt lat="43.55259" lon="1.09348">
        <ele>249</ele>
        <time>2021-07-29T10:13:38Z</time>
      </trkpt>
      <trkpt lat="43.55252" lon="1.09354">
        <ele>249</ele>
        <time>2021-07-29T10:13:44Z</time>
      </trkpt>
      <trkpt lat="43.55244" lon="1.0936">
        <ele>249</ele>
        <time>2021-07-29T10:13:50Z</time>
      </trkpt>
      <trkpt lat="43.55237" lon="1.09365">
        <ele>249</ele>
        <time>2021-07-29T10:13:57Z</time>
      </trkpt>
      <trkpt lat="43.5523" lon="1.09369">
        <ele>248</ele>
        <time>2021-07-29T10:14:02Z</time>
      </trkpt>
      <trkpt lat="43.55222" lon="1.09373">
        <ele>250</ele>
        <time>2021-07-29T10:14:09Z</time>
      </trkpt>
      <trkpt lat="43.55215" lon="1.09379">
        <ele>250</ele>
        <time>2021-07-29T10:14:15Z</time>
      </trkpt>
      <trkpt lat="43.55207" lon="1.09385">
        <ele>250</ele>
        <time>2021-07-29T10:14:22Z</time>
      </trkpt>
      <trkpt lat="43.552" lon="1.09391">
        <ele>252</ele>
        <time>2021-07-29T10:14:28Z</time>
      </trkpt>
      <trkpt lat="43.55193" lon="1.09397">
        <ele>253</ele>
        <time>2021-07-29T10:14:34Z</time>
      </trkpt>
      <trkpt lat="43.55186" lon="1.09403">
        <ele>254</ele>
        <time>2021-07-29T10:14:40Z</time>
      </trkpt>
      <trkpt lat="43.5518" lon="1.09409">
        <ele>255</ele>
        <time>2021-07-29T10:14:46Z</time>
      </trkpt>
      <trkpt lat="43.55173" lon="1.09415">
        <ele>254</ele>
        <time>2021-07-29T10:14:52Z</time>
      </trkpt>
      <trkpt lat="43.55166" lon="1.0942">
        <ele>253</ele>
        <time>2021-07-29T10:14:58Z</time>
      </trkpt>
      <trkpt lat="43.55159" lon="1.09427">
        <ele>254</ele>
        <time>2021-07-29T10:15:04Z</time>
      </trkpt>
      <trkpt lat="43.55153" lon="1.09432">
        <ele>254</ele>
        <time>2021-07-29T10:15:10Z</time>
      </trkpt>
      <trkpt lat="43.55146" lon="1.09439">
        <ele>253</ele>
        <time>2021-07-29T10:15:15Z</time>
      </trkpt>
      <trkpt lat="43.55139" lon="1.09446">
        <ele>254</ele>
        <time>2021-07-29T10:15:21Z</time>
      </trkpt>
      <trkpt lat="43.55133" lon="1.09452">
        <ele>255</ele>
        <time>2021-07-29T10:15:26Z</time>
      </trkpt>
      <trkpt lat="43.55126" lon="1.09457">
        <ele>254</ele>
        <time>2021-07-29T10:15:32Z</time>
      </trkpt>
      <trkpt lat="43.55119" lon="1.09463">
        <ele>253</ele>
        <time>2021-07-29T10:15:39Z</time>
      </trkpt>
      <trkpt lat="43.55112" lon="1.09469">
        <ele>252</ele>
        <time>2021-07-29T10:15:46Z</time>
      </trkpt>
      <trkpt lat="43.55105" lon="1.09475">
        <ele>251</ele>
        <time>2021-07-29T10:15:52Z</time>
      </trkpt>
      <trkpt lat="43.55098" lon="1.09482">
        <ele>252</ele>
        <time>2021-07-29T10:15:58Z</time>
      </trkpt>
      <trkpt lat="43.5509" lon="1.09488">
        <ele>252</ele>
        <time>2021-07-29T10:16:04Z</time>
      </trkpt>
      <trkpt lat="43.55084" lon="1.09494">
        <ele>251</ele>
        <time>2021-07-29T10:16:10Z</time>
      </trkpt>
      <trkpt lat="43.55076" lon="1.09501">
        <ele>251</ele>
        <time>2021-07-29T10:16:16Z</time>
      </trkpt>
      <trkpt lat="43.55069" lon="1.09507">
        <ele>250</ele>
        <time>2021-07-29T10:16:23Z</time>
      </trkpt>
      <trkpt lat="43.55062" lon="1.09513">
        <ele>250</ele>
        <time>2021-07-29T10:16:29Z</time>
      </trkpt>
      <trkpt lat="43.55055" lon="1.0952">
        <ele>249</ele>
        <time>2021-07-29T10:16:35Z</time>
      </trkpt>
      <trkpt lat="43.55048" lon="1.09526">
        <ele>249</ele>
        <time>2021-07-29T10:16:41Z</time>
      </trkpt>
      <trkpt lat="43.55041" lon="1.09533">
        <ele>250</ele>
        <time>2021-07-29T10:16:47Z</time>
      </trkpt>
      <trkpt lat="43.55034" lon="1.0954">
        <ele>250</ele>
        <time>2021-07-29T10:16:53Z</time>
      </trkpt>
      <trkpt lat="43.55027" lon="1.09546">
        <ele>250</ele>
        <time>2021-07-29T10:16:59Z</time>
      </trkpt>
      <trkpt lat="43.5502" lon="1.09552">
        <ele>249</ele>
        <time>2021-07-29T10:17:05Z</time>
      </trkpt>
      <trkpt lat="43.55013" lon="1.0956">
        <ele>249</ele>
        <time>2021-07-29T10:17:12Z</time>
      </trkpt>
      <trkpt lat="43.55006" lon="1.09566">
        <ele>249</ele>
        <time>2021-07-29T10:17:18Z</time>
      </trkpt>
      <trkpt lat="43.54998" lon="1.09572">
        <ele>249</ele>
        <time>2021-07-29T10:17:24Z</time>
      </trkpt>
      <trkpt lat="43.5499" lon="1.09577">
        <ele>250</ele>
        <time>2021-07-29T10:17:30Z</time>
      </trkpt>
      <trkpt lat="43.54982" lon="1.0958">
        <ele>249</ele>
        <time>2021-07-29T10:17:36Z</time>
      </trkpt>
      <trkpt lat="43.54973" lon="1.09583">
        <ele>249</ele>
        <time>2021-07-29T10:17:43Z</time>
      </trkpt>
      <trkpt lat="43.54966" lon="1.09585">
        <ele>248</ele>
        <time>2021-07-29T10:17:49Z</time>
      </trkpt>
      <trkpt lat="43.54958" lon="1.09587">
        <ele>249</ele>
        <time>2021-07-29T10:17:54Z</time>
      </trkpt>
      <trkpt lat="43.5495" lon="1.09588">
        <ele>251</ele>
        <time>2021-07-29T10:17:59Z</time>
      </trkpt>
      <trkpt lat="43.54942" lon="1.09589">
        <ele>251</ele>
        <time>2021-07-29T10:18:05Z</time>
      </trkpt>
      <trkpt lat="43.54934" lon="1.0959">
        <ele>252</ele>
        <time>2021-07-29T10:18:11Z</time>
      </trkpt>
      <trkpt lat="43.54926" lon="1.09592">
        <ele>252</ele>
        <time>2021-07-29T10:18:17Z</time>
      </trkpt>
      <trkpt lat="43.54918" lon="1.09593">
        <ele>252</ele>
        <time>2021-07-29T10:18:22Z</time>
      </trkpt>
      <trkpt lat="43.54909" lon="1.09594">
        <ele>252</ele>
        <time>2021-07-29T10:18:28Z</time>
      </trkpt>
      <trkpt lat="43.54901" lon="1.09595">
        <ele>253</ele>
        <time>2021-07-29T10:18:33Z</time>
      </trkpt>
      <trkpt lat="43.54893" lon="1.09597">
        <ele>252</ele>
        <time>2021-07-29T10:18:39Z</time>
      </trkpt>
      <trkpt lat="43.54885" lon="1.09598">
        <ele>252</ele>
        <time>2021-07-29T10:18:45Z</time>
      </trkpt>
      <trkpt lat="43.54877" lon="1.09599">
        <ele>253</ele>
        <time>2021-07-29T10:18:51Z</time>
      </trkpt>
      <trkpt lat="43.54869" lon="1.09601">
        <ele>254</ele>
        <time>2021-07-29T10:18:56Z</time>
      </trkpt>
      <trkpt lat="43.54861" lon="1.09602">
        <ele>254</ele>
        <time>2021-07-29T10:19:02Z</time>
      </trkpt>
      <trkpt lat="43.54852" lon="1.09603">
        <ele>254</ele>
        <time>2021-07-29T10:19:09Z</time>
      </trkpt>
      <trkpt lat="43.54844" lon="1.09606">
        <ele>254</ele>
        <time>2021-07-29T10:19:15Z</time>
      </trkpt>
      <trkpt lat="43.54836" lon="1.09608">
        <ele>255</ele>
        <time>2021-07-29T10:19:21Z</time>
      </trkpt>
      <trkpt lat="43.54828" lon="1.0961">
        <ele>255</ele>
        <time>2021-07-29T10:19:27Z</time>
      </trkpt>
      <trkpt lat="43.5482" lon="1.09612">
        <ele>255</ele>
        <time>2021-07-29T10:19:34Z</time>
      </trkpt>
      <trkpt lat="43.54812" lon="1.09617">
        <ele>256</ele>
        <time>2021-07-29T10:19:40Z</time>
      </trkpt>
      <trkpt lat="43.54805" lon="1.09622">
        <ele>256</ele>
        <time>2021-07-29T10:19:46Z</time>
      </trkpt>
      <trkpt lat="43.54797" lon="1.09627">
        <ele>256</ele>
        <time>2021-07-29T10:19:52Z</time>
      </trkpt>
      <trkpt lat="43.54789" lon="1.09631">
        <ele>256</ele>
        <time>2021-07-29T10:19:58Z</time>
      </trkpt>
      <trkpt lat="43.54782" lon="1.09635">
        <ele>257</ele>
        <time>2021-07-29T10:20:04Z</time>
      </trkpt>
      <trkpt lat="43.54774" lon="1.09639">
        <ele>257</ele>
        <time>2021-07-29T10:20:10Z</time>
      </trkpt>
      <trkpt lat="43.54767" lon="1.09644">
        <ele>257</ele>
        <time>2021-07-29T10:20:16Z</time>
      </trkpt>
      <trkpt lat="43.5476" lon="1.09648">
        <ele>256</ele>
        <time>2021-07-29T10:20:22Z</time>
      </trkpt>
      <trkpt lat="43.54753" lon="1.09653">
        <ele>257</ele>
        <time>2021-07-29T10:20:28Z</time>
      </trkpt>
      <trkpt lat="43.54745" lon="1.09659">
        <ele>258</ele>
        <time>2021-07-29T10:20:34Z</time>
      </trkpt>
      <trkpt lat="43.54738" lon="1.09665">
        <ele>258</ele>
        <time>2021-07-29T10:20:40Z</time>
      </trkpt>
      <trkpt lat="43.5473" lon="1.0967">
        <ele>258</ele>
        <time>2021-07-29T10:20:46Z</time>
      </trkpt>
      <trkpt lat="43.54723" lon="1.09676">
        <ele>257</ele>
        <time>2021-07-29T10:20:53Z</time>
      </trkpt>
      <trkpt lat="43.54715" lon="1.09682">
        <ele>258</ele>
        <time>2021-07-29T10:20:59Z</time>
      </trkpt>
      <trkpt lat="43.54707" lon="1.09687">
        <ele>258</ele>
        <time>2021-07-29T10:21:06Z</time>
      </trkpt>
      <trkpt lat="43.547" lon="1.09693">
        <ele>259</ele>
        <time>2021-07-29T10:21:12Z</time>
      </trkpt>
      <trkpt lat="43.54692" lon="1.09697">
        <ele>259</ele>
        <time>2021-07-29T10:21:18Z</time>
      </trkpt>
      <trkpt lat="43.54684" lon="1.09702">
        <ele>259</ele>
        <time>2021-07-29T10:21:24Z</time>
      </trkpt>
      <trkpt lat="43.54677" lon="1.09707">
        <ele>259</ele>
        <time>2021-07-29T10:21:30Z</time>
      </trkpt>
      <trkpt lat="43.5467" lon="1.09712">
        <ele>258</ele>
        <time>2021-07-29T10:21:37Z</time>
      </trkpt>
      <trkpt lat="43.54662" lon="1.09717">
        <ele>259</ele>
        <time>2021-07-29T10:21:43Z</time>
      </trkpt>
      <trkpt lat="43.54655" lon="1.09723">
        <ele>259</ele>
        <time>2021-07-29T10:21:49Z</time>
      </trkpt>
      <trkpt lat="43.54647" lon="1.09728">
        <ele>259</ele>
        <time>2021-07-29T10:21:55Z</time>
      </trkpt>
      <trkpt lat="43.54639" lon="1.09732">
        <ele>260</ele>
        <time>2021-07-29T10:22:01Z</time>
      </trkpt>
      <trkpt lat="43.54631" lon="1.09733">
        <ele>260</ele>
        <time>2021-07-29T10:22:07Z</time>
      </trkpt>
      <trkpt lat="43.54623" lon="1.09737">
        <ele>260</ele>
        <time>2021-07-29T10:22:13Z</time>
      </trkpt>
      <trkpt lat="43.54614" lon="1.09739">
        <ele>261</ele>
        <time>2021-07-29T10:22:19Z</time>
      </trkpt>
      <trkpt lat="43.54606" lon="1.09741">
        <ele>261</ele>
        <time>2021-07-29T10:22:26Z</time>
      </trkpt>
      <trkpt lat="43.54598" lon="1.09741">
        <ele>262</ele>
        <time>2021-07-29T10:22:32Z</time>
      </trkpt>
      <trkpt lat="43.54589" lon="1.09743">
        <ele>261</ele>
        <time>2021-07-29T10:22:38Z</time>
      </trkpt>
      <trkpt lat="43.54581" lon="1.09744">
        <ele>261</ele>
        <time>2021-07-29T10:22:44Z</time>
      </trkpt>
      <trkpt lat="43.54573" lon="1.09743">
        <ele>260</ele>
        <time>2021-07-29T10:22:50Z</time>
      </trkpt>
      <trkpt lat="43.54565" lon="1.09744">
        <ele>261</ele>
        <time>2021-07-29T10:22:56Z</time>
      </trkpt>
      <trkpt lat="43.54556" lon="1.09744">
        <ele>261</ele>
        <time>2021-07-29T10:23:02Z</time>
      </trkpt>
      <trkpt lat="43.54549" lon="1.09743">
        <ele>261</ele>
        <time>2021-07-29T10:23:08Z</time>
      </trkpt>
      <trkpt lat="43.54541" lon="1.09742">
        <ele>260</ele>
        <time>2021-07-29T10:23:14Z</time>
      </trkpt>
      <trkpt lat="43.54532" lon="1.09742">
        <ele>259</ele>
        <time>2021-07-29T10:23:20Z</time>
      </trkpt>
      <trkpt lat="43.54523" lon="1.0974">
        <ele>259</ele>
        <time>2021-07-29T10:23:27Z</time>
      </trkpt>
      <trkpt lat="43.54515" lon="1.09737">
        <ele>258</ele>
        <time>2021-07-29T10:23:34Z</time>
      </trkpt>
      <trkpt lat="43.54506" lon="1.09736">
        <ele>257</ele>
        <time>2021-07-29T10:23:40Z</time>
      </trkpt>
      <trkpt lat="43.54498" lon="1.09737">
        <ele>257</ele>
        <time>2021-07-29T10:23:46Z</time>
      </trkpt>
      <trkpt lat="43.5449" lon="1.09735">
        <ele>256</ele>
        <time>2021-07-29T10:23:53Z</time>
      </trkpt>
      <trkpt lat="43.54482" lon="1.09734">
        <ele>257</ele>
        <time>2021-07-29T10:23:58Z</time>
      </trkpt>
      <trkpt lat="43.54473" lon="1.09734">
        <ele>256</ele>
        <time>2021-07-29T10:24:04Z</time>
      </trkpt>
      <trkpt lat="43.54464" lon="1.09733">
        <ele>257</ele>
        <time>2021-07-29T10:24:11Z</time>
      </trkpt>
      <trkpt lat="43.54456" lon="1.09733">
        <ele>257</ele>
        <time>2021-07-29T10:24:16Z</time>
      </trkpt>
      <trkpt lat="43.54448" lon="1.09733">
        <ele>257</ele>
        <time>2021-07-29T10:24:22Z</time>
      </trkpt>
      <trkpt lat="43.5444" lon="1.09732">
        <ele>256</ele>
        <time>2021-07-29T10:24:28Z</time>
      </trkpt>
      <trkpt lat="43.54431" lon="1.0973">
        <ele>256</ele>
        <time>2021-07-29T10:24:35Z</time>
      </trkpt>
      <trkpt lat="43.54423" lon="1.0973">
        <ele>255</ele>
        <time>2021-07-29T10:24:42Z</time>
      </trkpt>
      <trkpt lat="43.54415" lon="1.09728">
        <ele>256</ele>
        <time>2021-07-29T10:24:48Z</time>
      </trkpt>
      <trkpt lat="43.54407" lon="1.09727">
        <ele>256</ele>
        <time>2021-07-29T10:24:53Z</time>
      </trkpt>
      <trkpt lat="43.54398" lon="1.09727">
        <ele>256</ele>
        <time>2021-07-29T10:24:59Z</time>
      </trkpt>
      <trkpt lat="43.5439" lon="1.09727">
        <ele>255</ele>
        <time>2021-07-29T10:25:05Z</time>
      </trkpt>
      <trkpt lat="43.54382" lon="1.09725">
        <ele>255</ele>
        <time>2021-07-29T10:25:11Z</time>
      </trkpt>
      <trkpt lat="43.54374" lon="1.09725">
        <ele>255</ele>
        <time>2021-07-29T10:25:16Z</time>
      </trkpt>
      <trkpt lat="43.54366" lon="1.09725">
        <ele>255</ele>
        <time>2021-07-29T10:25:22Z</time>
      </trkpt>
      <trkpt lat="43.54358" lon="1.09723">
        <ele>256</ele>
        <time>2021-07-29T10:25:28Z</time>
      </trkpt>
      <trkpt lat="43.54351" lon="1.09722">
        <ele>256</ele>
        <time>2021-07-29T10:25:34Z</time>
      </trkpt>
      <trkpt lat="43.54342" lon="1.09721">
        <ele>256</ele>
        <time>2021-07-29T10:25:40Z</time>
      </trkpt>
      <trkpt lat="43.54334" lon="1.09721">
        <ele>257</ele>
        <time>2021-07-29T10:25:46Z</time>
      </trkpt>
      <trkpt lat="43.54325" lon="1.09721">
        <ele>258</ele>
        <time>2021-07-29T10:25:53Z</time>
      </trkpt>
      <trkpt lat="43.54316" lon="1.0972">
        <ele>258</ele>
        <time>2021-07-29T10:25:59Z</time>
      </trkpt>
      <trkpt lat="43.54308" lon="1.09719">
        <ele>257</ele>
        <time>2021-07-29T10:26:05Z</time>
      </trkpt>
      <trkpt lat="43.54299" lon="1.09718">
        <ele>258</ele>
        <time>2021-07-29T10:26:11Z</time>
      </trkpt>
      <trkpt lat="43.54291" lon="1.09717">
        <ele>259</ele>
        <time>2021-07-29T10:26:18Z</time>
      </trkpt>
      <trkpt lat="43.54282" lon="1.09716">
        <ele>259</ele>
        <time>2021-07-29T10:26:24Z</time>
      </trkpt>
      <trkpt lat="43.54274" lon="1.09715">
        <ele>258</ele>
        <time>2021-07-29T10:26:30Z</time>
      </trkpt>
      <trkpt lat="43.54266" lon="1.09714">
        <ele>259</ele>
        <time>2021-07-29T10:26:36Z</time>
      </trkpt>
      <trkpt lat="43.54257" lon="1.09713">
        <ele>260</ele>
        <time>2021-07-29T10:26:42Z</time>
      </trkpt>
      <trkpt lat="43.54248" lon="1.09713">
        <ele>258</ele>
        <time>2021-07-29T10:26:49Z</time>
      </trkpt>
      <trkpt lat="43.5424" lon="1.09712">
        <ele>259</ele>
        <time>2021-07-29T10:26:56Z</time>
      </trkpt>
      <trkpt lat="43.54232" lon="1.09711">
        <ele>260</ele>
        <time>2021-07-29T10:27:03Z</time>
      </trkpt>
      <trkpt lat="43.54223" lon="1.0971">
        <ele>260</ele>
        <time>2021-07-29T10:27:10Z</time>
      </trkpt>
      <trkpt lat="43.54215" lon="1.0971">
        <ele>261</ele>
        <time>2021-07-29T10:27:18Z</time>
      </trkpt>
      <trkpt lat="43.54207" lon="1.09709">
        <ele>263</ele>
        <time>2021-07-29T10:27:24Z</time>
      </trkpt>
      <trkpt lat="43.54199" lon="1.09708">
        <ele>264</ele>
        <time>2021-07-29T10:27:30Z</time>
      </trkpt>
      <trkpt lat="43.54192" lon="1.09708">
        <ele>265</ele>
        <time>2021-07-29T10:27:35Z</time>
      </trkpt>
      <trkpt lat="43.54184" lon="1.09706">
        <ele>265</ele>
        <time>2021-07-29T10:27:40Z</time>
      </trkpt>
      <trkpt lat="43.54176" lon="1.09706">
        <ele>267</ele>
        <time>2021-07-29T10:27:46Z</time>
      </trkpt>
      <trkpt lat="43.54167" lon="1.09706">
        <ele>268</ele>
        <time>2021-07-29T10:27:52Z</time>
      </trkpt>
      <trkpt lat="43.54158" lon="1.09705">
        <ele>268</ele>
        <time>2021-07-29T10:27:58Z</time>
      </trkpt>
      <trkpt lat="43.5415" lon="1.09704">
        <ele>269</ele>
        <time>2021-07-29T10:28:04Z</time>
      </trkpt>
      <trkpt lat="43.54142" lon="1.09704">
        <ele>270</ele>
        <time>2021-07-29T10:28:10Z</time>
      </trkpt>
      <trkpt lat="43.54134" lon="1.09702">
        <ele>270</ele>
        <time>2021-07-29T10:28:17Z</time>
      </trkpt>
      <trkpt lat="43.54126" lon="1.09701">
        <ele>270</ele>
        <time>2021-07-29T10:28:23Z</time>
      </trkpt>
      <trkpt lat="43.54118" lon="1.09701">
        <ele>271</ele>
        <time>2021-07-29T10:28:29Z</time>
      </trkpt>
      <trkpt lat="43.54109" lon="1.09701">
        <ele>271</ele>
        <time>2021-07-29T10:28:37Z</time>
      </trkpt>
      <trkpt lat="43.54101" lon="1.097">
        <ele>271</ele>
        <time>2021-07-29T10:28:43Z</time>
      </trkpt>
      <trkpt lat="43.54093" lon="1.09699">
        <ele>273</ele>
        <time>2021-07-29T10:28:48Z</time>
      </trkpt>
      <trkpt lat="43.54086" lon="1.09698">
        <ele>273</ele>
        <time>2021-07-29T10:28:53Z</time>
      </trkpt>
      <trkpt lat="43.54077" lon="1.09698">
        <ele>274</ele>
        <time>2021-07-29T10:28:59Z</time>
      </trkpt>
      <trkpt lat="43.54069" lon="1.09697">
        <ele>274</ele>
        <time>2021-07-29T10:29:05Z</time>
      </trkpt>
      <trkpt lat="43.54062" lon="1.09696">
        <ele>273</ele>
        <time>2021-07-29T10:29:10Z</time>
      </trkpt>
      <trkpt lat="43.54054" lon="1.09697">
        <ele>274</ele>
        <time>2021-07-29T10:29:16Z</time>
      </trkpt>
      <trkpt lat="43.54046" lon="1.09697">
        <ele>275</ele>
        <time>2021-07-29T10:29:23Z</time>
      </trkpt>
      <trkpt lat="43.54039" lon="1.09693">
        <ele>275</ele>
        <time>2021-07-29T10:29:30Z</time>
      </trkpt>
      <trkpt lat="43.5403" lon="1.09691">
        <ele>276</ele>
        <time>2021-07-29T10:29:36Z</time>
      </trkpt>
      <trkpt lat="43.54022" lon="1.09688">
        <ele>276</ele>
        <time>2021-07-29T10:29:43Z</time>
      </trkpt>
      <trkpt lat="43.54014" lon="1.09686">
        <ele>277</ele>
        <time>2021-07-29T10:29:49Z</time>
      </trkpt>
      <trkpt lat="43.54006" lon="1.09683">
        <ele>278</ele>
        <time>2021-07-29T10:29:55Z</time>
      </trkpt>
      <trkpt lat="43.53998" lon="1.0968">
        <ele>279</ele>
        <time>2021-07-29T10:30:01Z</time>
      </trkpt>
      <trkpt lat="43.53991" lon="1.09676">
        <ele>280</ele>
        <time>2021-07-29T10:30:07Z</time>
      </trkpt>
      <trkpt lat="43.53982" lon="1.09673">
        <ele>279</ele>
        <time>2021-07-29T10:30:13Z</time>
      </trkpt>
      <trkpt lat="43.53974" lon="1.09671">
        <ele>279</ele>
        <time>2021-07-29T10:30:19Z</time>
      </trkpt>
      <trkpt lat="43.53965" lon="1.09669">
        <ele>279</ele>
        <time>2021-07-29T10:30:26Z</time>
      </trkpt>
      <trkpt lat="43.53956" lon="1.09666">
        <ele>278</ele>
        <time>2021-07-29T10:30:33Z</time>
      </trkpt>
      <trkpt lat="43.53948" lon="1.09662">
        <ele>280</ele>
        <time>2021-07-29T10:30:40Z</time>
      </trkpt>
      <trkpt lat="43.53942" lon="1.09656">
        <ele>278</ele>
        <time>2021-07-29T10:30:46Z</time>
      </trkpt>
      <trkpt lat="43.53933" lon="1.09653">
        <ele>277</ele>
        <time>2021-07-29T10:30:53Z</time>
      </trkpt>
      <trkpt lat="43.53925" lon="1.09649">
        <ele>277</ele>
        <time>2021-07-29T10:30:59Z</time>
      </trkpt>
      <trkpt lat="43.53917" lon="1.09646">
        <ele>276</ele>
        <time>2021-07-29T10:31:07Z</time>
      </trkpt>
      <trkpt lat="43.53909" lon="1.09643">
        <ele>276</ele>
        <time>2021-07-29T10:31:15Z</time>
      </trkpt>
      <trkpt lat="43.53901" lon="1.09639">
        <ele>275</ele>
        <time>2021-07-29T10:31:22Z</time>
      </trkpt>
      <trkpt lat="43.53893" lon="1.09635">
        <ele>275</ele>
        <time>2021-07-29T10:31:29Z</time>
      </trkpt>
      <trkpt lat="43.53885" lon="1.09632">
        <ele>274</ele>
        <time>2021-07-29T10:31:35Z</time>
      </trkpt>
      <trkpt lat="43.53877" lon="1.09628">
        <ele>276</ele>
        <time>2021-07-29T10:31:43Z</time>
      </trkpt>
      <trkpt lat="43.53869" lon="1.09626">
        <ele>276</ele>
        <time>2021-07-29T10:31:49Z</time>
      </trkpt>
      <trkpt lat="43.53861" lon="1.09621">
        <ele>275</ele>
        <time>2021-07-29T10:31:54Z</time>
      </trkpt>
      <trkpt lat="43.53854" lon="1.09617">
        <ele>276</ele>
        <time>2021-07-29T10:31:58Z</time>
      </trkpt>
      <trkpt lat="43.53846" lon="1.09613">
        <ele>276</ele>
        <time>2021-07-29T10:32:03Z</time>
      </trkpt>
      <trkpt lat="43.53839" lon="1.09607">
        <ele>276</ele>
        <time>2021-07-29T10:32:10Z</time>
      </trkpt>
      <trkpt lat="43.53832" lon="1.09601">
        <ele>277</ele>
        <time>2021-07-29T10:32:16Z</time>
      </trkpt>
      <trkpt lat="43.53826" lon="1.09595">
        <ele>279</ele>
        <time>2021-07-29T10:32:23Z</time>
      </trkpt>
      <trkpt lat="43.5382" lon="1.09587">
        <ele>278</ele>
        <time>2021-07-29T10:32:30Z</time>
      </trkpt>
      <trkpt lat="43.53813" lon="1.0958">
        <ele>279</ele>
        <time>2021-07-29T10:32:37Z</time>
      </trkpt>
      <trkpt lat="43.53806" lon="1.09572">
        <ele>282</ele>
        <time>2021-07-29T10:32:43Z</time>
      </trkpt>
      <trkpt lat="43.53801" lon="1.09565">
        <ele>282</ele>
        <time>2021-07-29T10:32:47Z</time>
      </trkpt>
      <trkpt lat="43.53794" lon="1.09557">
        <ele>283</ele>
        <time>2021-07-29T10:32:53Z</time>
      </trkpt>
      <trkpt lat="43.53788" lon="1.0955">
        <ele>283</ele>
        <time>2021-07-29T10:32:59Z</time>
      </trkpt>
      <trkpt lat="43.53782" lon="1.09541">
        <ele>283</ele>
        <time>2021-07-29T10:33:05Z</time>
      </trkpt>
      <trkpt lat="43.53776" lon="1.09534">
        <ele>284</ele>
        <time>2021-07-29T10:33:11Z</time>
      </trkpt>
      <trkpt lat="43.5377" lon="1.09526">
        <ele>285</ele>
        <time>2021-07-29T10:33:17Z</time>
      </trkpt>
      <trkpt lat="43.53764" lon="1.09519">
        <ele>286</ele>
        <time>2021-07-29T10:33:23Z</time>
      </trkpt>
      <trkpt lat="43.53758" lon="1.09511">
        <ele>288</ele>
        <time>2021-07-29T10:33:29Z</time>
      </trkpt>
      <trkpt lat="43.53751" lon="1.09504">
        <ele>289</ele>
        <time>2021-07-29T10:33:35Z</time>
      </trkpt>
      <trkpt lat="43.53745" lon="1.09494">
        <ele>289</ele>
        <time>2021-07-29T10:33:42Z</time>
      </trkpt>
      <trkpt lat="43.5374" lon="1.09485">
        <ele>289</ele>
        <time>2021-07-29T10:33:49Z</time>
      </trkpt>
      <trkpt lat="43.53736" lon="1.09476">
        <ele>289</ele>
        <time>2021-07-29T10:33:56Z</time>
      </trkpt>
      <trkpt lat="43.5373" lon="1.09468">
        <ele>288</ele>
        <time>2021-07-29T10:34:02Z</time>
      </trkpt>
      <trkpt lat="43.53724" lon="1.0946">
        <ele>288</ele>
        <time>2021-07-29T10:34:08Z</time>
      </trkpt>
      <trkpt lat="43.53719" lon="1.09451">
        <ele>287</ele>
        <time>2021-07-29T10:34:14Z</time>
      </trkpt>
      <trkpt lat="43.53713" lon="1.09443">
        <ele>287</ele>
        <time>2021-07-29T10:34:20Z</time>
      </trkpt>
      <trkpt lat="43.53707" lon="1.09434">
        <ele>288</ele>
        <time>2021-07-29T10:34:26Z</time>
      </trkpt>
      <trkpt lat="43.53702" lon="1.09424">
        <ele>288</ele>
        <time>2021-07-29T10:34:34Z</time>
      </trkpt>
      <trkpt lat="43.53696" lon="1.09416">
        <ele>287</ele>
        <time>2021-07-29T10:34:40Z</time>
      </trkpt>
      <trkpt lat="43.53691" lon="1.09407">
        <ele>287</ele>
        <time>2021-07-29T10:34:47Z</time>
      </trkpt>
      <trkpt lat="43.53685" lon="1.09398">
        <ele>288</ele>
        <time>2021-07-29T10:34:55Z</time>
      </trkpt>
      <trkpt lat="43.53678" lon="1.09389">
        <ele>290</ele>
        <time>2021-07-29T10:35:02Z</time>
      </trkpt>
      <trkpt lat="43.53672" lon="1.09382">
        <ele>289</ele>
        <time>2021-07-29T10:35:14Z</time>
      </trkpt>
      <trkpt lat="43.53666" lon="1.09374">
        <ele>289</ele>
        <time>2021-07-29T10:35:20Z</time>
      </trkpt>
      <trkpt lat="43.53661" lon="1.09365">
        <ele>289</ele>
        <time>2021-07-29T10:35:27Z</time>
      </trkpt>
      <trkpt lat="43.53656" lon="1.09356">
        <ele>289</ele>
        <time>2021-07-29T10:35:34Z</time>
      </trkpt>
      <trkpt lat="43.53651" lon="1.09347">
        <ele>289</ele>
        <time>2021-07-29T10:35:40Z</time>
      </trkpt>
      <trkpt lat="43.53645" lon="1.09339">
        <ele>289</ele>
        <time>2021-07-29T10:35:46Z</time>
      </trkpt>
      <trkpt lat="43.5364" lon="1.09331">
        <ele>288</ele>
        <time>2021-07-29T10:35:52Z</time>
      </trkpt>
      <trkpt lat="43.53637" lon="1.0932">
        <ele>288</ele>
        <time>2021-07-29T10:35:59Z</time>
      </trkpt>
      <trkpt lat="43.53631" lon="1.0931">
        <ele>287</ele>
        <time>2021-07-29T10:36:07Z</time>
      </trkpt>
      <trkpt lat="43.53626" lon="1.09301">
        <ele>286</ele>
        <time>2021-07-29T10:36:14Z</time>
      </trkpt>
      <trkpt lat="43.53622" lon="1.0929">
        <ele>286</ele>
        <time>2021-07-29T10:36:21Z</time>
      </trkpt>
      <trkpt lat="43.53619" lon="1.0928">
        <ele>285</ele>
        <time>2021-07-29T10:36:28Z</time>
      </trkpt>
      <trkpt lat="43.53612" lon="1.09271">
        <ele>286</ele>
        <time>2021-07-29T10:36:34Z</time>
      </trkpt>
      <trkpt lat="43.53608" lon="1.09261">
        <ele>284</ele>
        <time>2021-07-29T10:36:41Z</time>
      </trkpt>
      <trkpt lat="43.53602" lon="1.09252">
        <ele>282</ele>
        <time>2021-07-29T10:36:48Z</time>
      </trkpt>
      <trkpt lat="43.53598" lon="1.09243">
        <ele>282</ele>
        <time>2021-07-29T10:36:54Z</time>
      </trkpt>
      <trkpt lat="43.53594" lon="1.09233">
        <ele>283</ele>
        <time>2021-07-29T10:37:00Z</time>
      </trkpt>
      <trkpt lat="43.53589" lon="1.09223">
        <ele>284</ele>
        <time>2021-07-29T10:37:06Z</time>
      </trkpt>
      <trkpt lat="43.53586" lon="1.09213">
        <ele>285</ele>
        <time>2021-07-29T10:37:12Z</time>
      </trkpt>
      <trkpt lat="43.53581" lon="1.09203">
        <ele>287</ele>
        <time>2021-07-29T10:37:19Z</time>
      </trkpt>
      <trkpt lat="43.53576" lon="1.09193">
        <ele>287</ele>
        <time>2021-07-29T10:37:25Z</time>
      </trkpt>
      <trkpt lat="43.53572" lon="1.09182">
        <ele>287</ele>
        <time>2021-07-29T10:37:32Z</time>
      </trkpt>
      <trkpt lat="43.53568" lon="1.09172">
        <ele>289</ele>
        <time>2021-07-29T10:37:39Z</time>
      </trkpt>
      <trkpt lat="43.53564" lon="1.09163">
        <ele>289</ele>
        <time>2021-07-29T10:37:45Z</time>
      </trkpt>
      <trkpt lat="43.53561" lon="1.09152">
        <ele>289</ele>
        <time>2021-07-29T10:37:51Z</time>
      </trkpt>
      <trkpt lat="43.53558" lon="1.0914">
        <ele>289</ele>
        <time>2021-07-29T10:37:58Z</time>
      </trkpt>
      <trkpt lat="43.53554" lon="1.09131">
        <ele>289</ele>
        <time>2021-07-29T10:38:04Z</time>
      </trkpt>
      <trkpt lat="43.53551" lon="1.09119">
        <ele>289</ele>
        <time>2021-07-29T10:38:10Z</time>
      </trkpt>
      <trkpt lat="43.53549" lon="1.09107">
        <ele>289</ele>
        <time>2021-07-29T10:38:17Z</time>
      </trkpt>
      <trkpt lat="43.53545" lon="1.09099">
        <ele>290</ele>
        <time>2021-07-29T10:38:22Z</time>
      </trkpt>
      <trkpt lat="43.53539" lon="1.0909">
        <ele>289</ele>
        <time>2021-07-29T10:38:27Z</time>
      </trkpt>
      <trkpt lat="43.53535" lon="1.0908">
        <ele>289</ele>
        <time>2021-07-29T10:38:33Z</time>
      </trkpt>
      <trkpt lat="43.53531" lon="1.0907">
        <ele>289</ele>
        <time>2021-07-29T10:38:40Z</time>
      </trkpt>
      <trkpt lat="43.53527" lon="1.0906">
        <ele>291</ele>
        <time>2021-07-29T10:38:46Z</time>
      </trkpt>
      <trkpt lat="43.53522" lon="1.09052">
        <ele>292</ele>
        <time>2021-07-29T10:38:52Z</time>
      </trkpt>
      <trkpt lat="43.53518" lon="1.09041">
        <ele>291</ele>
        <time>2021-07-29T10:38:59Z</time>
      </trkpt>
      <trkpt lat="43.53514" lon="1.09032">
        <ele>291</ele>
        <time>2021-07-29T10:39:05Z</time>
      </trkpt>
      <trkpt lat="43.5351" lon="1.09021">
        <ele>292</ele>
        <time>2021-07-29T10:39:12Z</time>
      </trkpt>
      <trkpt lat="43.53506" lon="1.09012">
        <ele>292</ele>
        <time>2021-07-29T10:39:18Z</time>
      </trkpt>
      <trkpt lat="43.53501" lon="1.09001">
        <ele>291</ele>
        <time>2021-07-29T10:39:25Z</time>
      </trkpt>
      <trkpt lat="43.53496" lon="1.08991">
        <ele>291</ele>
        <time>2021-07-29T10:39:31Z</time>
      </trkpt>
      <trkpt lat="43.53492" lon="1.08981">
        <ele>292</ele>
        <time>2021-07-29T10:39:38Z</time>
      </trkpt>
      <trkpt lat="43.53487" lon="1.08971">
        <ele>291</ele>
        <time>2021-07-29T10:39:45Z</time>
      </trkpt>
      <trkpt lat="43.53482" lon="1.08962">
        <ele>290</ele>
        <time>2021-07-29T10:40:00Z</time>
      </trkpt>
      <trkpt lat="43.53477" lon="1.08953">
        <ele>291</ele>
        <time>2021-07-29T10:40:07Z</time>
      </trkpt>
      <trkpt lat="43.53472" lon="1.08943">
        <ele>291</ele>
        <time>2021-07-29T10:40:14Z</time>
      </trkpt>
      <trkpt lat="43.53466" lon="1.08934">
        <ele>291</ele>
        <time>2021-07-29T10:40:21Z</time>
      </trkpt>
      <trkpt lat="43.53461" lon="1.08924">
        <ele>291</ele>
        <time>2021-07-29T10:40:28Z</time>
      </trkpt>
      <trkpt lat="43.53455" lon="1.08915">
        <ele>289</ele>
        <time>2021-07-29T10:40:35Z</time>
      </trkpt>
      <trkpt lat="43.5345" lon="1.08906">
        <ele>289</ele>
        <time>2021-07-29T10:40:42Z</time>
      </trkpt>
      <trkpt lat="43.53445" lon="1.08896">
        <ele>289</ele>
        <time>2021-07-29T10:40:49Z</time>
      </trkpt>
      <trkpt lat="43.5344" lon="1.08887">
        <ele>290</ele>
        <time>2021-07-29T10:40:55Z</time>
      </trkpt>
      <trkpt lat="43.53435" lon="1.08878">
        <ele>290</ele>
        <time>2021-07-29T10:41:02Z</time>
      </trkpt>
      <trkpt lat="43.5343" lon="1.08869">
        <ele>289</ele>
        <time>2021-07-29T10:41:09Z</time>
      </trkpt>
      <trkpt lat="43.53424" lon="1.08861">
        <ele>289</ele>
        <time>2021-07-29T10:41:15Z</time>
      </trkpt>
      <trkpt lat="43.53419" lon="1.08852">
        <ele>289</ele>
        <time>2021-07-29T10:41:21Z</time>
      </trkpt>
      <trkpt lat="43.53413" lon="1.08843">
        <ele>288</ele>
        <time>2021-07-29T10:41:28Z</time>
      </trkpt>
      <trkpt lat="43.53408" lon="1.08834">
        <ele>288</ele>
        <time>2021-07-29T10:41:34Z</time>
      </trkpt>
      <trkpt lat="43.53404" lon="1.08824">
        <ele>287</ele>
        <time>2021-07-29T10:41:42Z</time>
      </trkpt>
      <trkpt lat="43.53398" lon="1.08815">
        <ele>288</ele>
        <time>2021-07-29T10:41:49Z</time>
      </trkpt>
      <trkpt lat="43.53392" lon="1.08807">
        <ele>289</ele>
        <time>2021-07-29T10:41:56Z</time>
      </trkpt>
      <trkpt lat="43.53385" lon="1.08801">
        <ele>288</ele>
        <time>2021-07-29T10:42:02Z</time>
      </trkpt>
      <trkpt lat="43.53378" lon="1.08795">
        <ele>289</ele>
        <time>2021-07-29T10:42:08Z</time>
      </trkpt>
      <trkpt lat="43.53372" lon="1.0879">
        <ele>289</ele>
        <time>2021-07-29T10:42:13Z</time>
      </trkpt>
      <trkpt lat="43.53366" lon="1.08784">
        <ele>290</ele>
        <time>2021-07-29T10:42:18Z</time>
      </trkpt>
      <trkpt lat="43.53358" lon="1.08779">
        <ele>290</ele>
        <time>2021-07-29T10:42:24Z</time>
      </trkpt>
      <trkpt lat="43.53351" lon="1.08775">
        <ele>290</ele>
        <time>2021-07-29T10:42:31Z</time>
      </trkpt>
      <trkpt lat="43.53343" lon="1.0877">
        <ele>289</ele>
        <time>2021-07-29T10:42:38Z</time>
      </trkpt>
      <trkpt lat="43.53335" lon="1.08773">
        <ele>289</ele>
        <time>2021-07-29T10:42:45Z</time>
      </trkpt>
      <trkpt lat="43.53326" lon="1.08774">
        <ele>289</ele>
        <time>2021-07-29T10:42:54Z</time>
      </trkpt>
      <trkpt lat="43.53321" lon="1.08765">
        <ele>289</ele>
        <time>2021-07-29T10:43:06Z</time>
      </trkpt>
      <trkpt lat="43.53313" lon="1.08761">
        <ele>289</ele>
        <time>2021-07-29T10:43:20Z</time>
      </trkpt>
      <trkpt lat="43.53307" lon="1.08754">
        <ele>290</ele>
        <time>2021-07-29T10:43:26Z</time>
      </trkpt>
      <trkpt lat="43.53299" lon="1.08751">
        <ele>291</ele>
        <time>2021-07-29T10:43:33Z</time>
      </trkpt>
      <trkpt lat="43.53291" lon="1.08746">
        <ele>293</ele>
        <time>2021-07-29T10:43:40Z</time>
      </trkpt>
      <trkpt lat="43.53283" lon="1.08743">
        <ele>292</ele>
        <time>2021-07-29T10:43:47Z</time>
      </trkpt>
      <trkpt lat="43.53275" lon="1.0874">
        <ele>293</ele>
        <time>2021-07-29T10:43:53Z</time>
      </trkpt>
      <trkpt lat="43.53267" lon="1.08735">
        <ele>294</ele>
        <time>2021-07-29T10:44:00Z</time>
      </trkpt>
      <trkpt lat="43.53259" lon="1.08732">
        <ele>295</ele>
        <time>2021-07-29T10:44:08Z</time>
      </trkpt>
      <trkpt lat="43.53251" lon="1.08731">
        <ele>295</ele>
        <time>2021-07-29T10:44:15Z</time>
      </trkpt>
      <trkpt lat="43.53242" lon="1.08731">
        <ele>296</ele>
        <time>2021-07-29T10:44:22Z</time>
      </trkpt>
      <trkpt lat="43.53234" lon="1.08733">
        <ele>295</ele>
        <time>2021-07-29T10:44:29Z</time>
      </trkpt>
      <trkpt lat="43.53226" lon="1.08737">
        <ele>298</ele>
        <time>2021-07-29T10:44:36Z</time>
      </trkpt>
      <trkpt lat="43.53218" lon="1.08742">
        <ele>297</ele>
        <time>2021-07-29T10:44:44Z</time>
      </trkpt>
      <trkpt lat="43.5321" lon="1.08747">
        <ele>297</ele>
        <time>2021-07-29T10:44:51Z</time>
      </trkpt>
      <trkpt lat="43.53203" lon="1.08749">
        <ele>298</ele>
        <time>2021-07-29T10:44:57Z</time>
      </trkpt>
      <trkpt lat="43.53195" lon="1.08754">
        <ele>297</ele>
        <time>2021-07-29T10:45:03Z</time>
      </trkpt>
      <trkpt lat="43.53188" lon="1.08758">
        <ele>297</ele>
        <time>2021-07-29T10:45:10Z</time>
      </trkpt>
      <trkpt lat="43.53179" lon="1.08761">
        <ele>298</ele>
        <time>2021-07-29T10:45:20Z</time>
      </trkpt>
      <trkpt lat="43.53171" lon="1.08765">
        <ele>299</ele>
        <time>2021-07-29T10:45:30Z</time>
      </trkpt>
      <trkpt lat="43.53163" lon="1.08767">
        <ele>299</ele>
        <time>2021-07-29T10:45:37Z</time>
      </trkpt>
      <trkpt lat="43.53155" lon="1.0877">
        <ele>300</ele>
        <time>2021-07-29T10:45:44Z</time>
      </trkpt>
      <trkpt lat="43.53147" lon="1.08772">
        <ele>299</ele>
        <time>2021-07-29T10:46:02Z</time>
      </trkpt>
      <trkpt lat="43.53139" lon="1.08776">
        <ele>301</ele>
        <time>2021-07-29T10:46:07Z</time>
      </trkpt>
      <trkpt lat="43.53132" lon="1.08779">
        <ele>302</ele>
        <time>2021-07-29T10:46:13Z</time>
      </trkpt>
      <trkpt lat="43.53124" lon="1.08781">
        <ele>303</ele>
        <time>2021-07-29T10:46:19Z</time>
      </trkpt>
      <trkpt lat="43.53115" lon="1.08784">
        <ele>303</ele>
        <time>2021-07-29T10:46:26Z</time>
      </trkpt>
      <trkpt lat="43.53107" lon="1.08785">
        <ele>304</ele>
        <time>2021-07-29T10:46:34Z</time>
      </trkpt>
      <trkpt lat="43.53098" lon="1.08784">
        <ele>306</ele>
        <time>2021-07-29T10:46:41Z</time>
      </trkpt>
      <trkpt lat="43.53091" lon="1.08784">
        <ele>306</ele>
        <time>2021-07-29T10:46:47Z</time>
      </trkpt>
      <trkpt lat="43.53082" lon="1.08784">
        <ele>305</ele>
        <time>2021-07-29T10:46:54Z</time>
      </trkpt>
      <trkpt lat="43.53074" lon="1.08784">
        <ele>308</ele>
        <time>2021-07-29T10:47:00Z</time>
      </trkpt>
      <trkpt lat="43.53066" lon="1.08784">
        <ele>307</ele>
        <time>2021-07-29T10:47:05Z</time>
      </trkpt>
      <trkpt lat="43.53058" lon="1.08785">
        <ele>310</ele>
        <time>2021-07-29T10:47:11Z</time>
      </trkpt>
      <trkpt lat="43.5305" lon="1.0879">
        <ele>309</ele>
        <time>2021-07-29T10:47:18Z</time>
      </trkpt>
      <trkpt lat="43.53043" lon="1.08785">
        <ele>311</ele>
        <time>2021-07-29T10:47:26Z</time>
      </trkpt>
      <trkpt lat="43.53035" lon="1.08783">
        <ele>314</ele>
        <time>2021-07-29T10:47:32Z</time>
      </trkpt>
      <trkpt lat="43.53027" lon="1.08779">
        <ele>315</ele>
        <time>2021-07-29T10:47:38Z</time>
      </trkpt>
      <trkpt lat="43.5302" lon="1.08774">
        <ele>315</ele>
        <time>2021-07-29T10:47:44Z</time>
      </trkpt>
      <trkpt lat="43.53013" lon="1.08771">
        <ele>314</ele>
        <time>2021-07-29T10:47:49Z</time>
      </trkpt>
      <trkpt lat="43.53005" lon="1.08769">
        <ele>314</ele>
        <time>2021-07-29T10:47:56Z</time>
      </trkpt>
      <trkpt lat="43.52997" lon="1.08767">
        <ele>314</ele>
        <time>2021-07-29T10:48:01Z</time>
      </trkpt>
      <trkpt lat="43.52989" lon="1.08763">
        <ele>314</ele>
        <time>2021-07-29T10:48:07Z</time>
      </trkpt>
      <trkpt lat="43.52981" lon="1.08762">
        <ele>313</ele>
        <time>2021-07-29T10:48:14Z</time>
      </trkpt>
      <trkpt lat="43.52975" lon="1.0877">
        <ele>311</ele>
        <time>2021-07-29T10:48:28Z</time>
      </trkpt>
      <trkpt lat="43.52972" lon="1.0878">
        <ele>310</ele>
        <time>2021-07-29T10:48:35Z</time>
      </trkpt>
      <trkpt lat="43.52969" lon="1.0879">
        <ele>309</ele>
        <time>2021-07-29T10:48:43Z</time>
      </trkpt>
      <trkpt lat="43.52965" lon="1.088">
        <ele>309</ele>
        <time>2021-07-29T10:48:49Z</time>
      </trkpt>
      <trkpt lat="43.52961" lon="1.08811">
        <ele>308</ele>
        <time>2021-07-29T10:48:56Z</time>
      </trkpt>
      <trkpt lat="43.52957" lon="1.08822">
        <ele>309</ele>
        <time>2021-07-29T10:49:03Z</time>
      </trkpt>
      <trkpt lat="43.52953" lon="1.08832">
        <ele>307</ele>
        <time>2021-07-29T10:49:10Z</time>
      </trkpt>
      <trkpt lat="43.52948" lon="1.08842">
        <ele>306</ele>
        <time>2021-07-29T10:49:17Z</time>
      </trkpt>
      <trkpt lat="43.52944" lon="1.08853">
        <ele>306</ele>
        <time>2021-07-29T10:49:24Z</time>
      </trkpt>
      <trkpt lat="43.5294" lon="1.08864">
        <ele>305</ele>
        <time>2021-07-29T10:49:31Z</time>
      </trkpt>
      <trkpt lat="43.52938" lon="1.08875">
        <ele>305</ele>
        <time>2021-07-29T10:49:38Z</time>
      </trkpt>
      <trkpt lat="43.52935" lon="1.08886">
        <ele>304</ele>
        <time>2021-07-29T10:49:44Z</time>
      </trkpt>
      <trkpt lat="43.52931" lon="1.08896">
        <ele>303</ele>
        <time>2021-07-29T10:50:43Z</time>
      </trkpt>
      <trkpt lat="43.52927" lon="1.08906">
        <ele>304</ele>
        <time>2021-07-29T10:50:51Z</time>
      </trkpt>
      <trkpt lat="43.52923" lon="1.08917">
        <ele>304</ele>
        <time>2021-07-29T10:50:59Z</time>
      </trkpt>
      <trkpt lat="43.52919" lon="1.08927">
        <ele>303</ele>
        <time>2021-07-29T10:51:06Z</time>
      </trkpt>
      <trkpt lat="43.52915" lon="1.08938">
        <ele>304</ele>
        <time>2021-07-29T10:51:13Z</time>
      </trkpt>
      <trkpt lat="43.52913" lon="1.0895">
        <ele>301</ele>
        <time>2021-07-29T10:52:44Z</time>
      </trkpt>
      <trkpt lat="43.5291" lon="1.08961">
        <ele>301</ele>
        <time>2021-07-29T10:52:51Z</time>
      </trkpt>
      <trkpt lat="43.52906" lon="1.08971">
        <ele>300</ele>
        <time>2021-07-29T10:52:57Z</time>
      </trkpt>
      <trkpt lat="43.52903" lon="1.08981">
        <ele>299</ele>
        <time>2021-07-29T10:53:03Z</time>
      </trkpt>
      <trkpt lat="43.529" lon="1.08992">
        <ele>299</ele>
        <time>2021-07-29T10:53:10Z</time>
      </trkpt>
      <trkpt lat="43.52896" lon="1.09003">
        <ele>299</ele>
        <time>2021-07-29T10:53:16Z</time>
      </trkpt>
      <trkpt lat="43.52893" lon="1.09014">
        <ele>299</ele>
        <time>2021-07-29T10:53:22Z</time>
      </trkpt>
      <trkpt lat="43.52889" lon="1.09024">
        <ele>300</ele>
        <time>2021-07-29T10:53:29Z</time>
      </trkpt>
      <trkpt lat="43.52887" lon="1.09036">
        <ele>300</ele>
        <time>2021-07-29T10:53:36Z</time>
      </trkpt>
      <trkpt lat="43.52884" lon="1.09046">
        <ele>298</ele>
        <time>2021-07-29T10:53:50Z</time>
      </trkpt>
      <trkpt lat="43.52879" lon="1.09056">
        <ele>298</ele>
        <time>2021-07-29T10:53:57Z</time>
      </trkpt>
      <trkpt lat="43.52875" lon="1.09066">
        <ele>298</ele>
        <time>2021-07-29T10:54:03Z</time>
      </trkpt>
      <trkpt lat="43.5287" lon="1.09076">
        <ele>297</ele>
        <time>2021-07-29T10:54:11Z</time>
      </trkpt>
      <trkpt lat="43.52866" lon="1.09086">
        <ele>297</ele>
        <time>2021-07-29T10:54:18Z</time>
      </trkpt>
      <trkpt lat="43.52861" lon="1.09096">
        <ele>295</ele>
        <time>2021-07-29T10:54:25Z</time>
      </trkpt>
      <trkpt lat="43.52858" lon="1.09105">
        <ele>294</ele>
        <time>2021-07-29T10:54:31Z</time>
      </trkpt>
      <trkpt lat="43.52854" lon="1.09115">
        <ele>294</ele>
        <time>2021-07-29T10:54:37Z</time>
      </trkpt>
      <trkpt lat="43.52851" lon="1.09126">
        <ele>294</ele>
        <time>2021-07-29T10:54:43Z</time>
      </trkpt>
      <trkpt lat="43.52847" lon="1.09137">
        <ele>295</ele>
        <time>2021-07-29T10:54:50Z</time>
      </trkpt>
      <trkpt lat="43.52847" lon="1.09148">
        <ele>294</ele>
        <time>2021-07-29T10:54:56Z</time>
      </trkpt>
      <trkpt lat="43.52844" lon="1.09159">
        <ele>294</ele>
        <time>2021-07-29T10:55:03Z</time>
      </trkpt>
      <trkpt lat="43.52841" lon="1.0917">
        <ele>293</ele>
        <time>2021-07-29T10:55:12Z</time>
      </trkpt>
      <trkpt lat="43.52837" lon="1.0918">
        <ele>293</ele>
        <time>2021-07-29T10:55:18Z</time>
      </trkpt>
      <trkpt lat="43.52834" lon="1.09192">
        <ele>292</ele>
        <time>2021-07-29T10:55:24Z</time>
      </trkpt>
      <trkpt lat="43.5283" lon="1.09201">
        <ele>292</ele>
        <time>2021-07-29T10:55:30Z</time>
      </trkpt>
      <trkpt lat="43.52825" lon="1.09209">
        <ele>292</ele>
        <time>2021-07-29T10:55:37Z</time>
      </trkpt>
      <trkpt lat="43.52821" lon="1.0922">
        <ele>292</ele>
        <time>2021-07-29T10:55:44Z</time>
      </trkpt>
      <trkpt lat="43.52817" lon="1.0923">
        <ele>291</ele>
        <time>2021-07-29T10:55:51Z</time>
      </trkpt>
      <trkpt lat="43.52812" lon="1.0924">
        <ele>293</ele>
        <time>2021-07-29T10:55:58Z</time>
      </trkpt>
      <trkpt lat="43.52808" lon="1.09249">
        <ele>294</ele>
        <time>2021-07-29T10:56:04Z</time>
      </trkpt>
      <trkpt lat="43.52804" lon="1.09258">
        <ele>293</ele>
        <time>2021-07-29T10:56:11Z</time>
      </trkpt>
      <trkpt lat="43.52801" lon="1.09268">
        <ele>293</ele>
        <time>2021-07-29T10:56:17Z</time>
      </trkpt>
      <trkpt lat="43.52795" lon="1.09276">
        <ele>293</ele>
        <time>2021-07-29T10:56:24Z</time>
      </trkpt>
      <trkpt lat="43.52791" lon="1.09286">
        <ele>294</ele>
        <time>2021-07-29T10:56:31Z</time>
      </trkpt>
      <trkpt lat="43.52788" lon="1.09297">
        <ele>295</ele>
        <time>2021-07-29T10:56:38Z</time>
      </trkpt>
      <trkpt lat="43.52786" lon="1.09309">
        <ele>296</ele>
        <time>2021-07-29T10:56:45Z</time>
      </trkpt>
      <trkpt lat="43.52782" lon="1.09319">
        <ele>296</ele>
        <time>2021-07-29T10:56:52Z</time>
      </trkpt>
      <trkpt lat="43.52779" lon="1.09329">
        <ele>296</ele>
        <time>2021-07-29T10:56:58Z</time>
      </trkpt>
      <trkpt lat="43.52778" lon="1.0934">
        <ele>296</ele>
        <time>2021-07-29T10:57:05Z</time>
      </trkpt>
      <trkpt lat="43.52775" lon="1.09352">
        <ele>298</ele>
        <time>2021-07-29T10:57:13Z</time>
      </trkpt>
      <trkpt lat="43.52773" lon="1.09362">
        <ele>301</ele>
        <time>2021-07-29T10:57:23Z</time>
      </trkpt>
      <trkpt lat="43.5277" lon="1.09373">
        <ele>300</ele>
        <time>2021-07-29T10:57:30Z</time>
      </trkpt>
      <trkpt lat="43.52767" lon="1.09384">
        <ele>298</ele>
        <time>2021-07-29T10:57:36Z</time>
      </trkpt>
      <trkpt lat="43.52765" lon="1.09394">
        <ele>299</ele>
        <time>2021-07-29T10:57:43Z</time>
      </trkpt>
      <trkpt lat="43.52761" lon="1.09405">
        <ele>301</ele>
        <time>2021-07-29T10:57:50Z</time>
      </trkpt>
      <trkpt lat="43.5276" lon="1.09417">
        <ele>302</ele>
        <time>2021-07-29T10:57:57Z</time>
      </trkpt>
      <trkpt lat="43.52758" lon="1.09428">
        <ele>302</ele>
        <time>2021-07-29T10:58:05Z</time>
      </trkpt>
      <trkpt lat="43.52756" lon="1.0944">
        <ele>303</ele>
        <time>2021-07-29T10:58:14Z</time>
      </trkpt>
      <trkpt lat="43.52754" lon="1.09451">
        <ele>303</ele>
        <time>2021-07-29T10:58:20Z</time>
      </trkpt>
      <trkpt lat="43.52751" lon="1.09462">
        <ele>303</ele>
        <time>2021-07-29T10:58:26Z</time>
      </trkpt>
      <trkpt lat="43.52748" lon="1.09472">
        <ele>304</ele>
        <time>2021-07-29T10:58:33Z</time>
      </trkpt>
      <trkpt lat="43.52745" lon="1.09484">
        <ele>304</ele>
        <time>2021-07-29T10:58:41Z</time>
      </trkpt>
      <trkpt lat="43.52743" lon="1.09495">
        <ele>304</ele>
        <time>2021-07-29T10:58:48Z</time>
      </trkpt>
      <trkpt lat="43.5274" lon="1.09506">
        <ele>304</ele>
        <time>2021-07-29T10:58:55Z</time>
      </trkpt>
      <trkpt lat="43.52738" lon="1.09518">
        <ele>305</ele>
        <time>2021-07-29T10:59:03Z</time>
      </trkpt>
      <trkpt lat="43.52735" lon="1.0953">
        <ele>305</ele>
        <time>2021-07-29T10:59:25Z</time>
      </trkpt>
      <trkpt lat="43.52731" lon="1.0954">
        <ele>305</ele>
        <time>2021-07-29T10:59:33Z</time>
      </trkpt>
      <trkpt lat="43.52727" lon="1.09549">
        <ele>305</ele>
        <time>2021-07-29T10:59:39Z</time>
      </trkpt>
      <trkpt lat="43.52725" lon="1.0956">
        <ele>305</ele>
        <time>2021-07-29T10:59:46Z</time>
      </trkpt>
      <trkpt lat="43.52724" lon="1.09571">
        <ele>306</ele>
        <time>2021-07-29T10:59:52Z</time>
      </trkpt>
      <trkpt lat="43.52721" lon="1.09581">
        <ele>307</ele>
        <time>2021-07-29T10:59:59Z</time>
      </trkpt>
      <trkpt lat="43.52717" lon="1.09591">
        <ele>306</ele>
        <time>2021-07-29T11:00:06Z</time>
      </trkpt>
      <trkpt lat="43.52716" lon="1.09602">
        <ele>307</ele>
        <time>2021-07-29T11:00:13Z</time>
      </trkpt>
      <trkpt lat="43.52713" lon="1.09613">
        <ele>308</ele>
        <time>2021-07-29T11:00:20Z</time>
      </trkpt>
      <trkpt lat="43.52711" lon="1.09624">
        <ele>308</ele>
        <time>2021-07-29T11:00:27Z</time>
      </trkpt>
      <trkpt lat="43.52708" lon="1.09635">
        <ele>308</ele>
        <time>2021-07-29T11:00:34Z</time>
      </trkpt>
      <trkpt lat="43.52704" lon="1.09645">
        <ele>309</ele>
        <time>2021-07-29T11:00:41Z</time>
      </trkpt>
      <trkpt lat="43.52702" lon="1.09657">
        <ele>310</ele>
        <time>2021-07-29T11:00:48Z</time>
      </trkpt>
      <trkpt lat="43.527" lon="1.09667">
        <ele>311</ele>
        <time>2021-07-29T11:00:55Z</time>
      </trkpt>
      <trkpt lat="43.52699" lon="1.09679">
        <ele>310</ele>
        <time>2021-07-29T11:01:03Z</time>
      </trkpt>
      <trkpt lat="43.52695" lon="1.09688">
        <ele>311</ele>
        <time>2021-07-29T11:01:09Z</time>
      </trkpt>
      <trkpt lat="43.52693" lon="1.097">
        <ele>311</ele>
        <time>2021-07-29T11:01:17Z</time>
      </trkpt>
      <trkpt lat="43.52691" lon="1.09711">
        <ele>311</ele>
        <time>2021-07-29T11:01:24Z</time>
      </trkpt>
      <trkpt lat="43.5269" lon="1.09724">
        <ele>312</ele>
        <time>2021-07-29T11:01:31Z</time>
      </trkpt>
      <trkpt lat="43.52689" lon="1.09735">
        <ele>312</ele>
        <time>2021-07-29T11:01:38Z</time>
      </trkpt>
      <trkpt lat="43.52686" lon="1.09746">
        <ele>313</ele>
        <time>2021-07-29T11:01:46Z</time>
      </trkpt>
      <trkpt lat="43.52684" lon="1.09758">
        <ele>313</ele>
        <time>2021-07-29T11:01:53Z</time>
      </trkpt>
      <trkpt lat="43.52683" lon="1.09769">
        <ele>313</ele>
        <time>2021-07-29T11:02:05Z</time>
      </trkpt>
      <trkpt lat="43.52679" lon="1.09781">
        <ele>312</ele>
        <time>2021-07-29T11:02:12Z</time>
      </trkpt>
      <trkpt lat="43.52677" lon="1.09791">
        <ele>312</ele>
        <time>2021-07-29T11:02:18Z</time>
      </trkpt>
      <trkpt lat="43.52672" lon="1.09801">
        <ele>313</ele>
        <time>2021-07-29T11:02:25Z</time>
      </trkpt>
      <trkpt lat="43.52672" lon="1.09812">
        <ele>314</ele>
        <time>2021-07-29T11:02:38Z</time>
      </trkpt>
      <trkpt lat="43.52674" lon="1.09823">
        <ele>314</ele>
        <time>2021-07-29T11:02:45Z</time>
      </trkpt>
      <trkpt lat="43.52675" lon="1.09835">
        <ele>313</ele>
        <time>2021-07-29T11:02:52Z</time>
      </trkpt>
      <trkpt lat="43.52675" lon="1.09846">
        <ele>314</ele>
        <time>2021-07-29T11:02:59Z</time>
      </trkpt>
      <trkpt lat="43.52674" lon="1.09858">
        <ele>314</ele>
        <time>2021-07-29T11:03:06Z</time>
      </trkpt>
      <trkpt lat="43.52673" lon="1.0987">
        <ele>314</ele>
        <time>2021-07-29T11:03:13Z</time>
      </trkpt>
      <trkpt lat="43.52674" lon="1.09882">
        <ele>314</ele>
        <time>2021-07-29T11:03:30Z</time>
      </trkpt>
      <trkpt lat="43.52675" lon="1.09893">
        <ele>312</ele>
        <time>2021-07-29T11:03:36Z</time>
      </trkpt>
      <trkpt lat="43.52676" lon="1.09905">
        <ele>313</ele>
        <time>2021-07-29T11:03:43Z</time>
      </trkpt>
      <trkpt lat="43.52677" lon="1.09917">
        <ele>312</ele>
        <time>2021-07-29T11:03:50Z</time>
      </trkpt>
      <trkpt lat="43.52677" lon="1.09928">
        <ele>313</ele>
        <time>2021-07-29T11:03:56Z</time>
      </trkpt>
      <trkpt lat="43.52677" lon="1.09939">
        <ele>313</ele>
        <time>2021-07-29T11:04:03Z</time>
      </trkpt>
      <trkpt lat="43.52678" lon="1.09951">
        <ele>312</ele>
        <time>2021-07-29T11:04:10Z</time>
      </trkpt>
      <trkpt lat="43.52678" lon="1.09962">
        <ele>311</ele>
        <time>2021-07-29T11:04:17Z</time>
      </trkpt>
      <trkpt lat="43.52679" lon="1.09975">
        <ele>312</ele>
        <time>2021-07-29T11:04:24Z</time>
      </trkpt>
      <trkpt lat="43.52678" lon="1.09986">
        <ele>313</ele>
        <time>2021-07-29T11:05:09Z</time>
      </trkpt>
      <trkpt lat="43.52678" lon="1.09998">
        <ele>313</ele>
        <time>2021-07-29T11:05:16Z</time>
      </trkpt>
      <trkpt lat="43.52678" lon="1.10009">
        <ele>312</ele>
        <time>2021-07-29T11:05:23Z</time>
      </trkpt>
      <trkpt lat="43.5268" lon="1.10021">
        <ele>311</ele>
        <time>2021-07-29T11:05:29Z</time>
      </trkpt>
      <trkpt lat="43.5268" lon="1.10032">
        <ele>310</ele>
        <time>2021-07-29T11:05:35Z</time>
      </trkpt>
      <trkpt lat="43.52679" lon="1.10043">
        <ele>310</ele>
        <time>2021-07-29T11:05:41Z</time>
      </trkpt>
      <trkpt lat="43.52681" lon="1.10054">
        <ele>311</ele>
        <time>2021-07-29T11:05:48Z</time>
      </trkpt>
      <trkpt lat="43.5268" lon="1.10065">
        <ele>310</ele>
        <time>2021-07-29T11:05:55Z</time>
      </trkpt>
      <trkpt lat="43.5268" lon="1.10076">
        <ele>310</ele>
        <time>2021-07-29T11:06:01Z</time>
      </trkpt>
      <trkpt lat="43.5268" lon="1.10088">
        <ele>309</ele>
        <time>2021-07-29T11:06:09Z</time>
      </trkpt>
      <trkpt lat="43.5268" lon="1.10099">
        <ele>310</ele>
        <time>2021-07-29T11:06:15Z</time>
      </trkpt>
      <trkpt lat="43.52679" lon="1.10111">
        <ele>310</ele>
        <time>2021-07-29T11:06:22Z</time>
      </trkpt>
      <trkpt lat="43.52681" lon="1.10123">
        <ele>308</ele>
        <time>2021-07-29T11:06:29Z</time>
      </trkpt>
      <trkpt lat="43.52681" lon="1.10135">
        <ele>309</ele>
        <time>2021-07-29T11:06:38Z</time>
      </trkpt>
      <trkpt lat="43.52679" lon="1.10146">
        <ele>308</ele>
        <time>2021-07-29T11:06:46Z</time>
      </trkpt>
      <trkpt lat="43.52678" lon="1.10156">
        <ele>308</ele>
        <time>2021-07-29T11:06:52Z</time>
      </trkpt>
      <trkpt lat="43.52677" lon="1.10167">
        <ele>309</ele>
        <time>2021-07-29T11:06:57Z</time>
      </trkpt>
      <trkpt lat="43.52676" lon="1.10179">
        <ele>310</ele>
        <time>2021-07-29T11:07:04Z</time>
      </trkpt>
      <trkpt lat="43.52675" lon="1.10191">
        <ele>309</ele>
        <time>2021-07-29T11:07:11Z</time>
      </trkpt>
      <trkpt lat="43.52675" lon="1.10202">
        <ele>309</ele>
        <time>2021-07-29T11:07:19Z</time>
      </trkpt>
      <trkpt lat="43.52674" lon="1.10214">
        <ele>309</ele>
        <time>2021-07-29T11:07:26Z</time>
      </trkpt>
      <trkpt lat="43.52673" lon="1.10226">
        <ele>309</ele>
        <time>2021-07-29T11:07:33Z</time>
      </trkpt>
      <trkpt lat="43.52671" lon="1.10237">
        <ele>308</ele>
        <time>2021-07-29T11:07:39Z</time>
      </trkpt>
      <trkpt lat="43.52668" lon="1.10248">
        <ele>307</ele>
        <time>2021-07-29T11:07:45Z</time>
      </trkpt>
      <trkpt lat="43.52664" lon="1.10259">
        <ele>308</ele>
        <time>2021-07-29T11:07:52Z</time>
      </trkpt>
      <trkpt lat="43.52662" lon="1.1027">
        <ele>307</ele>
        <time>2021-07-29T11:07:58Z</time>
      </trkpt>
      <trkpt lat="43.52659" lon="1.1028">
        <ele>308</ele>
        <time>2021-07-29T11:08:04Z</time>
      </trkpt>
      <trkpt lat="43.52656" lon="1.10291">
        <ele>308</ele>
        <time>2021-07-29T11:08:10Z</time>
      </trkpt>
      <trkpt lat="43.52654" lon="1.10302">
        <ele>309</ele>
        <time>2021-07-29T11:08:17Z</time>
      </trkpt>
      <trkpt lat="43.52652" lon="1.10313">
        <ele>310</ele>
        <time>2021-07-29T11:08:24Z</time>
      </trkpt>
      <trkpt lat="43.5265" lon="1.10325">
        <ele>308</ele>
        <time>2021-07-29T11:08:30Z</time>
      </trkpt>
      <trkpt lat="43.52649" lon="1.10336">
        <ele>309</ele>
        <time>2021-07-29T11:08:36Z</time>
      </trkpt>
      <trkpt lat="43.52647" lon="1.10348">
        <ele>310</ele>
        <time>2021-07-29T11:08:43Z</time>
      </trkpt>
      <trkpt lat="43.52646" lon="1.10358">
        <ele>310</ele>
        <time>2021-07-29T11:08:49Z</time>
      </trkpt>
      <trkpt lat="43.52644" lon="1.10369">
        <ele>309</ele>
        <time>2021-07-29T11:08:55Z</time>
      </trkpt>
      <trkpt lat="43.52643" lon="1.1038">
        <ele>308</ele>
        <time>2021-07-29T11:09:01Z</time>
      </trkpt>
      <trkpt lat="43.52643" lon="1.10392">
        <ele>307</ele>
        <time>2021-07-29T11:09:08Z</time>
      </trkpt>
      <trkpt lat="43.52642" lon="1.10402">
        <ele>308</ele>
        <time>2021-07-29T11:09:14Z</time>
      </trkpt>
      <trkpt lat="43.5264" lon="1.10413">
        <ele>307</ele>
        <time>2021-07-29T11:09:20Z</time>
      </trkpt>
      <trkpt lat="43.5264" lon="1.10424">
        <ele>307</ele>
        <time>2021-07-29T11:09:27Z</time>
      </trkpt>
      <trkpt lat="43.52641" lon="1.10436">
        <ele>306</ele>
        <time>2021-07-29T11:09:34Z</time>
      </trkpt>
      <trkpt lat="43.52641" lon="1.10447">
        <ele>305</ele>
        <time>2021-07-29T11:09:41Z</time>
      </trkpt>
      <trkpt lat="43.52641" lon="1.10458">
        <ele>305</ele>
        <time>2021-07-29T11:09:47Z</time>
      </trkpt>
      <trkpt lat="43.52643" lon="1.10468">
        <ele>305</ele>
        <time>2021-07-29T11:09:52Z</time>
      </trkpt>
      <trkpt lat="43.52642" lon="1.1048">
        <ele>305</ele>
        <time>2021-07-29T11:09:58Z</time>
      </trkpt>
      <trkpt lat="43.52642" lon="1.10492">
        <ele>305</ele>
        <time>2021-07-29T11:10:05Z</time>
      </trkpt>
      <trkpt lat="43.52643" lon="1.10504">
        <ele>307</ele>
        <time>2021-07-29T11:10:12Z</time>
      </trkpt>
      <trkpt lat="43.52646" lon="1.10514">
        <ele>305</ele>
        <time>2021-07-29T11:10:17Z</time>
      </trkpt>
      <trkpt lat="43.52649" lon="1.10526">
        <ele>304</ele>
        <time>2021-07-29T11:10:23Z</time>
      </trkpt>
      <trkpt lat="43.5265" lon="1.10536">
        <ele>304</ele>
        <time>2021-07-29T11:10:29Z</time>
      </trkpt>
      <trkpt lat="43.52652" lon="1.10547">
        <ele>305</ele>
        <time>2021-07-29T11:10:36Z</time>
      </trkpt>
      <trkpt lat="43.52651" lon="1.10559">
        <ele>306</ele>
        <time>2021-07-29T11:10:42Z</time>
      </trkpt>
      <trkpt lat="43.52652" lon="1.1057">
        <ele>306</ele>
        <time>2021-07-29T11:10:48Z</time>
      </trkpt>
      <trkpt lat="43.52654" lon="1.10582">
        <ele>306</ele>
        <time>2021-07-29T11:10:55Z</time>
      </trkpt>
      <trkpt lat="43.52655" lon="1.10594">
        <ele>307</ele>
        <time>2021-07-29T11:11:02Z</time>
      </trkpt>
      <trkpt lat="43.52657" lon="1.10605">
        <ele>308</ele>
        <time>2021-07-29T11:11:08Z</time>
      </trkpt>
      <trkpt lat="43.5266" lon="1.10614">
        <ele>308</ele>
        <time>2021-07-29T11:11:14Z</time>
      </trkpt>
      <trkpt lat="43.52662" lon="1.10625">
        <ele>307</ele>
        <time>2021-07-29T11:11:20Z</time>
      </trkpt>
      <trkpt lat="43.52665" lon="1.10636">
        <ele>307</ele>
        <time>2021-07-29T11:11:26Z</time>
      </trkpt>
      <trkpt lat="43.52667" lon="1.10648">
        <ele>307</ele>
        <time>2021-07-29T11:11:33Z</time>
      </trkpt>
      <trkpt lat="43.52671" lon="1.10658">
        <ele>306</ele>
        <time>2021-07-29T11:11:39Z</time>
      </trkpt>
      <trkpt lat="43.52675" lon="1.10667">
        <ele>305</ele>
        <time>2021-07-29T11:11:45Z</time>
      </trkpt>
      <trkpt lat="43.52679" lon="1.10678">
        <ele>305</ele>
        <time>2021-07-29T11:11:51Z</time>
      </trkpt>
      <trkpt lat="43.52682" lon="1.10689">
        <ele>303</ele>
        <time>2021-07-29T11:11:58Z</time>
      </trkpt>
      <trkpt lat="43.52685" lon="1.10699">
        <ele>304</ele>
        <time>2021-07-29T11:12:05Z</time>
      </trkpt>
      <trkpt lat="43.52689" lon="1.1071">
        <ele>304</ele>
        <time>2021-07-29T11:12:12Z</time>
      </trkpt>
      <trkpt lat="43.52692" lon="1.10721">
        <ele>304</ele>
        <time>2021-07-29T11:12:19Z</time>
      </trkpt>
      <trkpt lat="43.52694" lon="1.10732">
        <ele>305</ele>
        <time>2021-07-29T11:12:25Z</time>
      </trkpt>
      <trkpt lat="43.52699" lon="1.10742">
        <ele>303</ele>
        <time>2021-07-29T11:12:32Z</time>
      </trkpt>
      <trkpt lat="43.52702" lon="1.10752">
        <ele>303</ele>
        <time>2021-07-29T11:12:38Z</time>
      </trkpt>
      <trkpt lat="43.52704" lon="1.10762">
        <ele>305</ele>
        <time>2021-07-29T11:12:44Z</time>
      </trkpt>
      <trkpt lat="43.52706" lon="1.10773">
        <ele>305</ele>
        <time>2021-07-29T11:12:50Z</time>
      </trkpt>
      <trkpt lat="43.52709" lon="1.10783">
        <ele>306</ele>
        <time>2021-07-29T11:12:55Z</time>
      </trkpt>
      <trkpt lat="43.52713" lon="1.10793">
        <ele>307</ele>
        <time>2021-07-29T11:13:01Z</time>
      </trkpt>
      <trkpt lat="43.52717" lon="1.10803">
        <ele>306</ele>
        <time>2021-07-29T11:13:07Z</time>
      </trkpt>
      <trkpt lat="43.52722" lon="1.10812">
        <ele>305</ele>
        <time>2021-07-29T11:13:14Z</time>
      </trkpt>
      <trkpt lat="43.52727" lon="1.10821">
        <ele>305</ele>
        <time>2021-07-29T11:13:21Z</time>
      </trkpt>
      <trkpt lat="43.52734" lon="1.10828">
        <ele>303</ele>
        <time>2021-07-29T11:13:27Z</time>
      </trkpt>
      <trkpt lat="43.52739" lon="1.10837">
        <ele>303</ele>
        <time>2021-07-29T11:13:33Z</time>
      </trkpt>
      <trkpt lat="43.52745" lon="1.10846">
        <ele>302</ele>
        <time>2021-07-29T11:13:39Z</time>
      </trkpt>
      <trkpt lat="43.5275" lon="1.10855">
        <ele>303</ele>
        <time>2021-07-29T11:13:46Z</time>
      </trkpt>
      <trkpt lat="43.52756" lon="1.10862">
        <ele>302</ele>
        <time>2021-07-29T11:13:52Z</time>
      </trkpt>
      <trkpt lat="43.52762" lon="1.1087">
        <ele>302</ele>
        <time>2021-07-29T11:13:59Z</time>
      </trkpt>
      <trkpt lat="43.52768" lon="1.10878">
        <ele>301</ele>
        <time>2021-07-29T11:14:05Z</time>
      </trkpt>
      <trkpt lat="43.52773" lon="1.10887">
        <ele>303</ele>
        <time>2021-07-29T11:14:12Z</time>
      </trkpt>
      <trkpt lat="43.52778" lon="1.10896">
        <ele>304</ele>
        <time>2021-07-29T11:14:19Z</time>
      </trkpt>
      <trkpt lat="43.52782" lon="1.10906">
        <ele>303</ele>
        <time>2021-07-29T11:14:25Z</time>
      </trkpt>
      <trkpt lat="43.52787" lon="1.10915">
        <ele>304</ele>
        <time>2021-07-29T11:14:31Z</time>
      </trkpt>
      <trkpt lat="43.52789" lon="1.10926">
        <ele>304</ele>
        <time>2021-07-29T11:14:37Z</time>
      </trkpt>
      <trkpt lat="43.5279" lon="1.10937">
        <ele>306</ele>
        <time>2021-07-29T11:14:43Z</time>
      </trkpt>
      <trkpt lat="43.52791" lon="1.10948">
        <ele>306</ele>
        <time>2021-07-29T11:14:50Z</time>
      </trkpt>
      <trkpt lat="43.5279" lon="1.1096">
        <ele>306</ele>
        <time>2021-07-29T11:15:29Z</time>
      </trkpt>
      <trkpt lat="43.52782" lon="1.10958">
        <ele>307</ele>
        <time>2021-07-29T11:15:35Z</time>
      </trkpt>
      <trkpt lat="43.52774" lon="1.10958">
        <ele>306</ele>
        <time>2021-07-29T11:15:41Z</time>
      </trkpt>
      <trkpt lat="43.52765" lon="1.10961">
        <ele>305</ele>
        <time>2021-07-29T11:15:48Z</time>
      </trkpt>
      <trkpt lat="43.52757" lon="1.10963">
        <ele>305</ele>
        <time>2021-07-29T11:15:55Z</time>
      </trkpt>
      <trkpt lat="43.52749" lon="1.10964">
        <ele>306</ele>
        <time>2021-07-29T11:16:01Z</time>
      </trkpt>
      <trkpt lat="43.5274" lon="1.10966">
        <ele>307</ele>
        <time>2021-07-29T11:16:08Z</time>
      </trkpt>
      <trkpt lat="43.52732" lon="1.10969">
        <ele>306</ele>
        <time>2021-07-29T11:16:15Z</time>
      </trkpt>
      <trkpt lat="43.52724" lon="1.1097">
        <ele>306</ele>
        <time>2021-07-29T11:16:21Z</time>
      </trkpt>
      <trkpt lat="43.52716" lon="1.10973">
        <ele>305</ele>
        <time>2021-07-29T11:16:28Z</time>
      </trkpt>
      <trkpt lat="43.52708" lon="1.10977">
        <ele>306</ele>
        <time>2021-07-29T11:16:36Z</time>
      </trkpt>
      <trkpt lat="43.527" lon="1.10979">
        <ele>306</ele>
        <time>2021-07-29T11:16:42Z</time>
      </trkpt>
      <trkpt lat="43.52692" lon="1.10982">
        <ele>307</ele>
        <time>2021-07-29T11:16:49Z</time>
      </trkpt>
      <trkpt lat="43.52684" lon="1.10986">
        <ele>307</ele>
        <time>2021-07-29T11:16:56Z</time>
      </trkpt>
      <trkpt lat="43.52675" lon="1.10988">
        <ele>308</ele>
        <time>2021-07-29T11:17:02Z</time>
      </trkpt>
      <trkpt lat="43.52667" lon="1.10989">
        <ele>308</ele>
        <time>2021-07-29T11:17:09Z</time>
      </trkpt>
      <trkpt lat="43.52659" lon="1.10993">
        <ele>307</ele>
        <time>2021-07-29T11:17:16Z</time>
      </trkpt>
      <trkpt lat="43.52651" lon="1.10998">
        <ele>308</ele>
        <time>2021-07-29T11:17:24Z</time>
      </trkpt>
      <trkpt lat="43.52644" lon="1.11003">
        <ele>308</ele>
        <time>2021-07-29T11:17:31Z</time>
      </trkpt>
      <trkpt lat="43.52636" lon="1.11006">
        <ele>310</ele>
        <time>2021-07-29T11:17:39Z</time>
      </trkpt>
      <trkpt lat="43.52627" lon="1.11007">
        <ele>310</ele>
        <time>2021-07-29T11:17:47Z</time>
      </trkpt>
      <trkpt lat="43.52621" lon="1.11013">
        <ele>309</ele>
        <time>2021-07-29T11:17:53Z</time>
      </trkpt>
      <trkpt lat="43.52616" lon="1.11023">
        <ele>308</ele>
        <time>2021-07-29T11:17:59Z</time>
      </trkpt>
      <trkpt lat="43.52615" lon="1.11035">
        <ele>305</ele>
        <time>2021-07-29T11:18:06Z</time>
      </trkpt>
      <trkpt lat="43.52615" lon="1.11047">
        <ele>303</ele>
        <time>2021-07-29T11:18:14Z</time>
      </trkpt>
      <trkpt lat="43.52611" lon="1.11057">
        <ele>303</ele>
        <time>2021-07-29T11:18:22Z</time>
      </trkpt>
      <trkpt lat="43.52605" lon="1.11065">
        <ele>305</ele>
        <time>2021-07-29T11:18:29Z</time>
      </trkpt>
      <trkpt lat="43.52599" lon="1.11073">
        <ele>305</ele>
        <time>2021-07-29T11:18:35Z</time>
      </trkpt>
      <trkpt lat="43.52594" lon="1.11082">
        <ele>306</ele>
        <time>2021-07-29T11:18:42Z</time>
      </trkpt>
      <trkpt lat="43.52588" lon="1.11089">
        <ele>306</ele>
        <time>2021-07-29T11:18:47Z</time>
      </trkpt>
      <trkpt lat="43.52581" lon="1.11095">
        <ele>307</ele>
        <time>2021-07-29T11:18:52Z</time>
      </trkpt>
      <trkpt lat="43.52575" lon="1.11104">
        <ele>306</ele>
        <time>2021-07-29T11:18:59Z</time>
      </trkpt>
      <trkpt lat="43.5257" lon="1.11114">
        <ele>309</ele>
        <time>2021-07-29T11:19:07Z</time>
      </trkpt>
      <trkpt lat="43.52565" lon="1.11123">
        <ele>309</ele>
        <time>2021-07-29T11:19:18Z</time>
      </trkpt>
      <trkpt lat="43.52559" lon="1.11132">
        <ele>309</ele>
        <time>2021-07-29T11:19:25Z</time>
      </trkpt>
      <trkpt lat="43.52555" lon="1.1114">
        <ele>308</ele>
        <time>2021-07-29T11:19:30Z</time>
      </trkpt>
      <trkpt lat="43.5255" lon="1.1115">
        <ele>309</ele>
        <time>2021-07-29T11:19:35Z</time>
      </trkpt>
      <trkpt lat="43.52545" lon="1.11159">
        <ele>308</ele>
        <time>2021-07-29T11:19:41Z</time>
      </trkpt>
      <trkpt lat="43.5254" lon="1.11167">
        <ele>308</ele>
        <time>2021-07-29T11:19:47Z</time>
      </trkpt>
      <trkpt lat="43.52535" lon="1.11175">
        <ele>309</ele>
        <time>2021-07-29T11:19:56Z</time>
      </trkpt>
      <trkpt lat="43.52531" lon="1.11189">
        <ele>305</ele>
        <time>2021-07-29T11:20:01Z</time>
      </trkpt>
      <trkpt lat="43.52525" lon="1.11198">
        <ele>302</ele>
        <time>2021-07-29T11:20:07Z</time>
      </trkpt>
      <trkpt lat="43.52519" lon="1.11207">
        <ele>303</ele>
        <time>2021-07-29T11:20:15Z</time>
      </trkpt>
      <trkpt lat="43.52516" lon="1.11217">
        <ele>303</ele>
        <time>2021-07-29T11:20:22Z</time>
      </trkpt>
      <trkpt lat="43.52511" lon="1.11226">
        <ele>302</ele>
        <time>2021-07-29T11:20:27Z</time>
      </trkpt>
      <trkpt lat="43.52507" lon="1.11236">
        <ele>302</ele>
        <time>2021-07-29T11:20:34Z</time>
      </trkpt>
      <trkpt lat="43.52498" lon="1.11238">
        <ele>301</ele>
        <time>2021-07-29T11:20:46Z</time>
      </trkpt>
      <trkpt lat="43.5249" lon="1.11236">
        <ele>301</ele>
        <time>2021-07-29T11:20:54Z</time>
      </trkpt>
      <trkpt lat="43.52482" lon="1.11237">
        <ele>302</ele>
        <time>2021-07-29T11:21:00Z</time>
      </trkpt>
      <trkpt lat="43.52474" lon="1.1124">
        <ele>301</ele>
        <time>2021-07-29T11:21:08Z</time>
      </trkpt>
      <trkpt lat="43.52466" lon="1.11243">
        <ele>303</ele>
        <time>2021-07-29T11:21:16Z</time>
      </trkpt>
      <trkpt lat="43.52459" lon="1.11243">
        <ele>301</ele>
        <time>2021-07-29T11:21:22Z</time>
      </trkpt>
      <trkpt lat="43.52451" lon="1.11244">
        <ele>300</ele>
        <time>2021-07-29T11:21:29Z</time>
      </trkpt>
      <trkpt lat="43.52442" lon="1.11247">
        <ele>297</ele>
        <time>2021-07-29T11:21:37Z</time>
      </trkpt>
      <trkpt lat="43.52434" lon="1.11249">
        <ele>294</ele>
        <time>2021-07-29T11:21:44Z</time>
      </trkpt>
      <trkpt lat="43.52426" lon="1.1125">
        <ele>291</ele>
        <time>2021-07-29T11:21:51Z</time>
      </trkpt>
      <trkpt lat="43.52417" lon="1.11251">
        <ele>288</ele>
        <time>2021-07-29T11:22:00Z</time>
      </trkpt>
      <trkpt lat="43.52412" lon="1.1126">
        <ele>285</ele>
        <time>2021-07-29T11:22:09Z</time>
      </trkpt>
      <trkpt lat="43.52411" lon="1.11272">
        <ele>282</ele>
        <time>2021-07-29T11:22:16Z</time>
      </trkpt>
      <trkpt lat="43.52409" lon="1.11284">
        <ele>282</ele>
        <time>2021-07-29T11:22:23Z</time>
      </trkpt>
      <trkpt lat="43.52408" lon="1.11294">
        <ele>282</ele>
        <time>2021-07-29T11:22:30Z</time>
      </trkpt>
      <trkpt lat="43.52408" lon="1.11305">
        <ele>281</ele>
        <time>2021-07-29T11:22:36Z</time>
      </trkpt>
      <trkpt lat="43.52414" lon="1.11314">
        <ele>279</ele>
        <time>2021-07-29T11:22:43Z</time>
      </trkpt>
      <trkpt lat="43.52421" lon="1.11322">
        <ele>279</ele>
        <time>2021-07-29T11:22:49Z</time>
      </trkpt>
      <trkpt lat="43.52425" lon="1.1133">
        <ele>278</ele>
        <time>2021-07-29T11:22:56Z</time>
      </trkpt>
      <trkpt lat="43.5243" lon="1.11339">
        <ele>281</ele>
        <time>2021-07-29T11:23:12Z</time>
      </trkpt>
      <trkpt lat="43.52433" lon="1.11351">
        <ele>282</ele>
        <time>2021-07-29T11:23:21Z</time>
      </trkpt>
      <trkpt lat="43.52433" lon="1.11362">
        <ele>281</ele>
        <time>2021-07-29T11:23:28Z</time>
      </trkpt>
      <trkpt lat="43.52436" lon="1.11373">
        <ele>281</ele>
        <time>2021-07-29T11:23:36Z</time>
      </trkpt>
      <trkpt lat="43.5244" lon="1.11384">
        <ele>282</ele>
        <time>2021-07-29T11:23:41Z</time>
      </trkpt>
      <trkpt lat="43.52443" lon="1.11395">
        <ele>282</ele>
        <time>2021-07-29T11:23:47Z</time>
      </trkpt>
      <trkpt lat="43.52446" lon="1.11406">
        <ele>283</ele>
        <time>2021-07-29T11:23:55Z</time>
      </trkpt>
      <trkpt lat="43.52446" lon="1.11417">
        <ele>282</ele>
        <time>2021-07-29T11:24:02Z</time>
      </trkpt>
      <trkpt lat="43.52445" lon="1.11429">
        <ele>282</ele>
        <time>2021-07-29T11:24:08Z</time>
      </trkpt>
      <trkpt lat="43.52448" lon="1.11439">
        <ele>283</ele>
        <time>2021-07-29T11:24:14Z</time>
      </trkpt>
      <trkpt lat="43.52449" lon="1.11448">
        <ele>281</ele>
        <time>2021-07-29T11:24:23Z</time>
      </trkpt>
      <trkpt lat="43.52451" lon="1.1146">
        <ele>278</ele>
        <time>2021-07-29T11:24:32Z</time>
      </trkpt>
      <trkpt lat="43.52453" lon="1.11471">
        <ele>275</ele>
        <time>2021-07-29T11:24:41Z</time>
      </trkpt>
      <trkpt lat="43.52456" lon="1.11481">
        <ele>274</ele>
        <time>2021-07-29T11:24:49Z</time>
      </trkpt>
      <trkpt lat="43.5246" lon="1.11491">
        <ele>272</ele>
        <time>2021-07-29T11:24:57Z</time>
      </trkpt>
      <trkpt lat="43.52463" lon="1.11502">
        <ele>272</ele>
        <time>2021-07-29T11:25:06Z</time>
      </trkpt>
      <trkpt lat="43.52466" lon="1.11511">
        <ele>272</ele>
        <time>2021-07-29T11:25:13Z</time>
      </trkpt>
      <trkpt lat="43.5247" lon="1.11522">
        <ele>270</ele>
        <time>2021-07-29T11:25:20Z</time>
      </trkpt>
      <trkpt lat="43.52472" lon="1.11534">
        <ele>267</ele>
        <time>2021-07-29T11:25:28Z</time>
      </trkpt>
      <trkpt lat="43.52469" lon="1.11546">
        <ele>267</ele>
        <time>2021-07-29T11:25:35Z</time>
      </trkpt>
      <trkpt lat="43.52464" lon="1.11553">
        <ele>268</ele>
        <time>2021-07-29T11:25:42Z</time>
      </trkpt>
      <trkpt lat="43.52459" lon="1.11562">
        <ele>268</ele>
        <time>2021-07-29T11:25:49Z</time>
      </trkpt>
      <trkpt lat="43.52454" lon="1.1157">
        <ele>269</ele>
        <time>2021-07-29T11:25:56Z</time>
      </trkpt>
      <trkpt lat="43.5245" lon="1.11581">
        <ele>267</ele>
        <time>2021-07-29T11:26:02Z</time>
      </trkpt>
      <trkpt lat="43.52446" lon="1.11592">
        <ele>269</ele>
        <time>2021-07-29T11:26:09Z</time>
      </trkpt>
      <trkpt lat="43.52445" lon="1.11604">
        <ele>265</ele>
        <time>2021-07-29T11:26:16Z</time>
      </trkpt>
      <trkpt lat="43.52443" lon="1.11615">
        <ele>263</ele>
        <time>2021-07-29T11:26:23Z</time>
      </trkpt>
      <trkpt lat="43.52443" lon="1.11626">
        <ele>261</ele>
        <time>2021-07-29T11:26:31Z</time>
      </trkpt>
      <trkpt lat="43.52446" lon="1.11638">
        <ele>258</ele>
        <time>2021-07-29T11:26:37Z</time>
      </trkpt>
      <trkpt lat="43.52449" lon="1.11649">
        <ele>257</ele>
        <time>2021-07-29T11:26:43Z</time>
      </trkpt>
      <trkpt lat="43.52447" lon="1.1166">
        <ele>258</ele>
        <time>2021-07-29T11:26:50Z</time>
      </trkpt>
      <trkpt lat="43.52442" lon="1.1167">
        <ele>259</ele>
        <time>2021-07-29T11:26:58Z</time>
      </trkpt>
      <trkpt lat="43.52436" lon="1.11677">
        <ele>260</ele>
        <time>2021-07-29T11:27:06Z</time>
      </trkpt>
      <trkpt lat="43.52428" lon="1.1168">
        <ele>259</ele>
        <time>2021-07-29T11:27:15Z</time>
      </trkpt>
      <trkpt lat="43.52419" lon="1.11682">
        <ele>256</ele>
        <time>2021-07-29T11:27:22Z</time>
      </trkpt>
      <trkpt lat="43.5241" lon="1.11681">
        <ele>258</ele>
        <time>2021-07-29T11:27:29Z</time>
      </trkpt>
      <trkpt lat="43.52402" lon="1.11681">
        <ele>259</ele>
        <time>2021-07-29T11:27:35Z</time>
      </trkpt>
      <trkpt lat="43.52395" lon="1.11686">
        <ele>258</ele>
        <time>2021-07-29T11:27:41Z</time>
      </trkpt>
      <trkpt lat="43.52389" lon="1.11695">
        <ele>257</ele>
        <time>2021-07-29T11:27:49Z</time>
      </trkpt>
      <trkpt lat="43.52386" lon="1.11705">
        <ele>256</ele>
        <time>2021-07-29T11:27:58Z</time>
      </trkpt>
      <trkpt lat="43.52379" lon="1.11712">
        <ele>256</ele>
        <time>2021-07-29T11:28:07Z</time>
      </trkpt>
      <trkpt lat="43.52371" lon="1.11717">
        <ele>256</ele>
        <time>2021-07-29T11:28:14Z</time>
      </trkpt>
      <trkpt lat="43.52366" lon="1.11724">
        <ele>256</ele>
        <time>2021-07-29T11:28:20Z</time>
      </trkpt>
      <trkpt lat="43.52363" lon="1.11734">
        <ele>257</ele>
        <time>2021-07-29T11:28:26Z</time>
      </trkpt>
      <trkpt lat="43.52359" lon="1.11744">
        <ele>259</ele>
        <time>2021-07-29T11:28:32Z</time>
      </trkpt>
      <trkpt lat="43.52356" lon="1.11754">
        <ele>256</ele>
        <time>2021-07-29T11:28:40Z</time>
      </trkpt>
      <trkpt lat="43.52349" lon="1.11746">
        <ele>255</ele>
        <time>2021-07-29T11:28:53Z</time>
      </trkpt>
      <trkpt lat="43.52343" lon="1.11737">
        <ele>255</ele>
        <time>2021-07-29T11:29:01Z</time>
      </trkpt>
      <trkpt lat="43.52337" lon="1.1173">
        <ele>255</ele>
        <time>2021-07-29T11:29:07Z</time>
      </trkpt>
      <trkpt lat="43.5233" lon="1.11724">
        <ele>255</ele>
        <time>2021-07-29T11:29:14Z</time>
      </trkpt>
      <trkpt lat="43.52324" lon="1.11715">
        <ele>255</ele>
        <time>2021-07-29T11:29:20Z</time>
      </trkpt>
      <trkpt lat="43.52319" lon="1.11708">
        <ele>255</ele>
        <time>2021-07-29T11:29:25Z</time>
      </trkpt>
      <trkpt lat="43.52314" lon="1.11698">
        <ele>257</ele>
        <time>2021-07-29T11:29:32Z</time>
      </trkpt>
      <trkpt lat="43.52309" lon="1.1169">
        <ele>259</ele>
        <time>2021-07-29T11:29:39Z</time>
      </trkpt>
      <trkpt lat="43.52304" lon="1.1168">
        <ele>259</ele>
        <time>2021-07-29T11:29:44Z</time>
      </trkpt>
      <trkpt lat="43.52299" lon="1.11672">
        <ele>259</ele>
        <time>2021-07-29T11:29:49Z</time>
      </trkpt>
      <trkpt lat="43.52294" lon="1.11664">
        <ele>260</ele>
        <time>2021-07-29T11:29:57Z</time>
      </trkpt>
      <trkpt lat="43.52288" lon="1.11655">
        <ele>259</ele>
        <time>2021-07-29T11:30:07Z</time>
      </trkpt>
      <trkpt lat="43.52282" lon="1.11649">
        <ele>259</ele>
        <time>2021-07-29T11:30:12Z</time>
      </trkpt>
      <trkpt lat="43.52274" lon="1.11644">
        <ele>259</ele>
        <time>2021-07-29T11:30:20Z</time>
      </trkpt>
      <trkpt lat="43.52265" lon="1.11642">
        <ele>258</ele>
        <time>2021-07-29T11:30:25Z</time>
      </trkpt>
      <trkpt lat="43.52258" lon="1.11637">
        <ele>259</ele>
        <time>2021-07-29T11:30:35Z</time>
      </trkpt>
      <trkpt lat="43.52255" lon="1.1163">
        <ele>261</ele>
        <time>2021-07-29T11:30:43Z</time>
      </trkpt>
      <trkpt lat="43.52252" lon="1.11618">
        <ele>261</ele>
        <time>2021-07-29T11:30:48Z</time>
      </trkpt>
      <trkpt lat="43.52248" lon="1.11607">
        <ele>262</ele>
        <time>2021-07-29T11:30:54Z</time>
      </trkpt>
      <trkpt lat="43.52245" lon="1.11598">
        <ele>261</ele>
        <time>2021-07-29T11:30:59Z</time>
      </trkpt>
      <trkpt lat="43.52239" lon="1.1159">
        <ele>259</ele>
        <time>2021-07-29T11:31:05Z</time>
      </trkpt>
      <trkpt lat="43.52233" lon="1.11582">
        <ele>259</ele>
        <time>2021-07-29T11:31:12Z</time>
      </trkpt>
      <trkpt lat="43.52229" lon="1.11572">
        <ele>260</ele>
        <time>2021-07-29T11:31:22Z</time>
      </trkpt>
      <trkpt lat="43.52223" lon="1.11565">
        <ele>260</ele>
        <time>2021-07-29T11:31:28Z</time>
      </trkpt>
      <trkpt lat="43.52218" lon="1.11555">
        <ele>260</ele>
        <time>2021-07-29T11:31:34Z</time>
      </trkpt>
      <trkpt lat="43.52213" lon="1.11547">
        <ele>263</ele>
        <time>2021-07-29T11:31:41Z</time>
      </trkpt>
      <trkpt lat="43.52207" lon="1.11538">
        <ele>264</ele>
        <time>2021-07-29T11:31:49Z</time>
      </trkpt>
      <trkpt lat="43.522" lon="1.11532">
        <ele>263</ele>
        <time>2021-07-29T11:31:57Z</time>
      </trkpt>
      <trkpt lat="43.52196" lon="1.11524">
        <ele>264</ele>
        <time>2021-07-29T11:32:04Z</time>
      </trkpt>
      <trkpt lat="43.52191" lon="1.11515">
        <ele>265</ele>
        <time>2021-07-29T11:32:10Z</time>
      </trkpt>
      <trkpt lat="43.52183" lon="1.11508">
        <ele>262</ele>
        <time>2021-07-29T11:32:17Z</time>
      </trkpt>
      <trkpt lat="43.52181" lon="1.11498">
        <ele>261</ele>
        <time>2021-07-29T11:32:27Z</time>
      </trkpt>
      <trkpt lat="43.52176" lon="1.1149">
        <ele>258</ele>
        <time>2021-07-29T11:32:33Z</time>
      </trkpt>
      <trkpt lat="43.52174" lon="1.11478">
        <ele>258</ele>
        <time>2021-07-29T11:32:39Z</time>
      </trkpt>
      <trkpt lat="43.52172" lon="1.11467">
        <ele>259</ele>
        <time>2021-07-29T11:32:45Z</time>
      </trkpt>
      <trkpt lat="43.5217" lon="1.11456">
        <ele>260</ele>
        <time>2021-07-29T11:32:51Z</time>
      </trkpt>
      <trkpt lat="43.52166" lon="1.11445">
        <ele>261</ele>
        <time>2021-07-29T11:33:01Z</time>
      </trkpt>
      <trkpt lat="43.52164" lon="1.11437">
        <ele>262</ele>
        <time>2021-07-29T11:33:07Z</time>
      </trkpt>
      <trkpt lat="43.52163" lon="1.11427">
        <ele>263</ele>
        <time>2021-07-29T11:33:13Z</time>
      </trkpt>
      <trkpt lat="43.5216" lon="1.11417">
        <ele>262</ele>
        <time>2021-07-29T11:33:17Z</time>
      </trkpt>
      <trkpt lat="43.52157" lon="1.11406">
        <ele>262</ele>
        <time>2021-07-29T11:33:23Z</time>
      </trkpt>
      <trkpt lat="43.52155" lon="1.11396">
        <ele>262</ele>
        <time>2021-07-29T11:33:30Z</time>
      </trkpt>
      <trkpt lat="43.52151" lon="1.11385">
        <ele>263</ele>
        <time>2021-07-29T11:33:36Z</time>
      </trkpt>
      <trkpt lat="43.5215" lon="1.11375">
        <ele>264</ele>
        <time>2021-07-29T11:33:42Z</time>
      </trkpt>
      <trkpt lat="43.52148" lon="1.11363">
        <ele>262</ele>
        <time>2021-07-29T11:33:51Z</time>
      </trkpt>
      <trkpt lat="43.52145" lon="1.11352">
        <ele>263</ele>
        <time>2021-07-29T11:33:59Z</time>
      </trkpt>
      <trkpt lat="43.52146" lon="1.11341">
        <ele>265</ele>
        <time>2021-07-29T11:34:07Z</time>
      </trkpt>
      <trkpt lat="43.52143" lon="1.1133">
        <ele>264</ele>
        <time>2021-07-29T11:34:15Z</time>
      </trkpt>
      <trkpt lat="43.52142" lon="1.11318">
        <ele>265</ele>
        <time>2021-07-29T11:34:23Z</time>
      </trkpt>
      <trkpt lat="43.52143" lon="1.11306">
        <ele>266</ele>
        <time>2021-07-29T11:34:31Z</time>
      </trkpt>
      <trkpt lat="43.52142" lon="1.11296">
        <ele>266</ele>
        <time>2021-07-29T11:34:35Z</time>
      </trkpt>
      <trkpt lat="43.52139" lon="1.11285">
        <ele>264</ele>
        <time>2021-07-29T11:34:40Z</time>
      </trkpt>
      <trkpt lat="43.52139" lon="1.11274">
        <ele>263</ele>
        <time>2021-07-29T11:34:46Z</time>
      </trkpt>
      <trkpt lat="43.52139" lon="1.11262">
        <ele>263</ele>
        <time>2021-07-29T11:34:54Z</time>
      </trkpt>
      <trkpt lat="43.52141" lon="1.1125">
        <ele>262</ele>
        <time>2021-07-29T11:35:01Z</time>
      </trkpt>
      <trkpt lat="43.52133" lon="1.11246">
        <ele>259</ele>
        <time>2021-07-29T11:35:16Z</time>
      </trkpt>
      <trkpt lat="43.52124" lon="1.11248">
        <ele>257</ele>
        <time>2021-07-29T11:35:26Z</time>
      </trkpt>
      <trkpt lat="43.52115" lon="1.11247">
        <ele>257</ele>
        <time>2021-07-29T11:35:35Z</time>
      </trkpt>
      <trkpt lat="43.52107" lon="1.11245">
        <ele>258</ele>
        <time>2021-07-29T11:35:47Z</time>
      </trkpt>
      <trkpt lat="43.52099" lon="1.11241">
        <ele>257</ele>
        <time>2021-07-29T11:35:55Z</time>
      </trkpt>
      <trkpt lat="43.52091" lon="1.1124">
        <ele>257</ele>
        <time>2021-07-29T11:36:01Z</time>
      </trkpt>
      <trkpt lat="43.52083" lon="1.11242">
        <ele>256</ele>
        <time>2021-07-29T11:36:07Z</time>
      </trkpt>
      <trkpt lat="43.52075" lon="1.11244">
        <ele>254</ele>
        <time>2021-07-29T11:36:14Z</time>
      </trkpt>
      <trkpt lat="43.52066" lon="1.11242">
        <ele>254</ele>
        <time>2021-07-29T11:36:34Z</time>
      </trkpt>
      <trkpt lat="43.52058" lon="1.11238">
        <ele>256</ele>
        <time>2021-07-29T11:37:35Z</time>
      </trkpt>
      <trkpt lat="43.52051" lon="1.11233">
        <ele>258</ele>
        <time>2021-07-29T11:39:05Z</time>
      </trkpt>
      <trkpt lat="43.52043" lon="1.11239">
        <ele>251</ele>
        <time>2021-07-29T11:40:41Z</time>
      </trkpt>
      <trkpt lat="43.52041" lon="1.11246">
        <ele>254</ele>
        <time>2021-07-29T11:40:51Z</time>
      </trkpt>
      <trkpt lat="43.52037" lon="1.11257">
        <ele>254</ele>
        <time>2021-07-29T11:40:58Z</time>
      </trkpt>
      <trkpt lat="43.52037" lon="1.11269">
        <ele>256</ele>
        <time>2021-07-29T11:41:14Z</time>
      </trkpt>
      <trkpt lat="43.52037" lon="1.11281">
        <ele>255</ele>
        <time>2021-07-29T11:41:23Z</time>
      </trkpt>
      <trkpt lat="43.52038" lon="1.11292">
        <ele>255</ele>
        <time>2021-07-29T11:41:29Z</time>
      </trkpt>
      <trkpt lat="43.5204" lon="1.11303">
        <ele>257</ele>
        <time>2021-07-29T11:41:37Z</time>
      </trkpt>
      <trkpt lat="43.52043" lon="1.11314">
        <ele>257</ele>
        <time>2021-07-29T11:41:44Z</time>
      </trkpt>
      <trkpt lat="43.52045" lon="1.11325">
        <ele>257</ele>
        <time>2021-07-29T11:41:50Z</time>
      </trkpt>
      <trkpt lat="43.52048" lon="1.11336">
        <ele>254</ele>
        <time>2021-07-29T11:41:56Z</time>
      </trkpt>
      <trkpt lat="43.5205" lon="1.11348">
        <ele>254</ele>
        <time>2021-07-29T11:42:02Z</time>
      </trkpt>
      <trkpt lat="43.52054" lon="1.11357">
        <ele>254</ele>
        <time>2021-07-29T11:42:10Z</time>
      </trkpt>
      <trkpt lat="43.52057" lon="1.11369">
        <ele>254</ele>
        <time>2021-07-29T11:42:19Z</time>
      </trkpt>
      <trkpt lat="43.52057" lon="1.1138">
        <ele>255</ele>
        <time>2021-07-29T11:42:26Z</time>
      </trkpt>
      <trkpt lat="43.52059" lon="1.11391">
        <ele>254</ele>
        <time>2021-07-29T11:42:33Z</time>
      </trkpt>
      <trkpt lat="43.52062" lon="1.11401">
        <ele>256</ele>
        <time>2021-07-29T11:42:39Z</time>
      </trkpt>
      <trkpt lat="43.52064" lon="1.11413">
        <ele>254</ele>
        <time>2021-07-29T11:42:45Z</time>
      </trkpt>
      <trkpt lat="43.52063" lon="1.11424">
        <ele>253</ele>
        <time>2021-07-29T11:42:50Z</time>
      </trkpt>
      <trkpt lat="43.52066" lon="1.11435">
        <ele>255</ele>
        <time>2021-07-29T11:42:57Z</time>
      </trkpt>
      <trkpt lat="43.52068" lon="1.11445">
        <ele>253</ele>
        <time>2021-07-29T11:43:03Z</time>
      </trkpt>
      <trkpt lat="43.52066" lon="1.11455">
        <ele>254</ele>
        <time>2021-07-29T11:43:09Z</time>
      </trkpt>
      <trkpt lat="43.52068" lon="1.11467">
        <ele>255</ele>
        <time>2021-07-29T11:43:15Z</time>
      </trkpt>
      <trkpt lat="43.52069" lon="1.11478">
        <ele>259</ele>
        <time>2021-07-29T11:43:22Z</time>
      </trkpt>
      <trkpt lat="43.52069" lon="1.11489">
        <ele>258</ele>
        <time>2021-07-29T11:43:29Z</time>
      </trkpt>
      <trkpt lat="43.52074" lon="1.11498">
        <ele>258</ele>
        <time>2021-07-29T11:43:34Z</time>
      </trkpt>
      <trkpt lat="43.52077" lon="1.11509">
        <ele>258</ele>
        <time>2021-07-29T11:43:41Z</time>
      </trkpt>
      <trkpt lat="43.52081" lon="1.11516">
        <ele>257</ele>
        <time>2021-07-29T11:43:48Z</time>
      </trkpt>
      <trkpt lat="43.52088" lon="1.11524">
        <ele>257</ele>
        <time>2021-07-29T11:43:53Z</time>
      </trkpt>
      <trkpt lat="43.52093" lon="1.11531">
        <ele>255</ele>
        <time>2021-07-29T11:43:59Z</time>
      </trkpt>
      <trkpt lat="43.521" lon="1.11538">
        <ele>256</ele>
        <time>2021-07-29T11:44:04Z</time>
      </trkpt>
      <trkpt lat="43.52107" lon="1.11545">
        <ele>255</ele>
        <time>2021-07-29T11:44:09Z</time>
      </trkpt>
      <trkpt lat="43.52113" lon="1.11553">
        <ele>256</ele>
        <time>2021-07-29T11:44:15Z</time>
      </trkpt>
      <trkpt lat="43.52117" lon="1.11562">
        <ele>257</ele>
        <time>2021-07-29T11:44:22Z</time>
      </trkpt>
      <trkpt lat="43.52121" lon="1.11573">
        <ele>257</ele>
        <time>2021-07-29T11:44:30Z</time>
      </trkpt>
      <trkpt lat="43.52125" lon="1.11583">
        <ele>257</ele>
        <time>2021-07-29T11:44:37Z</time>
      </trkpt>
      <trkpt lat="43.52129" lon="1.11589">
        <ele>258</ele>
        <time>2021-07-29T11:44:45Z</time>
      </trkpt>
      <trkpt lat="43.52133" lon="1.11602">
        <ele>254</ele>
        <time>2021-07-29T11:44:50Z</time>
      </trkpt>
      <trkpt lat="43.52139" lon="1.11611">
        <ele>251</ele>
        <time>2021-07-29T11:45:09Z</time>
      </trkpt>
      <trkpt lat="43.52143" lon="1.11621">
        <ele>250</ele>
        <time>2021-07-29T11:45:17Z</time>
      </trkpt>
      <trkpt lat="43.52145" lon="1.11632">
        <ele>250</ele>
        <time>2021-07-29T11:45:24Z</time>
      </trkpt>
      <trkpt lat="43.52145" lon="1.11645">
        <ele>250</ele>
        <time>2021-07-29T11:45:30Z</time>
      </trkpt>
      <trkpt lat="43.52146" lon="1.11656">
        <ele>249</ele>
        <time>2021-07-29T11:45:38Z</time>
      </trkpt>
      <trkpt lat="43.52149" lon="1.11667">
        <ele>250</ele>
        <time>2021-07-29T11:45:44Z</time>
      </trkpt>
      <trkpt lat="43.52152" lon="1.11677">
        <ele>249</ele>
        <time>2021-07-29T11:45:50Z</time>
      </trkpt>
      <trkpt lat="43.52155" lon="1.11688">
        <ele>249</ele>
        <time>2021-07-29T11:45:57Z</time>
      </trkpt>
      <trkpt lat="43.52158" lon="1.11699">
        <ele>248</ele>
        <time>2021-07-29T11:46:04Z</time>
      </trkpt>
      <trkpt lat="43.5216" lon="1.11709">
        <ele>249</ele>
        <time>2021-07-29T11:46:11Z</time>
      </trkpt>
      <trkpt lat="43.52165" lon="1.11718">
        <ele>248</ele>
        <time>2021-07-29T11:46:17Z</time>
      </trkpt>
      <trkpt lat="43.52171" lon="1.11725">
        <ele>249</ele>
        <time>2021-07-29T11:46:23Z</time>
      </trkpt>
      <trkpt lat="43.52178" lon="1.11729">
        <ele>251</ele>
        <time>2021-07-29T11:46:29Z</time>
      </trkpt>
      <trkpt lat="43.52185" lon="1.11738">
        <ele>250</ele>
        <time>2021-07-29T11:46:36Z</time>
      </trkpt>
      <trkpt lat="43.52191" lon="1.11746">
        <ele>249</ele>
        <time>2021-07-29T11:46:45Z</time>
      </trkpt>
      <trkpt lat="43.52195" lon="1.11755">
        <ele>249</ele>
        <time>2021-07-29T11:46:50Z</time>
      </trkpt>
      <trkpt lat="43.522" lon="1.11765">
        <ele>250</ele>
        <time>2021-07-29T11:46:56Z</time>
      </trkpt>
      <trkpt lat="43.52204" lon="1.11774">
        <ele>250</ele>
        <time>2021-07-29T11:47:02Z</time>
      </trkpt>
      <trkpt lat="43.52206" lon="1.11785">
        <ele>249</ele>
        <time>2021-07-29T11:47:09Z</time>
      </trkpt>
      <trkpt lat="43.52209" lon="1.11795">
        <ele>249</ele>
        <time>2021-07-29T11:47:16Z</time>
      </trkpt>
      <trkpt lat="43.52209" lon="1.11807">
        <ele>250</ele>
        <time>2021-07-29T11:47:25Z</time>
      </trkpt>
      <trkpt lat="43.5221" lon="1.11819">
        <ele>251</ele>
        <time>2021-07-29T11:47:32Z</time>
      </trkpt>
      <trkpt lat="43.5221" lon="1.1183">
        <ele>253</ele>
        <time>2021-07-29T11:47:39Z</time>
      </trkpt>
      <trkpt lat="43.52214" lon="1.1184">
        <ele>251</ele>
        <time>2021-07-29T11:47:45Z</time>
      </trkpt>
      <trkpt lat="43.52217" lon="1.1185">
        <ele>249</ele>
        <time>2021-07-29T11:47:50Z</time>
      </trkpt>
      <trkpt lat="43.5222" lon="1.11861">
        <ele>248</ele>
        <time>2021-07-29T11:47:56Z</time>
      </trkpt>
      <trkpt lat="43.52223" lon="1.11872">
        <ele>248</ele>
        <time>2021-07-29T11:48:02Z</time>
      </trkpt>
      <trkpt lat="43.52229" lon="1.11879">
        <ele>246</ele>
        <time>2021-07-29T11:48:09Z</time>
      </trkpt>
      <trkpt lat="43.52236" lon="1.11887">
        <ele>247</ele>
        <time>2021-07-29T11:48:14Z</time>
      </trkpt>
      <trkpt lat="43.52241" lon="1.11896">
        <ele>247</ele>
        <time>2021-07-29T11:48:19Z</time>
      </trkpt>
      <trkpt lat="43.52245" lon="1.11906">
        <ele>245</ele>
        <time>2021-07-29T11:48:24Z</time>
      </trkpt>
      <trkpt lat="43.52252" lon="1.11911">
        <ele>246</ele>
        <time>2021-07-29T11:48:31Z</time>
      </trkpt>
      <trkpt lat="43.5226" lon="1.11908">
        <ele>248</ele>
        <time>2021-07-29T11:48:39Z</time>
      </trkpt>
      <trkpt lat="43.52269" lon="1.11911">
        <ele>252</ele>
        <time>2021-07-29T11:48:46Z</time>
      </trkpt>
      <trkpt lat="43.52277" lon="1.11916">
        <ele>249</ele>
        <time>2021-07-29T11:48:54Z</time>
      </trkpt>
      <trkpt lat="43.52285" lon="1.11918">
        <ele>249</ele>
        <time>2021-07-29T11:49:00Z</time>
      </trkpt>
      <trkpt lat="43.52293" lon="1.11919">
        <ele>247</ele>
        <time>2021-07-29T11:49:07Z</time>
      </trkpt>
      <trkpt lat="43.52301" lon="1.11922">
        <ele>248</ele>
        <time>2021-07-29T11:49:14Z</time>
      </trkpt>
      <trkpt lat="43.52308" lon="1.11919">
        <ele>248</ele>
        <time>2021-07-29T11:49:22Z</time>
      </trkpt>
      <trkpt lat="43.52314" lon="1.11909">
        <ele>250</ele>
        <time>2021-07-29T11:49:27Z</time>
      </trkpt>
      <trkpt lat="43.52319" lon="1.11901">
        <ele>252</ele>
        <time>2021-07-29T11:49:35Z</time>
      </trkpt>
      <trkpt lat="43.52326" lon="1.11897">
        <ele>253</ele>
        <time>2021-07-29T11:49:43Z</time>
      </trkpt>
      <trkpt lat="43.52334" lon="1.11891">
        <ele>252</ele>
        <time>2021-07-29T11:49:52Z</time>
      </trkpt>
      <trkpt lat="43.52341" lon="1.11885">
        <ele>250</ele>
        <time>2021-07-29T11:50:00Z</time>
      </trkpt>
      <trkpt lat="43.52348" lon="1.11881">
        <ele>251</ele>
        <time>2021-07-29T11:50:05Z</time>
      </trkpt>
      <trkpt lat="43.52356" lon="1.11875">
        <ele>253</ele>
        <time>2021-07-29T11:50:11Z</time>
      </trkpt>
      <trkpt lat="43.52361" lon="1.11868">
        <ele>254</ele>
        <time>2021-07-29T11:50:17Z</time>
      </trkpt>
      <trkpt lat="43.52368" lon="1.1186">
        <ele>255</ele>
        <time>2021-07-29T11:50:25Z</time>
      </trkpt>
      <trkpt lat="43.52374" lon="1.11852">
        <ele>256</ele>
        <time>2021-07-29T11:50:31Z</time>
      </trkpt>
      <trkpt lat="43.52381" lon="1.11846">
        <ele>254</ele>
        <time>2021-07-29T11:50:37Z</time>
      </trkpt>
      <trkpt lat="43.52387" lon="1.1184">
        <ele>256</ele>
        <time>2021-07-29T11:50:44Z</time>
      </trkpt>
      <trkpt lat="43.52395" lon="1.11836">
        <ele>257</ele>
        <time>2021-07-29T11:50:50Z</time>
      </trkpt>
      <trkpt lat="43.52401" lon="1.11827">
        <ele>255</ele>
        <time>2021-07-29T11:51:00Z</time>
      </trkpt>
      <trkpt lat="43.52408" lon="1.11831">
        <ele>254</ele>
        <time>2021-07-29T11:51:08Z</time>
      </trkpt>
      <trkpt lat="43.52415" lon="1.11837">
        <ele>253</ele>
        <time>2021-07-29T11:51:13Z</time>
      </trkpt>
      <trkpt lat="43.52421" lon="1.11845">
        <ele>254</ele>
        <time>2021-07-29T11:51:19Z</time>
      </trkpt>
      <trkpt lat="43.52427" lon="1.11852">
        <ele>254</ele>
        <time>2021-07-29T11:51:27Z</time>
      </trkpt>
      <trkpt lat="43.52434" lon="1.11858">
        <ele>253</ele>
        <time>2021-07-29T11:51:33Z</time>
      </trkpt>
      <trkpt lat="43.52442" lon="1.11864">
        <ele>252</ele>
        <time>2021-07-29T11:51:40Z</time>
      </trkpt>
      <trkpt lat="43.52448" lon="1.11871">
        <ele>250</ele>
        <time>2021-07-29T11:51:48Z</time>
      </trkpt>
      <trkpt lat="43.52455" lon="1.11877">
        <ele>250</ele>
        <time>2021-07-29T11:51:55Z</time>
      </trkpt>
      <trkpt lat="43.52462" lon="1.11882">
        <ele>251</ele>
        <time>2021-07-29T11:52:02Z</time>
      </trkpt>
      <trkpt lat="43.52469" lon="1.11886">
        <ele>251</ele>
        <time>2021-07-29T11:52:07Z</time>
      </trkpt>
      <trkpt lat="43.52477" lon="1.1189">
        <ele>249</ele>
        <time>2021-07-29T11:52:13Z</time>
      </trkpt>
      <trkpt lat="43.52484" lon="1.11897">
        <ele>250</ele>
        <time>2021-07-29T11:52:20Z</time>
      </trkpt>
      <trkpt lat="43.52492" lon="1.11901">
        <ele>249</ele>
        <time>2021-07-29T11:52:28Z</time>
      </trkpt>
      <trkpt lat="43.52499" lon="1.11908">
        <ele>249</ele>
        <time>2021-07-29T11:52:35Z</time>
      </trkpt>
      <trkpt lat="43.52506" lon="1.11915">
        <ele>250</ele>
        <time>2021-07-29T11:52:41Z</time>
      </trkpt>
      <trkpt lat="43.52513" lon="1.11922">
        <ele>250</ele>
        <time>2021-07-29T11:52:48Z</time>
      </trkpt>
      <trkpt lat="43.52519" lon="1.1193">
        <ele>249</ele>
        <time>2021-07-29T11:52:56Z</time>
      </trkpt>
      <trkpt lat="43.52525" lon="1.11937">
        <ele>248</ele>
        <time>2021-07-29T11:53:02Z</time>
      </trkpt>
      <trkpt lat="43.52532" lon="1.11943">
        <ele>249</ele>
        <time>2021-07-29T11:53:08Z</time>
      </trkpt>
      <trkpt lat="43.52537" lon="1.11951">
        <ele>250</ele>
        <time>2021-07-29T11:53:14Z</time>
      </trkpt>
      <trkpt lat="43.52544" lon="1.11957">
        <ele>251</ele>
        <time>2021-07-29T11:53:21Z</time>
      </trkpt>
      <trkpt lat="43.52551" lon="1.11964">
        <ele>251</ele>
        <time>2021-07-29T11:53:28Z</time>
      </trkpt>
      <trkpt lat="43.52558" lon="1.1197">
        <ele>250</ele>
        <time>2021-07-29T11:53:36Z</time>
      </trkpt>
      <trkpt lat="43.52564" lon="1.11977">
        <ele>249</ele>
        <time>2021-07-29T11:53:45Z</time>
      </trkpt>
      <trkpt lat="43.5257" lon="1.11985">
        <ele>249</ele>
        <time>2021-07-29T11:53:51Z</time>
      </trkpt>
      <trkpt lat="43.52577" lon="1.11992">
        <ele>250</ele>
        <time>2021-07-29T11:53:57Z</time>
      </trkpt>
      <trkpt lat="43.52582" lon="1.11999">
        <ele>253</ele>
        <time>2021-07-29T11:54:02Z</time>
      </trkpt>
      <trkpt lat="43.52588" lon="1.12006">
        <ele>254</ele>
        <time>2021-07-29T11:54:08Z</time>
      </trkpt>
      <trkpt lat="43.52594" lon="1.12013">
        <ele>257</ele>
        <time>2021-07-29T11:54:21Z</time>
      </trkpt>
      <trkpt lat="43.52598" lon="1.12023">
        <ele>259</ele>
        <time>2021-07-29T11:54:28Z</time>
      </trkpt>
      <trkpt lat="43.52603" lon="1.12033">
        <ele>259</ele>
        <time>2021-07-29T11:54:35Z</time>
      </trkpt>
      <trkpt lat="43.52609" lon="1.1204">
        <ele>260</ele>
        <time>2021-07-29T11:54:43Z</time>
      </trkpt>
      <trkpt lat="43.52613" lon="1.1205">
        <ele>260</ele>
        <time>2021-07-29T11:54:50Z</time>
      </trkpt>
      <trkpt lat="43.52617" lon="1.1206">
        <ele>261</ele>
        <time>2021-07-29T11:54:56Z</time>
      </trkpt>
      <trkpt lat="43.5262" lon="1.1207">
        <ele>260</ele>
        <time>2021-07-29T11:55:03Z</time>
      </trkpt>
      <trkpt lat="43.52624" lon="1.12081">
        <ele>259</ele>
        <time>2021-07-29T11:55:10Z</time>
      </trkpt>
      <trkpt lat="43.52628" lon="1.1209">
        <ele>258</ele>
        <time>2021-07-29T11:55:16Z</time>
      </trkpt>
      <trkpt lat="43.52632" lon="1.121">
        <ele>257</ele>
        <time>2021-07-29T11:55:22Z</time>
      </trkpt>
      <trkpt lat="43.52636" lon="1.1211">
        <ele>258</ele>
        <time>2021-07-29T11:55:29Z</time>
      </trkpt>
      <trkpt lat="43.5264" lon="1.12121">
        <ele>256</ele>
        <time>2021-07-29T11:55:35Z</time>
      </trkpt>
      <trkpt lat="43.52643" lon="1.12131">
        <ele>256</ele>
        <time>2021-07-29T11:55:41Z</time>
      </trkpt>
      <trkpt lat="43.52647" lon="1.1214">
        <ele>257</ele>
        <time>2021-07-29T11:55:47Z</time>
      </trkpt>
      <trkpt lat="43.52651" lon="1.12151">
        <ele>257</ele>
        <time>2021-07-29T11:55:54Z</time>
      </trkpt>
      <trkpt lat="43.52655" lon="1.12162">
        <ele>254</ele>
        <time>2021-07-29T11:56:01Z</time>
      </trkpt>
      <trkpt lat="43.52659" lon="1.12172">
        <ele>255</ele>
        <time>2021-07-29T11:56:08Z</time>
      </trkpt>
      <trkpt lat="43.52662" lon="1.12182">
        <ele>255</ele>
        <time>2021-07-29T11:56:14Z</time>
      </trkpt>
      <trkpt lat="43.52666" lon="1.12192">
        <ele>255</ele>
        <time>2021-07-29T11:56:21Z</time>
      </trkpt>
      <trkpt lat="43.5267" lon="1.12202">
        <ele>254</ele>
        <time>2021-07-29T11:56:27Z</time>
      </trkpt>
      <trkpt lat="43.52674" lon="1.12213">
        <ele>254</ele>
        <time>2021-07-29T11:56:34Z</time>
      </trkpt>
      <trkpt lat="43.52678" lon="1.12223">
        <ele>253</ele>
        <time>2021-07-29T11:56:41Z</time>
      </trkpt>
      <trkpt lat="43.52682" lon="1.12232">
        <ele>253</ele>
        <time>2021-07-29T11:56:47Z</time>
      </trkpt>
      <trkpt lat="43.52686" lon="1.12242">
        <ele>253</ele>
        <time>2021-07-29T11:56:54Z</time>
      </trkpt>
      <trkpt lat="43.52689" lon="1.12252">
        <ele>253</ele>
        <time>2021-07-29T11:57:00Z</time>
      </trkpt>
      <trkpt lat="43.52693" lon="1.12263">
        <ele>252</ele>
        <time>2021-07-29T11:57:07Z</time>
      </trkpt>
      <trkpt lat="43.52697" lon="1.12273">
        <ele>253</ele>
        <time>2021-07-29T11:57:13Z</time>
      </trkpt>
      <trkpt lat="43.527" lon="1.12283">
        <ele>252</ele>
        <time>2021-07-29T11:57:19Z</time>
      </trkpt>
      <trkpt lat="43.52703" lon="1.12293">
        <ele>253</ele>
        <time>2021-07-29T11:57:26Z</time>
      </trkpt>
      <trkpt lat="43.52707" lon="1.12303">
        <ele>253</ele>
        <time>2021-07-29T11:57:31Z</time>
      </trkpt>
      <trkpt lat="43.52711" lon="1.12313">
        <ele>253</ele>
        <time>2021-07-29T11:57:37Z</time>
      </trkpt>
      <trkpt lat="43.52714" lon="1.12323">
        <ele>251</ele>
        <time>2021-07-29T11:57:44Z</time>
      </trkpt>
      <trkpt lat="43.52718" lon="1.12333">
        <ele>251</ele>
        <time>2021-07-29T11:57:51Z</time>
      </trkpt>
      <trkpt lat="43.52725" lon="1.1234">
        <ele>250</ele>
        <time>2021-07-29T11:58:00Z</time>
      </trkpt>
      <trkpt lat="43.52733" lon="1.12337">
        <ele>249</ele>
        <time>2021-07-29T11:58:14Z</time>
      </trkpt>
      <trkpt lat="43.5274" lon="1.12332">
        <ele>248</ele>
        <time>2021-07-29T11:58:21Z</time>
      </trkpt>
      <trkpt lat="43.52748" lon="1.12327">
        <ele>248</ele>
        <time>2021-07-29T11:58:28Z</time>
      </trkpt>
      <trkpt lat="43.52755" lon="1.12324">
        <ele>248</ele>
        <time>2021-07-29T11:58:35Z</time>
      </trkpt>
      <trkpt lat="43.52762" lon="1.12321">
        <ele>246</ele>
        <time>2021-07-29T11:58:40Z</time>
      </trkpt>
      <trkpt lat="43.5277" lon="1.12318">
        <ele>246</ele>
        <time>2021-07-29T11:58:45Z</time>
      </trkpt>
      <trkpt lat="43.52777" lon="1.12315">
        <ele>248</ele>
        <time>2021-07-29T11:58:52Z</time>
      </trkpt>
      <trkpt lat="43.52786" lon="1.12312">
        <ele>250</ele>
        <time>2021-07-29T11:58:59Z</time>
      </trkpt>
      <trkpt lat="43.52794" lon="1.12307">
        <ele>251</ele>
        <time>2021-07-29T11:59:06Z</time>
      </trkpt>
      <trkpt lat="43.52801" lon="1.12304">
        <ele>250</ele>
        <time>2021-07-29T11:59:13Z</time>
      </trkpt>
      <trkpt lat="43.52807" lon="1.12297">
        <ele>250</ele>
        <time>2021-07-29T11:59:19Z</time>
      </trkpt>
      <trkpt lat="43.52813" lon="1.12289">
        <ele>251</ele>
        <time>2021-07-29T11:59:26Z</time>
      </trkpt>
      <trkpt lat="43.52819" lon="1.12279">
        <ele>252</ele>
        <time>2021-07-29T11:59:34Z</time>
      </trkpt>
      <trkpt lat="43.52823" lon="1.1227">
        <ele>252</ele>
        <time>2021-07-29T11:59:42Z</time>
      </trkpt>
      <trkpt lat="43.52827" lon="1.12259">
        <ele>254</ele>
        <time>2021-07-29T11:59:50Z</time>
      </trkpt>
      <trkpt lat="43.52832" lon="1.1225">
        <ele>255</ele>
        <time>2021-07-29T11:59:57Z</time>
      </trkpt>
      <trkpt lat="43.52837" lon="1.1224">
        <ele>257</ele>
        <time>2021-07-29T12:00:03Z</time>
      </trkpt>
      <trkpt lat="43.5284" lon="1.12229">
        <ele>258</ele>
        <time>2021-07-29T12:00:10Z</time>
      </trkpt>
      <trkpt lat="43.52845" lon="1.12219">
        <ele>259</ele>
        <time>2021-07-29T12:00:17Z</time>
      </trkpt>
      <trkpt lat="43.52849" lon="1.12209">
        <ele>260</ele>
        <time>2021-07-29T12:00:24Z</time>
      </trkpt>
      <trkpt lat="43.52853" lon="1.12198">
        <ele>260</ele>
        <time>2021-07-29T12:00:31Z</time>
      </trkpt>
      <trkpt lat="43.52857" lon="1.12189">
        <ele>261</ele>
        <time>2021-07-29T12:00:38Z</time>
      </trkpt>
      <trkpt lat="43.52861" lon="1.12179">
        <ele>263</ele>
        <time>2021-07-29T12:00:45Z</time>
      </trkpt>
      <trkpt lat="43.52865" lon="1.12168">
        <ele>265</ele>
        <time>2021-07-29T12:00:52Z</time>
      </trkpt>
      <trkpt lat="43.52867" lon="1.12157">
        <ele>266</ele>
        <time>2021-07-29T12:00:59Z</time>
      </trkpt>
      <trkpt lat="43.5287" lon="1.12147">
        <ele>267</ele>
        <time>2021-07-29T12:01:05Z</time>
      </trkpt>
      <trkpt lat="43.52873" lon="1.12136">
        <ele>267</ele>
        <time>2021-07-29T12:01:12Z</time>
      </trkpt>
      <trkpt lat="43.52876" lon="1.12126">
        <ele>268</ele>
        <time>2021-07-29T12:01:18Z</time>
      </trkpt>
      <trkpt lat="43.5288" lon="1.12116">
        <ele>270</ele>
        <time>2021-07-29T12:01:26Z</time>
      </trkpt>
      <trkpt lat="43.52883" lon="1.12105">
        <ele>270</ele>
        <time>2021-07-29T12:01:33Z</time>
      </trkpt>
      <trkpt lat="43.52885" lon="1.12094">
        <ele>270</ele>
        <time>2021-07-29T12:01:40Z</time>
      </trkpt>
      <trkpt lat="43.52889" lon="1.12083">
        <ele>270</ele>
        <time>2021-07-29T12:01:48Z</time>
      </trkpt>
      <trkpt lat="43.52892" lon="1.12071">
        <ele>271</ele>
        <time>2021-07-29T12:01:55Z</time>
      </trkpt>
      <trkpt lat="43.52895" lon="1.12061">
        <ele>272</ele>
        <time>2021-07-29T12:02:02Z</time>
      </trkpt>
      <trkpt lat="43.52899" lon="1.12051">
        <ele>274</ele>
        <time>2021-07-29T12:02:09Z</time>
      </trkpt>
      <trkpt lat="43.52901" lon="1.1204">
        <ele>274</ele>
        <time>2021-07-29T12:02:16Z</time>
      </trkpt>
      <trkpt lat="43.52904" lon="1.1203">
        <ele>276</ele>
        <time>2021-07-29T12:02:23Z</time>
      </trkpt>
      <trkpt lat="43.52906" lon="1.12019">
        <ele>276</ele>
        <time>2021-07-29T12:02:30Z</time>
      </trkpt>
      <trkpt lat="43.52909" lon="1.12008">
        <ele>277</ele>
        <time>2021-07-29T12:02:41Z</time>
      </trkpt>
      <trkpt lat="43.5291" lon="1.11996">
        <ele>279</ele>
        <time>2021-07-29T12:02:50Z</time>
      </trkpt>
      <trkpt lat="43.52911" lon="1.11984">
        <ele>281</ele>
        <time>2021-07-29T12:02:57Z</time>
      </trkpt>
      <trkpt lat="43.52912" lon="1.11972">
        <ele>283</ele>
        <time>2021-07-29T12:03:06Z</time>
      </trkpt>
      <trkpt lat="43.52909" lon="1.11962">
        <ele>282</ele>
        <time>2021-07-29T12:03:13Z</time>
      </trkpt>
      <trkpt lat="43.52906" lon="1.11952">
        <ele>283</ele>
        <time>2021-07-29T12:03:21Z</time>
      </trkpt>
      <trkpt lat="43.52905" lon="1.11941">
        <ele>283</ele>
        <time>2021-07-29T12:03:28Z</time>
      </trkpt>
      <trkpt lat="43.52905" lon="1.1193">
        <ele>285</ele>
        <time>2021-07-29T12:03:36Z</time>
      </trkpt>
      <trkpt lat="43.52905" lon="1.11919">
        <ele>285</ele>
        <time>2021-07-29T12:03:43Z</time>
      </trkpt>
      <trkpt lat="43.52903" lon="1.11908">
        <ele>287</ele>
        <time>2021-07-29T12:03:50Z</time>
      </trkpt>
      <trkpt lat="43.52898" lon="1.11897">
        <ele>290</ele>
        <time>2021-07-29T12:03:59Z</time>
      </trkpt>
      <trkpt lat="43.52897" lon="1.11886">
        <ele>291</ele>
        <time>2021-07-29T12:04:06Z</time>
      </trkpt>
      <trkpt lat="43.52896" lon="1.11875">
        <ele>294</ele>
        <time>2021-07-29T12:04:14Z</time>
      </trkpt>
      <trkpt lat="43.52892" lon="1.11864">
        <ele>294</ele>
        <time>2021-07-29T12:04:24Z</time>
      </trkpt>
      <trkpt lat="43.52888" lon="1.11853">
        <ele>295</ele>
        <time>2021-07-29T12:04:31Z</time>
      </trkpt>
      <trkpt lat="43.52885" lon="1.11842">
        <ele>296</ele>
        <time>2021-07-29T12:04:41Z</time>
      </trkpt>
      <trkpt lat="43.52883" lon="1.11831">
        <ele>299</ele>
        <time>2021-07-29T12:04:51Z</time>
      </trkpt>
      <trkpt lat="43.52883" lon="1.11819">
        <ele>301</ele>
        <time>2021-07-29T12:05:01Z</time>
      </trkpt>
      <trkpt lat="43.52882" lon="1.11807">
        <ele>298</ele>
        <time>2021-07-29T12:05:19Z</time>
      </trkpt>
      <trkpt lat="43.52884" lon="1.11797">
        <ele>298</ele>
        <time>2021-07-29T12:07:18Z</time>
      </trkpt>
      <trkpt lat="43.52886" lon="1.11786">
        <ele>299</ele>
        <time>2021-07-29T12:07:25Z</time>
      </trkpt>
      <trkpt lat="43.52889" lon="1.11774">
        <ele>301</ele>
        <time>2021-07-29T12:07:32Z</time>
      </trkpt>
      <trkpt lat="43.52891" lon="1.11764">
        <ele>302</ele>
        <time>2021-07-29T12:07:46Z</time>
      </trkpt>
      <trkpt lat="43.52893" lon="1.11753">
        <ele>303</ele>
        <time>2021-07-29T12:07:53Z</time>
      </trkpt>
      <trkpt lat="43.52896" lon="1.11741">
        <ele>302</ele>
        <time>2021-07-29T12:08:00Z</time>
      </trkpt>
      <trkpt lat="43.52899" lon="1.11731">
        <ele>302</ele>
        <time>2021-07-29T12:08:07Z</time>
      </trkpt>
      <trkpt lat="43.52901" lon="1.11719">
        <ele>301</ele>
        <time>2021-07-29T12:08:14Z</time>
      </trkpt>
      <trkpt lat="43.52902" lon="1.11708">
        <ele>301</ele>
        <time>2021-07-29T12:08:20Z</time>
      </trkpt>
      <trkpt lat="43.52903" lon="1.11696">
        <ele>301</ele>
        <time>2021-07-29T12:08:28Z</time>
      </trkpt>
      <trkpt lat="43.52905" lon="1.11684">
        <ele>301</ele>
        <time>2021-07-29T12:08:35Z</time>
      </trkpt>
      <trkpt lat="43.52907" lon="1.11673">
        <ele>303</ele>
        <time>2021-07-29T12:08:41Z</time>
      </trkpt>
      <trkpt lat="43.52909" lon="1.11662">
        <ele>304</ele>
        <time>2021-07-29T12:08:47Z</time>
      </trkpt>
      <trkpt lat="43.52911" lon="1.11651">
        <ele>304</ele>
        <time>2021-07-29T12:08:54Z</time>
      </trkpt>
      <trkpt lat="43.52914" lon="1.11639">
        <ele>303</ele>
        <time>2021-07-29T12:09:01Z</time>
      </trkpt>
      <trkpt lat="43.52916" lon="1.11628">
        <ele>304</ele>
        <time>2021-07-29T12:09:07Z</time>
      </trkpt>
      <trkpt lat="43.52918" lon="1.11617">
        <ele>306</ele>
        <time>2021-07-29T12:09:14Z</time>
      </trkpt>
      <trkpt lat="43.52921" lon="1.11605">
        <ele>305</ele>
        <time>2021-07-29T12:09:20Z</time>
      </trkpt>
      <trkpt lat="43.52923" lon="1.11595">
        <ele>304</ele>
        <time>2021-07-29T12:09:26Z</time>
      </trkpt>
      <trkpt lat="43.52925" lon="1.11583">
        <ele>305</ele>
        <time>2021-07-29T12:09:33Z</time>
      </trkpt>
      <trkpt lat="43.52926" lon="1.11571">
        <ele>304</ele>
        <time>2021-07-29T12:09:40Z</time>
      </trkpt>
      <trkpt lat="43.52925" lon="1.11559">
        <ele>304</ele>
        <time>2021-07-29T12:09:46Z</time>
      </trkpt>
      <trkpt lat="43.52926" lon="1.11548">
        <ele>303</ele>
        <time>2021-07-29T12:09:53Z</time>
      </trkpt>
      <trkpt lat="43.52926" lon="1.11537">
        <ele>304</ele>
        <time>2021-07-29T12:09:59Z</time>
      </trkpt>
      <trkpt lat="43.52926" lon="1.11525">
        <ele>304</ele>
        <time>2021-07-29T12:10:06Z</time>
      </trkpt>
      <trkpt lat="43.52926" lon="1.11513">
        <ele>304</ele>
        <time>2021-07-29T12:10:13Z</time>
      </trkpt>
      <trkpt lat="43.52927" lon="1.11501">
        <ele>304</ele>
        <time>2021-07-29T12:10:20Z</time>
      </trkpt>
      <trkpt lat="43.52926" lon="1.11489">
        <ele>303</ele>
        <time>2021-07-29T12:10:27Z</time>
      </trkpt>
      <trkpt lat="43.52927" lon="1.11478">
        <ele>304</ele>
        <time>2021-07-29T12:10:33Z</time>
      </trkpt>
      <trkpt lat="43.52927" lon="1.11467">
        <ele>303</ele>
        <time>2021-07-29T12:10:39Z</time>
      </trkpt>
      <trkpt lat="43.52926" lon="1.11456">
        <ele>304</ele>
        <time>2021-07-29T12:10:46Z</time>
      </trkpt>
      <trkpt lat="43.52926" lon="1.11446">
        <ele>304</ele>
        <time>2021-07-29T12:10:52Z</time>
      </trkpt>
      <trkpt lat="43.52926" lon="1.11437">
        <ele>304</ele>
        <time>2021-07-29T12:10:56Z</time>
      </trkpt>
      <trkpt lat="43.52926" lon="1.11425">
        <ele>304</ele>
        <time>2021-07-29T12:11:02Z</time>
      </trkpt>
      <trkpt lat="43.52927" lon="1.11413">
        <ele>304</ele>
        <time>2021-07-29T12:11:08Z</time>
      </trkpt>
      <trkpt lat="43.52927" lon="1.11402">
        <ele>305</ele>
        <time>2021-07-29T12:11:14Z</time>
      </trkpt>
      <trkpt lat="43.52925" lon="1.11391">
        <ele>306</ele>
        <time>2021-07-29T12:11:21Z</time>
      </trkpt>
      <trkpt lat="43.52925" lon="1.1138">
        <ele>306</ele>
        <time>2021-07-29T12:11:27Z</time>
      </trkpt>
      <trkpt lat="43.52924" lon="1.11369">
        <ele>306</ele>
        <time>2021-07-29T12:11:33Z</time>
      </trkpt>
      <trkpt lat="43.52924" lon="1.11356">
        <ele>305</ele>
        <time>2021-07-29T12:11:40Z</time>
      </trkpt>
      <trkpt lat="43.52925" lon="1.11345">
        <ele>305</ele>
        <time>2021-07-29T12:11:46Z</time>
      </trkpt>
      <trkpt lat="43.52924" lon="1.11333">
        <ele>305</ele>
        <time>2021-07-29T12:11:53Z</time>
      </trkpt>
      <trkpt lat="43.52924" lon="1.11321">
        <ele>305</ele>
        <time>2021-07-29T12:12:00Z</time>
      </trkpt>
      <trkpt lat="43.52925" lon="1.11309">
        <ele>307</ele>
        <time>2021-07-29T12:12:07Z</time>
      </trkpt>
      <trkpt lat="43.52927" lon="1.11298">
        <ele>307</ele>
        <time>2021-07-29T12:12:14Z</time>
      </trkpt>
      <trkpt lat="43.52931" lon="1.11288">
        <ele>309</ele>
        <time>2021-07-29T12:12:24Z</time>
      </trkpt>
      <trkpt lat="43.52934" lon="1.11276">
        <ele>309</ele>
        <time>2021-07-29T12:12:32Z</time>
      </trkpt>
      <trkpt lat="43.52939" lon="1.11267">
        <ele>308</ele>
        <time>2021-07-29T12:12:39Z</time>
      </trkpt>
      <trkpt lat="43.52944" lon="1.11257">
        <ele>308</ele>
        <time>2021-07-29T12:12:53Z</time>
      </trkpt>
      <trkpt lat="43.52948" lon="1.11268">
        <ele>307</ele>
        <time>2021-07-29T12:13:12Z</time>
      </trkpt>
      <trkpt lat="43.52951" lon="1.11279">
        <ele>307</ele>
        <time>2021-07-29T12:13:19Z</time>
      </trkpt>
      <trkpt lat="43.52956" lon="1.11288">
        <ele>307</ele>
        <time>2021-07-29T12:13:27Z</time>
      </trkpt>
      <trkpt lat="43.52962" lon="1.11298">
        <ele>307</ele>
        <time>2021-07-29T12:13:34Z</time>
      </trkpt>
      <trkpt lat="43.52966" lon="1.11308">
        <ele>305</ele>
        <time>2021-07-29T12:13:41Z</time>
      </trkpt>
      <trkpt lat="43.52971" lon="1.11319">
        <ele>304</ele>
        <time>2021-07-29T12:13:48Z</time>
      </trkpt>
      <trkpt lat="43.52975" lon="1.1133">
        <ele>306</ele>
        <time>2021-07-29T12:13:55Z</time>
      </trkpt>
      <trkpt lat="43.52978" lon="1.1134">
        <ele>305</ele>
        <time>2021-07-29T12:14:01Z</time>
      </trkpt>
      <trkpt lat="43.52981" lon="1.1135">
        <ele>306</ele>
        <time>2021-07-29T12:14:07Z</time>
      </trkpt>
      <trkpt lat="43.52986" lon="1.11359">
        <ele>305</ele>
        <time>2021-07-29T12:14:15Z</time>
      </trkpt>
      <trkpt lat="43.5299" lon="1.11368">
        <ele>305</ele>
        <time>2021-07-29T12:14:21Z</time>
      </trkpt>
      <trkpt lat="43.52994" lon="1.11378">
        <ele>305</ele>
        <time>2021-07-29T12:14:27Z</time>
      </trkpt>
      <trkpt lat="43.52998" lon="1.11388">
        <ele>304</ele>
        <time>2021-07-29T12:14:34Z</time>
      </trkpt>
      <trkpt lat="43.53003" lon="1.11397">
        <ele>301</ele>
        <time>2021-07-29T12:14:41Z</time>
      </trkpt>
      <trkpt lat="43.53007" lon="1.11408">
        <ele>301</ele>
        <time>2021-07-29T12:14:46Z</time>
      </trkpt>
      <trkpt lat="43.53011" lon="1.11417">
        <ele>302</ele>
        <time>2021-07-29T12:14:52Z</time>
      </trkpt>
      <trkpt lat="43.53016" lon="1.11425">
        <ele>302</ele>
        <time>2021-07-29T12:15:00Z</time>
      </trkpt>
      <trkpt lat="43.53021" lon="1.11436">
        <ele>303</ele>
        <time>2021-07-29T12:15:07Z</time>
      </trkpt>
      <trkpt lat="43.53025" lon="1.11447">
        <ele>302</ele>
        <time>2021-07-29T12:15:14Z</time>
      </trkpt>
      <trkpt lat="43.53028" lon="1.11457">
        <ele>301</ele>
        <time>2021-07-29T12:15:21Z</time>
      </trkpt>
      <trkpt lat="43.53031" lon="1.11468">
        <ele>302</ele>
        <time>2021-07-29T12:15:28Z</time>
      </trkpt>
      <trkpt lat="43.53037" lon="1.11476">
        <ele>303</ele>
        <time>2021-07-29T12:15:35Z</time>
      </trkpt>
      <trkpt lat="43.53039" lon="1.11487">
        <ele>304</ele>
        <time>2021-07-29T12:15:41Z</time>
      </trkpt>
      <trkpt lat="43.53043" lon="1.11498">
        <ele>302</ele>
        <time>2021-07-29T12:15:48Z</time>
      </trkpt>
      <trkpt lat="43.53047" lon="1.11508">
        <ele>304</ele>
        <time>2021-07-29T12:15:54Z</time>
      </trkpt>
      <trkpt lat="43.53051" lon="1.11517">
        <ele>304</ele>
        <time>2021-07-29T12:16:01Z</time>
      </trkpt>
      <trkpt lat="43.53055" lon="1.11527">
        <ele>305</ele>
        <time>2021-07-29T12:16:08Z</time>
      </trkpt>
      <trkpt lat="43.53062" lon="1.11534">
        <ele>300</ele>
        <time>2021-07-29T12:16:28Z</time>
      </trkpt>
      <trkpt lat="43.53063" lon="1.11545">
        <ele>301</ele>
        <time>2021-07-29T12:16:35Z</time>
      </trkpt>
      <trkpt lat="43.53065" lon="1.11556">
        <ele>303</ele>
        <time>2021-07-29T12:16:41Z</time>
      </trkpt>
      <trkpt lat="43.53069" lon="1.11566">
        <ele>304</ele>
        <time>2021-07-29T12:16:48Z</time>
      </trkpt>
      <trkpt lat="43.53072" lon="1.11576">
        <ele>305</ele>
        <time>2021-07-29T12:16:54Z</time>
      </trkpt>
      <trkpt lat="43.53076" lon="1.11586">
        <ele>306</ele>
        <time>2021-07-29T12:16:59Z</time>
      </trkpt>
      <trkpt lat="43.5308" lon="1.11596">
        <ele>306</ele>
        <time>2021-07-29T12:17:06Z</time>
      </trkpt>
      <trkpt lat="43.53086" lon="1.11604">
        <ele>304</ele>
        <time>2021-07-29T12:17:14Z</time>
      </trkpt>
      <trkpt lat="43.53091" lon="1.11612">
        <ele>304</ele>
        <time>2021-07-29T12:17:20Z</time>
      </trkpt>
      <trkpt lat="43.53096" lon="1.11621">
        <ele>303</ele>
        <time>2021-07-29T12:17:27Z</time>
      </trkpt>
      <trkpt lat="43.53102" lon="1.1163">
        <ele>303</ele>
        <time>2021-07-29T12:17:47Z</time>
      </trkpt>
      <trkpt lat="43.53107" lon="1.11638">
        <ele>304</ele>
        <time>2021-07-29T12:17:55Z</time>
      </trkpt>
      <trkpt lat="43.53113" lon="1.11647">
        <ele>301</ele>
        <time>2021-07-29T12:18:03Z</time>
      </trkpt>
      <trkpt lat="43.53118" lon="1.11657">
        <ele>302</ele>
        <time>2021-07-29T12:18:10Z</time>
      </trkpt>
      <trkpt lat="43.53124" lon="1.11665">
        <ele>301</ele>
        <time>2021-07-29T12:18:15Z</time>
      </trkpt>
      <trkpt lat="43.5313" lon="1.11673">
        <ele>300</ele>
        <time>2021-07-29T12:18:22Z</time>
      </trkpt>
      <trkpt lat="43.53135" lon="1.11682">
        <ele>300</ele>
        <time>2021-07-29T12:18:27Z</time>
      </trkpt>
      <trkpt lat="43.53141" lon="1.1169">
        <ele>301</ele>
        <time>2021-07-29T12:18:33Z</time>
      </trkpt>
      <trkpt lat="43.53147" lon="1.11698">
        <ele>301</ele>
        <time>2021-07-29T12:18:41Z</time>
      </trkpt>
      <trkpt lat="43.53153" lon="1.11704">
        <ele>301</ele>
        <time>2021-07-29T12:18:47Z</time>
      </trkpt>
      <trkpt lat="43.53159" lon="1.11712">
        <ele>301</ele>
        <time>2021-07-29T12:18:53Z</time>
      </trkpt>
      <trkpt lat="43.53166" lon="1.11719">
        <ele>300</ele>
        <time>2021-07-29T12:19:00Z</time>
      </trkpt>
      <trkpt lat="43.53171" lon="1.11728">
        <ele>300</ele>
        <time>2021-07-29T12:19:07Z</time>
      </trkpt>
      <trkpt lat="43.53176" lon="1.11738">
        <ele>301</ele>
        <time>2021-07-29T12:19:14Z</time>
      </trkpt>
      <trkpt lat="43.53182" lon="1.11747">
        <ele>299</ele>
        <time>2021-07-29T12:19:22Z</time>
      </trkpt>
      <trkpt lat="43.53188" lon="1.11754">
        <ele>298</ele>
        <time>2021-07-29T12:19:28Z</time>
      </trkpt>
      <trkpt lat="43.53194" lon="1.11763">
        <ele>299</ele>
        <time>2021-07-29T12:19:35Z</time>
      </trkpt>
      <trkpt lat="43.53199" lon="1.11773">
        <ele>299</ele>
        <time>2021-07-29T12:19:44Z</time>
      </trkpt>
      <trkpt lat="43.53205" lon="1.11782">
        <ele>299</ele>
        <time>2021-07-29T12:19:51Z</time>
      </trkpt>
      <trkpt lat="43.5321" lon="1.11791">
        <ele>298</ele>
        <time>2021-07-29T12:19:57Z</time>
      </trkpt>
      <trkpt lat="43.53214" lon="1.11801">
        <ele>298</ele>
        <time>2021-07-29T12:20:04Z</time>
      </trkpt>
      <trkpt lat="43.53219" lon="1.1181">
        <ele>297</ele>
        <time>2021-07-29T12:20:10Z</time>
      </trkpt>
      <trkpt lat="43.53222" lon="1.1182">
        <ele>299</ele>
        <time>2021-07-29T12:20:16Z</time>
      </trkpt>
      <trkpt lat="43.53225" lon="1.1183">
        <ele>300</ele>
        <time>2021-07-29T12:20:22Z</time>
      </trkpt>
      <trkpt lat="43.53228" lon="1.11841">
        <ele>302</ele>
        <time>2021-07-29T12:20:30Z</time>
      </trkpt>
      <trkpt lat="43.53231" lon="1.11852">
        <ele>301</ele>
        <time>2021-07-29T12:20:36Z</time>
      </trkpt>
      <trkpt lat="43.53235" lon="1.11863">
        <ele>300</ele>
        <time>2021-07-29T12:20:43Z</time>
      </trkpt>
      <trkpt lat="43.53239" lon="1.11873">
        <ele>300</ele>
        <time>2021-07-29T12:20:49Z</time>
      </trkpt>
      <trkpt lat="43.53242" lon="1.11885">
        <ele>301</ele>
        <time>2021-07-29T12:20:56Z</time>
      </trkpt>
      <trkpt lat="43.53243" lon="1.11896">
        <ele>300</ele>
        <time>2021-07-29T12:21:03Z</time>
      </trkpt>
      <trkpt lat="43.53246" lon="1.11906">
        <ele>300</ele>
        <time>2021-07-29T12:21:09Z</time>
      </trkpt>
      <trkpt lat="43.53249" lon="1.11917">
        <ele>300</ele>
        <time>2021-07-29T12:21:15Z</time>
      </trkpt>
      <trkpt lat="43.53251" lon="1.11928">
        <ele>299</ele>
        <time>2021-07-29T12:21:22Z</time>
      </trkpt>
      <trkpt lat="43.53254" lon="1.11939">
        <ele>300</ele>
        <time>2021-07-29T12:21:29Z</time>
      </trkpt>
      <trkpt lat="43.53255" lon="1.11951">
        <ele>298</ele>
        <time>2021-07-29T12:21:38Z</time>
      </trkpt>
      <trkpt lat="43.53259" lon="1.11962">
        <ele>298</ele>
        <time>2021-07-29T12:21:48Z</time>
      </trkpt>
      <trkpt lat="43.53262" lon="1.11972">
        <ele>298</ele>
        <time>2021-07-29T12:21:56Z</time>
      </trkpt>
      <trkpt lat="43.53263" lon="1.11984">
        <ele>298</ele>
        <time>2021-07-29T12:22:04Z</time>
      </trkpt>
      <trkpt lat="43.53265" lon="1.11995">
        <ele>297</ele>
        <time>2021-07-29T12:22:10Z</time>
      </trkpt>
      <trkpt lat="43.53266" lon="1.12006">
        <ele>297</ele>
        <time>2021-07-29T12:22:17Z</time>
      </trkpt>
      <trkpt lat="43.53268" lon="1.12017">
        <ele>300</ele>
        <time>2021-07-29T12:22:26Z</time>
      </trkpt>
      <trkpt lat="43.53271" lon="1.12028">
        <ele>300</ele>
        <time>2021-07-29T12:22:33Z</time>
      </trkpt>
      <trkpt lat="43.53274" lon="1.12039">
        <ele>299</ele>
        <time>2021-07-29T12:22:40Z</time>
      </trkpt>
      <trkpt lat="43.53275" lon="1.12049">
        <ele>300</ele>
        <time>2021-07-29T12:22:46Z</time>
      </trkpt>
      <trkpt lat="43.53277" lon="1.12061">
        <ele>297</ele>
        <time>2021-07-29T12:22:54Z</time>
      </trkpt>
      <trkpt lat="43.53278" lon="1.12072">
        <ele>297</ele>
        <time>2021-07-29T12:23:13Z</time>
      </trkpt>
      <trkpt lat="43.53279" lon="1.12084">
        <ele>298</ele>
        <time>2021-07-29T12:23:21Z</time>
      </trkpt>
      <trkpt lat="43.5328" lon="1.12095">
        <ele>298</ele>
        <time>2021-07-29T12:23:27Z</time>
      </trkpt>
      <trkpt lat="43.53283" lon="1.12106">
        <ele>299</ele>
        <time>2021-07-29T12:23:34Z</time>
      </trkpt>
      <trkpt lat="43.53283" lon="1.12118">
        <ele>297</ele>
        <time>2021-07-29T12:23:41Z</time>
      </trkpt>
      <trkpt lat="43.53283" lon="1.1213">
        <ele>297</ele>
        <time>2021-07-29T12:23:49Z</time>
      </trkpt>
      <trkpt lat="43.53283" lon="1.12142">
        <ele>297</ele>
        <time>2021-07-29T12:23:57Z</time>
      </trkpt>
      <trkpt lat="43.53285" lon="1.12154">
        <ele>298</ele>
        <time>2021-07-29T12:24:04Z</time>
      </trkpt>
      <trkpt lat="43.53285" lon="1.12165">
        <ele>300</ele>
        <time>2021-07-29T12:24:11Z</time>
      </trkpt>
      <trkpt lat="43.53287" lon="1.12177">
        <ele>299</ele>
        <time>2021-07-29T12:24:18Z</time>
      </trkpt>
      <trkpt lat="43.53288" lon="1.12188">
        <ele>299</ele>
        <time>2021-07-29T12:24:25Z</time>
      </trkpt>
      <trkpt lat="43.53288" lon="1.122">
        <ele>299</ele>
        <time>2021-07-29T12:24:32Z</time>
      </trkpt>
      <trkpt lat="43.53288" lon="1.12212">
        <ele>299</ele>
        <time>2021-07-29T12:24:39Z</time>
      </trkpt>
      <trkpt lat="43.53288" lon="1.12223">
        <ele>299</ele>
        <time>2021-07-29T12:24:46Z</time>
      </trkpt>
      <trkpt lat="43.53289" lon="1.12235">
        <ele>299</ele>
        <time>2021-07-29T12:24:54Z</time>
      </trkpt>
      <trkpt lat="43.5329" lon="1.12247">
        <ele>298</ele>
        <time>2021-07-29T12:25:01Z</time>
      </trkpt>
      <trkpt lat="43.53287" lon="1.12258">
        <ele>298</ele>
        <time>2021-07-29T12:25:08Z</time>
      </trkpt>
      <trkpt lat="43.5329" lon="1.12268">
        <ele>297</ele>
        <time>2021-07-29T12:25:15Z</time>
      </trkpt>
      <trkpt lat="43.5329" lon="1.1228">
        <ele>298</ele>
        <time>2021-07-29T12:25:23Z</time>
      </trkpt>
      <trkpt lat="43.53289" lon="1.12291">
        <ele>298</ele>
        <time>2021-07-29T12:25:31Z</time>
      </trkpt>
      <trkpt lat="43.53291" lon="1.12303">
        <ele>298</ele>
        <time>2021-07-29T12:25:39Z</time>
      </trkpt>
      <trkpt lat="43.53289" lon="1.12314">
        <ele>295</ele>
        <time>2021-07-29T12:25:46Z</time>
      </trkpt>
      <trkpt lat="43.53289" lon="1.12325">
        <ele>297</ele>
        <time>2021-07-29T12:25:52Z</time>
      </trkpt>
      <trkpt lat="43.5329" lon="1.12335">
        <ele>297</ele>
        <time>2021-07-29T12:25:59Z</time>
      </trkpt>
      <trkpt lat="43.5329" lon="1.12347">
        <ele>295</ele>
        <time>2021-07-29T12:26:05Z</time>
      </trkpt>
      <trkpt lat="43.53291" lon="1.12359">
        <ele>297</ele>
        <time>2021-07-29T12:26:12Z</time>
      </trkpt>
      <trkpt lat="43.53291" lon="1.1237">
        <ele>296</ele>
        <time>2021-07-29T12:26:18Z</time>
      </trkpt>
      <trkpt lat="43.53291" lon="1.12383">
        <ele>297</ele>
        <time>2021-07-29T12:26:25Z</time>
      </trkpt>
      <trkpt lat="43.53292" lon="1.12395">
        <ele>297</ele>
        <time>2021-07-29T12:26:33Z</time>
      </trkpt>
      <trkpt lat="43.53294" lon="1.12405">
        <ele>297</ele>
        <time>2021-07-29T12:26:40Z</time>
      </trkpt>
      <trkpt lat="43.53293" lon="1.12416">
        <ele>299</ele>
        <time>2021-07-29T12:26:48Z</time>
      </trkpt>
      <trkpt lat="43.53296" lon="1.12428">
        <ele>298</ele>
        <time>2021-07-29T12:26:56Z</time>
      </trkpt>
      <trkpt lat="43.53298" lon="1.12439">
        <ele>298</ele>
        <time>2021-07-29T12:27:03Z</time>
      </trkpt>
      <trkpt lat="43.53296" lon="1.1245">
        <ele>298</ele>
        <time>2021-07-29T12:27:24Z</time>
      </trkpt>
      <trkpt lat="43.53299" lon="1.12461">
        <ele>298</ele>
        <time>2021-07-29T12:27:31Z</time>
      </trkpt>
      <trkpt lat="43.53302" lon="1.12473">
        <ele>298</ele>
        <time>2021-07-29T12:27:38Z</time>
      </trkpt>
      <trkpt lat="43.53303" lon="1.12484">
        <ele>298</ele>
        <time>2021-07-29T12:27:45Z</time>
      </trkpt>
      <trkpt lat="43.53303" lon="1.12495">
        <ele>297</ele>
        <time>2021-07-29T12:27:53Z</time>
      </trkpt>
      <trkpt lat="43.53306" lon="1.12507">
        <ele>296</ele>
        <time>2021-07-29T12:28:00Z</time>
      </trkpt>
      <trkpt lat="43.53306" lon="1.12518">
        <ele>297</ele>
        <time>2021-07-29T12:28:07Z</time>
      </trkpt>
      <trkpt lat="43.53305" lon="1.1253">
        <ele>299</ele>
        <time>2021-07-29T12:28:13Z</time>
      </trkpt>
      <trkpt lat="43.53306" lon="1.12542">
        <ele>299</ele>
        <time>2021-07-29T12:28:20Z</time>
      </trkpt>
      <trkpt lat="43.53308" lon="1.12552">
        <ele>300</ele>
        <time>2021-07-29T12:28:26Z</time>
      </trkpt>
      <trkpt lat="43.5331" lon="1.12564">
        <ele>301</ele>
        <time>2021-07-29T12:28:31Z</time>
      </trkpt>
      <trkpt lat="43.53312" lon="1.12575">
        <ele>300</ele>
        <time>2021-07-29T12:28:51Z</time>
      </trkpt>
      <trkpt lat="43.53313" lon="1.12587">
        <ele>300</ele>
        <time>2021-07-29T12:28:58Z</time>
      </trkpt>
      <trkpt lat="43.53313" lon="1.126">
        <ele>300</ele>
        <time>2021-07-29T12:29:06Z</time>
      </trkpt>
      <trkpt lat="43.53315" lon="1.12611">
        <ele>300</ele>
        <time>2021-07-29T12:29:13Z</time>
      </trkpt>
      <trkpt lat="43.53316" lon="1.12623">
        <ele>301</ele>
        <time>2021-07-29T12:29:19Z</time>
      </trkpt>
      <trkpt lat="43.53319" lon="1.12634">
        <ele>301</ele>
        <time>2021-07-29T12:29:26Z</time>
      </trkpt>
      <trkpt lat="43.5332" lon="1.12645">
        <ele>298</ele>
        <time>2021-07-29T12:29:33Z</time>
      </trkpt>
      <trkpt lat="43.53321" lon="1.12657">
        <ele>298</ele>
        <time>2021-07-29T12:29:41Z</time>
      </trkpt>
      <trkpt lat="43.53322" lon="1.12668">
        <ele>300</ele>
        <time>2021-07-29T12:29:48Z</time>
      </trkpt>
      <trkpt lat="43.53326" lon="1.12678">
        <ele>300</ele>
        <time>2021-07-29T12:29:55Z</time>
      </trkpt>
      <trkpt lat="43.53327" lon="1.12689">
        <ele>300</ele>
        <time>2021-07-29T12:30:02Z</time>
      </trkpt>
      <trkpt lat="43.53327" lon="1.127">
        <ele>298</ele>
        <time>2021-07-29T12:30:10Z</time>
      </trkpt>
      <trkpt lat="43.53329" lon="1.12712">
        <ele>298</ele>
        <time>2021-07-29T12:30:16Z</time>
      </trkpt>
      <trkpt lat="43.53332" lon="1.12722">
        <ele>297</ele>
        <time>2021-07-29T12:30:24Z</time>
      </trkpt>
      <trkpt lat="43.53334" lon="1.12733">
        <ele>296</ele>
        <time>2021-07-29T12:30:30Z</time>
      </trkpt>
      <trkpt lat="43.53336" lon="1.12744">
        <ele>297</ele>
        <time>2021-07-29T12:30:37Z</time>
      </trkpt>
      <trkpt lat="43.53339" lon="1.12755">
        <ele>297</ele>
        <time>2021-07-29T12:30:44Z</time>
      </trkpt>
      <trkpt lat="43.53341" lon="1.12766">
        <ele>295</ele>
        <time>2021-07-29T12:30:51Z</time>
      </trkpt>
      <trkpt lat="43.53344" lon="1.12776">
        <ele>295</ele>
        <time>2021-07-29T12:30:58Z</time>
      </trkpt>
      <trkpt lat="43.53346" lon="1.12787">
        <ele>295</ele>
        <time>2021-07-29T12:31:05Z</time>
      </trkpt>
      <trkpt lat="43.53347" lon="1.12799">
        <ele>294</ele>
        <time>2021-07-29T12:31:12Z</time>
      </trkpt>
      <trkpt lat="43.5335" lon="1.12811">
        <ele>295</ele>
        <time>2021-07-29T12:31:20Z</time>
      </trkpt>
      <trkpt lat="43.5335" lon="1.12822">
        <ele>294</ele>
        <time>2021-07-29T12:31:27Z</time>
      </trkpt>
      <trkpt lat="43.53353" lon="1.12834">
        <ele>293</ele>
        <time>2021-07-29T12:31:34Z</time>
      </trkpt>
      <trkpt lat="43.53355" lon="1.12845">
        <ele>290</ele>
        <time>2021-07-29T12:31:41Z</time>
      </trkpt>
      <trkpt lat="43.53356" lon="1.12857">
        <ele>290</ele>
        <time>2021-07-29T12:31:48Z</time>
      </trkpt>
      <trkpt lat="43.53357" lon="1.12868">
        <ele>292</ele>
        <time>2021-07-29T12:31:55Z</time>
      </trkpt>
      <trkpt lat="43.53358" lon="1.1288">
        <ele>291</ele>
        <time>2021-07-29T12:32:03Z</time>
      </trkpt>
      <trkpt lat="43.53361" lon="1.12891">
        <ele>290</ele>
        <time>2021-07-29T12:32:11Z</time>
      </trkpt>
      <trkpt lat="43.53361" lon="1.12903">
        <ele>290</ele>
        <time>2021-07-29T12:32:18Z</time>
      </trkpt>
      <trkpt lat="43.53364" lon="1.12914">
        <ele>291</ele>
        <time>2021-07-29T12:32:25Z</time>
      </trkpt>
      <trkpt lat="43.53367" lon="1.12925">
        <ele>291</ele>
        <time>2021-07-29T12:32:33Z</time>
      </trkpt>
      <trkpt lat="43.53368" lon="1.12936">
        <ele>292</ele>
        <time>2021-07-29T12:32:39Z</time>
      </trkpt>
      <trkpt lat="43.53369" lon="1.12948">
        <ele>293</ele>
        <time>2021-07-29T12:32:45Z</time>
      </trkpt>
      <trkpt lat="43.53371" lon="1.12958">
        <ele>293</ele>
        <time>2021-07-29T12:32:53Z</time>
      </trkpt>
      <trkpt lat="43.53372" lon="1.12969">
        <ele>292</ele>
        <time>2021-07-29T12:33:00Z</time>
      </trkpt>
      <trkpt lat="43.53374" lon="1.12979">
        <ele>289</ele>
        <time>2021-07-29T12:33:14Z</time>
      </trkpt>
      <trkpt lat="43.53372" lon="1.1299">
        <ele>290</ele>
        <time>2021-07-29T12:33:22Z</time>
      </trkpt>
      <trkpt lat="43.53371" lon="1.13002">
        <ele>291</ele>
        <time>2021-07-29T12:33:28Z</time>
      </trkpt>
      <trkpt lat="43.53371" lon="1.13013">
        <ele>292</ele>
        <time>2021-07-29T12:33:34Z</time>
      </trkpt>
      <trkpt lat="43.53373" lon="1.13024">
        <ele>293</ele>
        <time>2021-07-29T12:33:41Z</time>
      </trkpt>
      <trkpt lat="43.53375" lon="1.13035">
        <ele>293</ele>
        <time>2021-07-29T12:33:49Z</time>
      </trkpt>
      <trkpt lat="43.53378" lon="1.13047">
        <ele>292</ele>
        <time>2021-07-29T12:33:56Z</time>
      </trkpt>
      <trkpt lat="43.5338" lon="1.13057">
        <ele>292</ele>
        <time>2021-07-29T12:34:03Z</time>
      </trkpt>
      <trkpt lat="43.53381" lon="1.13068">
        <ele>292</ele>
        <time>2021-07-29T12:34:10Z</time>
      </trkpt>
      <trkpt lat="43.53384" lon="1.13079">
        <ele>292</ele>
        <time>2021-07-29T12:34:16Z</time>
      </trkpt>
      <trkpt lat="43.53386" lon="1.1309">
        <ele>293</ele>
        <time>2021-07-29T12:34:22Z</time>
      </trkpt>
      <trkpt lat="43.53388" lon="1.13101">
        <ele>293</ele>
        <time>2021-07-29T12:34:29Z</time>
      </trkpt>
      <trkpt lat="43.53389" lon="1.13113">
        <ele>293</ele>
        <time>2021-07-29T12:34:36Z</time>
      </trkpt>
      <trkpt lat="43.53392" lon="1.13124">
        <ele>295</ele>
        <time>2021-07-29T12:34:43Z</time>
      </trkpt>
      <trkpt lat="43.53393" lon="1.13134">
        <ele>296</ele>
        <time>2021-07-29T12:34:49Z</time>
      </trkpt>
      <trkpt lat="43.53395" lon="1.13145">
        <ele>295</ele>
        <time>2021-07-29T12:34:55Z</time>
      </trkpt>
      <trkpt lat="43.53396" lon="1.13157">
        <ele>294</ele>
        <time>2021-07-29T12:35:03Z</time>
      </trkpt>
      <trkpt lat="43.53399" lon="1.13167">
        <ele>295</ele>
        <time>2021-07-29T12:35:10Z</time>
      </trkpt>
      <trkpt lat="43.534" lon="1.13179">
        <ele>294</ele>
        <time>2021-07-29T12:35:17Z</time>
      </trkpt>
      <trkpt lat="43.53402" lon="1.13191">
        <ele>293</ele>
        <time>2021-07-29T12:35:23Z</time>
      </trkpt>
      <trkpt lat="43.53405" lon="1.13202">
        <ele>293</ele>
        <time>2021-07-29T12:35:31Z</time>
      </trkpt>
      <trkpt lat="43.53406" lon="1.13214">
        <ele>290</ele>
        <time>2021-07-29T12:35:38Z</time>
      </trkpt>
      <trkpt lat="43.53407" lon="1.13225">
        <ele>292</ele>
        <time>2021-07-29T12:35:45Z</time>
      </trkpt>
      <trkpt lat="43.53408" lon="1.13237">
        <ele>292</ele>
        <time>2021-07-29T12:35:53Z</time>
      </trkpt>
      <trkpt lat="43.53409" lon="1.13248">
        <ele>292</ele>
        <time>2021-07-29T12:35:59Z</time>
      </trkpt>
      <trkpt lat="43.53412" lon="1.1326">
        <ele>292</ele>
        <time>2021-07-29T12:36:07Z</time>
      </trkpt>
      <trkpt lat="43.53414" lon="1.1327">
        <ele>292</ele>
        <time>2021-07-29T12:36:14Z</time>
      </trkpt>
      <trkpt lat="43.53417" lon="1.13282">
        <ele>291</ele>
        <time>2021-07-29T12:36:21Z</time>
      </trkpt>
      <trkpt lat="43.53418" lon="1.13294">
        <ele>290</ele>
        <time>2021-07-29T12:36:28Z</time>
      </trkpt>
      <trkpt lat="43.53419" lon="1.13306">
        <ele>289</ele>
        <time>2021-07-29T12:36:35Z</time>
      </trkpt>
      <trkpt lat="43.5342" lon="1.13318">
        <ele>288</ele>
        <time>2021-07-29T12:36:43Z</time>
      </trkpt>
      <trkpt lat="43.53419" lon="1.1333">
        <ele>287</ele>
        <time>2021-07-29T12:36:50Z</time>
      </trkpt>
      <trkpt lat="43.53418" lon="1.13341">
        <ele>288</ele>
        <time>2021-07-29T12:36:56Z</time>
      </trkpt>
      <trkpt lat="43.53417" lon="1.13353">
        <ele>289</ele>
        <time>2021-07-29T12:37:05Z</time>
      </trkpt>
      <trkpt lat="43.53417" lon="1.13365">
        <ele>289</ele>
        <time>2021-07-29T12:37:12Z</time>
      </trkpt>
      <trkpt lat="43.53416" lon="1.13376">
        <ele>289</ele>
        <time>2021-07-29T12:37:19Z</time>
      </trkpt>
      <trkpt lat="43.53415" lon="1.13388">
        <ele>290</ele>
        <time>2021-07-29T12:37:26Z</time>
      </trkpt>
      <trkpt lat="43.53417" lon="1.13398">
        <ele>291</ele>
        <time>2021-07-29T12:37:32Z</time>
      </trkpt>
      <trkpt lat="43.53417" lon="1.1341">
        <ele>291</ele>
        <time>2021-07-29T12:37:38Z</time>
      </trkpt>
      <trkpt lat="43.53419" lon="1.1342">
        <ele>290</ele>
        <time>2021-07-29T12:37:47Z</time>
      </trkpt>
      <trkpt lat="43.5342" lon="1.13433">
        <ele>290</ele>
        <time>2021-07-29T12:37:55Z</time>
      </trkpt>
      <trkpt lat="43.53419" lon="1.13444">
        <ele>288</ele>
        <time>2021-07-29T12:38:02Z</time>
      </trkpt>
      <trkpt lat="43.53415" lon="1.13455">
        <ele>286</ele>
        <time>2021-07-29T12:38:08Z</time>
      </trkpt>
      <trkpt lat="43.53414" lon="1.13466">
        <ele>287</ele>
        <time>2021-07-29T12:38:17Z</time>
      </trkpt>
      <trkpt lat="43.53412" lon="1.13478">
        <ele>288</ele>
        <time>2021-07-29T12:38:23Z</time>
      </trkpt>
      <trkpt lat="43.5341" lon="1.13488">
        <ele>289</ele>
        <time>2021-07-29T12:38:30Z</time>
      </trkpt>
      <trkpt lat="43.53409" lon="1.13499">
        <ele>290</ele>
        <time>2021-07-29T12:38:36Z</time>
      </trkpt>
      <trkpt lat="43.53409" lon="1.1351">
        <ele>290</ele>
        <time>2021-07-29T12:38:42Z</time>
      </trkpt>
      <trkpt lat="43.53408" lon="1.13522">
        <ele>290</ele>
        <time>2021-07-29T12:38:49Z</time>
      </trkpt>
      <trkpt lat="43.53408" lon="1.13532">
        <ele>289</ele>
        <time>2021-07-29T12:38:55Z</time>
      </trkpt>
      <trkpt lat="43.53409" lon="1.13544">
        <ele>289</ele>
        <time>2021-07-29T12:39:03Z</time>
      </trkpt>
      <trkpt lat="43.53408" lon="1.13554">
        <ele>291</ele>
        <time>2021-07-29T12:39:10Z</time>
      </trkpt>
      <trkpt lat="43.53407" lon="1.13566">
        <ele>290</ele>
        <time>2021-07-29T12:39:16Z</time>
      </trkpt>
      <trkpt lat="43.53406" lon="1.13577">
        <ele>288</ele>
        <time>2021-07-29T12:39:24Z</time>
      </trkpt>
      <trkpt lat="43.53408" lon="1.13588">
        <ele>291</ele>
        <time>2021-07-29T12:39:32Z</time>
      </trkpt>
      <trkpt lat="43.53405" lon="1.13599">
        <ele>289</ele>
        <time>2021-07-29T12:39:40Z</time>
      </trkpt>
      <trkpt lat="43.53406" lon="1.13611">
        <ele>291</ele>
        <time>2021-07-29T12:39:48Z</time>
      </trkpt>
      <trkpt lat="43.53407" lon="1.13622">
        <ele>292</ele>
        <time>2021-07-29T12:39:54Z</time>
      </trkpt>
      <trkpt lat="43.53408" lon="1.13633">
        <ele>293</ele>
        <time>2021-07-29T12:39:59Z</time>
      </trkpt>
      <trkpt lat="43.5341" lon="1.13643">
        <ele>293</ele>
        <time>2021-07-29T12:40:05Z</time>
      </trkpt>
      <trkpt lat="43.53411" lon="1.13656">
        <ele>292</ele>
        <time>2021-07-29T12:40:14Z</time>
      </trkpt>
      <trkpt lat="43.53411" lon="1.13666">
        <ele>293</ele>
        <time>2021-07-29T12:40:20Z</time>
      </trkpt>
      <trkpt lat="43.53412" lon="1.13677">
        <ele>292</ele>
        <time>2021-07-29T12:40:28Z</time>
      </trkpt>
      <trkpt lat="43.53413" lon="1.13688">
        <ele>292</ele>
        <time>2021-07-29T12:40:34Z</time>
      </trkpt>
      <trkpt lat="43.53416" lon="1.137">
        <ele>292</ele>
        <time>2021-07-29T12:40:40Z</time>
      </trkpt>
      <trkpt lat="43.53417" lon="1.13711">
        <ele>292</ele>
        <time>2021-07-29T12:40:46Z</time>
      </trkpt>
      <trkpt lat="43.53416" lon="1.13723">
        <ele>292</ele>
        <time>2021-07-29T12:40:53Z</time>
      </trkpt>
      <trkpt lat="43.5342" lon="1.13734">
        <ele>294</ele>
        <time>2021-07-29T12:41:01Z</time>
      </trkpt>
      <trkpt lat="43.5342" lon="1.13745">
        <ele>295</ele>
        <time>2021-07-29T12:41:08Z</time>
      </trkpt>
      <trkpt lat="43.53423" lon="1.13756">
        <ele>293</ele>
        <time>2021-07-29T12:41:16Z</time>
      </trkpt>
      <trkpt lat="43.53424" lon="1.13767">
        <ele>292</ele>
        <time>2021-07-29T12:41:23Z</time>
      </trkpt>
      <trkpt lat="43.53425" lon="1.13778">
        <ele>291</ele>
        <time>2021-07-29T12:41:29Z</time>
      </trkpt>
      <trkpt lat="43.53427" lon="1.13789">
        <ele>292</ele>
        <time>2021-07-29T12:41:37Z</time>
      </trkpt>
      <trkpt lat="43.53428" lon="1.138">
        <ele>292</ele>
        <time>2021-07-29T12:41:44Z</time>
      </trkpt>
      <trkpt lat="43.53429" lon="1.13812">
        <ele>293</ele>
        <time>2021-07-29T12:41:52Z</time>
      </trkpt>
      <trkpt lat="43.53432" lon="1.13823">
        <ele>294</ele>
        <time>2021-07-29T12:41:59Z</time>
      </trkpt>
      <trkpt lat="43.53433" lon="1.13835">
        <ele>291</ele>
        <time>2021-07-29T12:42:06Z</time>
      </trkpt>
      <trkpt lat="43.53434" lon="1.13847">
        <ele>290</ele>
        <time>2021-07-29T12:42:37Z</time>
      </trkpt>
      <trkpt lat="43.53434" lon="1.13859">
        <ele>288</ele>
        <time>2021-07-29T12:42:47Z</time>
      </trkpt>
      <trkpt lat="43.53434" lon="1.1387">
        <ele>287</ele>
        <time>2021-07-29T12:42:55Z</time>
      </trkpt>
      <trkpt lat="43.53436" lon="1.13881">
        <ele>286</ele>
        <time>2021-07-29T12:43:03Z</time>
      </trkpt>
      <trkpt lat="43.53441" lon="1.1389">
        <ele>284</ele>
        <time>2021-07-29T12:43:33Z</time>
      </trkpt>
      <trkpt lat="43.53443" lon="1.13901">
        <ele>284</ele>
        <time>2021-07-29T12:43:40Z</time>
      </trkpt>
      <trkpt lat="43.53444" lon="1.13913">
        <ele>284</ele>
        <time>2021-07-29T12:43:47Z</time>
      </trkpt>
      <trkpt lat="43.53446" lon="1.13923">
        <ele>284</ele>
        <time>2021-07-29T12:43:54Z</time>
      </trkpt>
      <trkpt lat="43.5345" lon="1.13934">
        <ele>286</ele>
        <time>2021-07-29T12:44:16Z</time>
      </trkpt>
      <trkpt lat="43.5345" lon="1.13945">
        <ele>286</ele>
        <time>2021-07-29T12:44:24Z</time>
      </trkpt>
      <trkpt lat="43.53452" lon="1.13956">
        <ele>286</ele>
        <time>2021-07-29T12:44:30Z</time>
      </trkpt>
      <trkpt lat="43.53454" lon="1.13968">
        <ele>287</ele>
        <time>2021-07-29T12:44:37Z</time>
      </trkpt>
      <trkpt lat="43.53456" lon="1.13979">
        <ele>289</ele>
        <time>2021-07-29T12:44:44Z</time>
      </trkpt>
      <trkpt lat="43.53457" lon="1.1399">
        <ele>290</ele>
        <time>2021-07-29T12:44:51Z</time>
      </trkpt>
      <trkpt lat="43.53458" lon="1.14002">
        <ele>290</ele>
        <time>2021-07-29T12:44:58Z</time>
      </trkpt>
      <trkpt lat="43.53458" lon="1.14013">
        <ele>290</ele>
        <time>2021-07-29T12:45:05Z</time>
      </trkpt>
      <trkpt lat="43.53459" lon="1.14025">
        <ele>288</ele>
        <time>2021-07-29T12:45:12Z</time>
      </trkpt>
      <trkpt lat="43.53461" lon="1.14036">
        <ele>288</ele>
        <time>2021-07-29T12:45:18Z</time>
      </trkpt>
      <trkpt lat="43.53462" lon="1.14047">
        <ele>286</ele>
        <time>2021-07-29T12:45:25Z</time>
      </trkpt>
      <trkpt lat="43.53464" lon="1.14058">
        <ele>287</ele>
        <time>2021-07-29T12:45:32Z</time>
      </trkpt>
      <trkpt lat="43.53466" lon="1.1407">
        <ele>287</ele>
        <time>2021-07-29T12:45:39Z</time>
      </trkpt>
      <trkpt lat="43.53467" lon="1.14082">
        <ele>288</ele>
        <time>2021-07-29T12:45:47Z</time>
      </trkpt>
      <trkpt lat="43.5347" lon="1.14094">
        <ele>290</ele>
        <time>2021-07-29T12:45:54Z</time>
      </trkpt>
      <trkpt lat="43.53469" lon="1.14104">
        <ele>290</ele>
        <time>2021-07-29T12:46:00Z</time>
      </trkpt>
      <trkpt lat="43.53468" lon="1.14115">
        <ele>289</ele>
        <time>2021-07-29T12:46:06Z</time>
      </trkpt>
      <trkpt lat="43.53467" lon="1.14126">
        <ele>291</ele>
        <time>2021-07-29T12:46:12Z</time>
      </trkpt>
      <trkpt lat="43.53468" lon="1.14138">
        <ele>290</ele>
        <time>2021-07-29T12:46:19Z</time>
      </trkpt>
      <trkpt lat="43.53468" lon="1.1415">
        <ele>289</ele>
        <time>2021-07-29T12:46:26Z</time>
      </trkpt>
      <trkpt lat="43.53467" lon="1.14161">
        <ele>291</ele>
        <time>2021-07-29T12:46:33Z</time>
      </trkpt>
      <trkpt lat="43.53468" lon="1.14171">
        <ele>292</ele>
        <time>2021-07-29T12:46:39Z</time>
      </trkpt>
      <trkpt lat="43.53469" lon="1.14183">
        <ele>292</ele>
        <time>2021-07-29T12:46:46Z</time>
      </trkpt>
      <trkpt lat="43.53475" lon="1.1419">
        <ele>293</ele>
        <time>2021-07-29T12:47:04Z</time>
      </trkpt>
      <trkpt lat="43.53484" lon="1.14188">
        <ele>293</ele>
        <time>2021-07-29T12:47:11Z</time>
      </trkpt>
      <trkpt lat="43.53492" lon="1.14187">
        <ele>291</ele>
        <time>2021-07-29T12:47:22Z</time>
      </trkpt>
      <trkpt lat="43.535" lon="1.14188">
        <ele>289</ele>
        <time>2021-07-29T12:47:33Z</time>
      </trkpt>
      <trkpt lat="43.53508" lon="1.14191">
        <ele>288</ele>
        <time>2021-07-29T12:47:40Z</time>
      </trkpt>
      <trkpt lat="43.53517" lon="1.14192">
        <ele>289</ele>
        <time>2021-07-29T12:47:50Z</time>
      </trkpt>
      <trkpt lat="43.53525" lon="1.14194">
        <ele>289</ele>
        <time>2021-07-29T12:47:55Z</time>
      </trkpt>
      <trkpt lat="43.53534" lon="1.14193">
        <ele>288</ele>
        <time>2021-07-29T12:48:03Z</time>
      </trkpt>
      <trkpt lat="43.53543" lon="1.14195">
        <ele>289</ele>
        <time>2021-07-29T12:48:11Z</time>
      </trkpt>
      <trkpt lat="43.53551" lon="1.14194">
        <ele>290</ele>
        <time>2021-07-29T12:48:18Z</time>
      </trkpt>
      <trkpt lat="43.53559" lon="1.14198">
        <ele>290</ele>
        <time>2021-07-29T12:48:24Z</time>
      </trkpt>
      <trkpt lat="43.53566" lon="1.14203">
        <ele>290</ele>
        <time>2021-07-29T12:48:31Z</time>
      </trkpt>
      <trkpt lat="43.53575" lon="1.14203">
        <ele>290</ele>
        <time>2021-07-29T12:48:40Z</time>
      </trkpt>
      <trkpt lat="43.53583" lon="1.14204">
        <ele>289</ele>
        <time>2021-07-29T12:48:47Z</time>
      </trkpt>
      <trkpt lat="43.53591" lon="1.14201">
        <ele>289</ele>
        <time>2021-07-29T12:48:53Z</time>
      </trkpt>
      <trkpt lat="43.536" lon="1.14201">
        <ele>289</ele>
        <time>2021-07-29T12:49:00Z</time>
      </trkpt>
      <trkpt lat="43.53608" lon="1.142">
        <ele>288</ele>
        <time>2021-07-29T12:49:08Z</time>
      </trkpt>
      <trkpt lat="43.53616" lon="1.14201">
        <ele>287</ele>
        <time>2021-07-29T12:49:18Z</time>
      </trkpt>
      <trkpt lat="43.53624" lon="1.14207">
        <ele>287</ele>
        <time>2021-07-29T12:49:25Z</time>
      </trkpt>
      <trkpt lat="43.53633" lon="1.1421">
        <ele>286</ele>
        <time>2021-07-29T12:49:31Z</time>
      </trkpt>
      <trkpt lat="43.53641" lon="1.1421">
        <ele>285</ele>
        <time>2021-07-29T12:49:40Z</time>
      </trkpt>
      <trkpt lat="43.5365" lon="1.14211">
        <ele>284</ele>
        <time>2021-07-29T12:49:51Z</time>
      </trkpt>
      <trkpt lat="43.53658" lon="1.14206">
        <ele>284</ele>
        <time>2021-07-29T12:49:56Z</time>
      </trkpt>
      <trkpt lat="43.53665" lon="1.14204">
        <ele>285</ele>
        <time>2021-07-29T12:50:03Z</time>
      </trkpt>
      <trkpt lat="43.53673" lon="1.14205">
        <ele>285</ele>
        <time>2021-07-29T12:50:12Z</time>
      </trkpt>
      <trkpt lat="43.53681" lon="1.14208">
        <ele>284</ele>
        <time>2021-07-29T12:50:19Z</time>
      </trkpt>
      <trkpt lat="43.53689" lon="1.14203">
        <ele>282</ele>
        <time>2021-07-29T12:50:29Z</time>
      </trkpt>
      <trkpt lat="43.53697" lon="1.14202">
        <ele>281</ele>
        <time>2021-07-29T12:50:37Z</time>
      </trkpt>
      <trkpt lat="43.53706" lon="1.14202">
        <ele>281</ele>
        <time>2021-07-29T12:50:45Z</time>
      </trkpt>
      <trkpt lat="43.53713" lon="1.14201">
        <ele>277</ele>
        <time>2021-07-29T12:50:55Z</time>
      </trkpt>
      <trkpt lat="43.53721" lon="1.14199">
        <ele>273</ele>
        <time>2021-07-29T12:51:02Z</time>
      </trkpt>
      <trkpt lat="43.53729" lon="1.14195">
        <ele>269</ele>
        <time>2021-07-29T12:51:10Z</time>
      </trkpt>
      <trkpt lat="43.53738" lon="1.14195">
        <ele>267</ele>
        <time>2021-07-29T12:51:22Z</time>
      </trkpt>
      <trkpt lat="43.53747" lon="1.14195">
        <ele>266</ele>
        <time>2021-07-29T12:51:30Z</time>
      </trkpt>
      <trkpt lat="43.53756" lon="1.14193">
        <ele>264</ele>
        <time>2021-07-29T12:51:38Z</time>
      </trkpt>
      <trkpt lat="43.53764" lon="1.14193">
        <ele>263</ele>
        <time>2021-07-29T12:51:49Z</time>
      </trkpt>
      <trkpt lat="43.53772" lon="1.14191">
        <ele>263</ele>
        <time>2021-07-29T12:51:56Z</time>
      </trkpt>
      <trkpt lat="43.5378" lon="1.14188">
        <ele>262</ele>
        <time>2021-07-29T12:52:05Z</time>
      </trkpt>
      <trkpt lat="43.53789" lon="1.14187">
        <ele>262</ele>
        <time>2021-07-29T12:52:14Z</time>
      </trkpt>
      <trkpt lat="43.53796" lon="1.14185">
        <ele>262</ele>
        <time>2021-07-29T12:52:21Z</time>
      </trkpt>
      <trkpt lat="43.53805" lon="1.14189">
        <ele>260</ele>
        <time>2021-07-29T12:52:31Z</time>
      </trkpt>
      <trkpt lat="43.53812" lon="1.14185">
        <ele>258</ele>
        <time>2021-07-29T12:52:39Z</time>
      </trkpt>
      <trkpt lat="43.53819" lon="1.14193">
        <ele>256</ele>
        <time>2021-07-29T12:53:12Z</time>
      </trkpt>
      <trkpt lat="43.53818" lon="1.14204">
        <ele>257</ele>
        <time>2021-07-29T12:53:19Z</time>
      </trkpt>
      <trkpt lat="43.53818" lon="1.14216">
        <ele>259</ele>
        <time>2021-07-29T12:53:26Z</time>
      </trkpt>
      <trkpt lat="43.53816" lon="1.14228">
        <ele>259</ele>
        <time>2021-07-29T12:53:33Z</time>
      </trkpt>
      <trkpt lat="43.53814" lon="1.1424">
        <ele>259</ele>
        <time>2021-07-29T12:53:41Z</time>
      </trkpt>
      <trkpt lat="43.53814" lon="1.14252">
        <ele>259</ele>
        <time>2021-07-29T12:53:48Z</time>
      </trkpt>
      <trkpt lat="43.53812" lon="1.14264">
        <ele>258</ele>
        <time>2021-07-29T12:53:56Z</time>
      </trkpt>
      <trkpt lat="43.5381" lon="1.14275">
        <ele>256</ele>
        <time>2021-07-29T12:54:04Z</time>
      </trkpt>
      <trkpt lat="43.53809" lon="1.14287">
        <ele>254</ele>
        <time>2021-07-29T12:54:12Z</time>
      </trkpt>
      <trkpt lat="43.53809" lon="1.14298">
        <ele>252</ele>
        <time>2021-07-29T12:54:22Z</time>
      </trkpt>
      <trkpt lat="43.53808" lon="1.14311">
        <ele>252</ele>
        <time>2021-07-29T12:54:30Z</time>
      </trkpt>
      <trkpt lat="43.53807" lon="1.14322">
        <ele>251</ele>
        <time>2021-07-29T12:54:38Z</time>
      </trkpt>
      <trkpt lat="43.53805" lon="1.14334">
        <ele>251</ele>
        <time>2021-07-29T12:54:45Z</time>
      </trkpt>
      <trkpt lat="43.53805" lon="1.14346">
        <ele>251</ele>
        <time>2021-07-29T12:54:53Z</time>
      </trkpt>
      <trkpt lat="43.53811" lon="1.14355">
        <ele>250</ele>
        <time>2021-07-29T12:55:03Z</time>
      </trkpt>
      <trkpt lat="43.5382" lon="1.14354">
        <ele>248</ele>
        <time>2021-07-29T12:55:12Z</time>
      </trkpt>
      <trkpt lat="43.53829" lon="1.14354">
        <ele>247</ele>
        <time>2021-07-29T12:55:20Z</time>
      </trkpt>
      <trkpt lat="43.53836" lon="1.14352">
        <ele>246</ele>
        <time>2021-07-29T12:55:26Z</time>
      </trkpt>
      <trkpt lat="43.53844" lon="1.14351">
        <ele>246</ele>
        <time>2021-07-29T12:55:32Z</time>
      </trkpt>
      <trkpt lat="43.53853" lon="1.1435">
        <ele>245</ele>
        <time>2021-07-29T12:55:39Z</time>
      </trkpt>
      <trkpt lat="43.53861" lon="1.14354">
        <ele>242</ele>
        <time>2021-07-29T12:55:46Z</time>
      </trkpt>
      <trkpt lat="43.53869" lon="1.14355">
        <ele>241</ele>
        <time>2021-07-29T12:55:53Z</time>
      </trkpt>
      <trkpt lat="43.53877" lon="1.14357">
        <ele>241</ele>
        <time>2021-07-29T12:55:59Z</time>
      </trkpt>
      <trkpt lat="43.53885" lon="1.14358">
        <ele>241</ele>
        <time>2021-07-29T12:56:04Z</time>
      </trkpt>
      <trkpt lat="43.53893" lon="1.14358">
        <ele>241</ele>
        <time>2021-07-29T12:56:14Z</time>
      </trkpt>
      <trkpt lat="43.53901" lon="1.1436">
        <ele>241</ele>
        <time>2021-07-29T12:56:22Z</time>
      </trkpt>
      <trkpt lat="43.5391" lon="1.1436">
        <ele>241</ele>
        <time>2021-07-29T12:56:30Z</time>
      </trkpt>
      <trkpt lat="43.53918" lon="1.14362">
        <ele>240</ele>
        <time>2021-07-29T12:56:36Z</time>
      </trkpt>
      <trkpt lat="43.53926" lon="1.14362">
        <ele>240</ele>
        <time>2021-07-29T12:56:47Z</time>
      </trkpt>
      <trkpt lat="43.53934" lon="1.14361">
        <ele>237</ele>
        <time>2021-07-29T12:56:52Z</time>
      </trkpt>
      <trkpt lat="43.53942" lon="1.14362">
        <ele>238</ele>
        <time>2021-07-29T12:56:58Z</time>
      </trkpt>
      <trkpt lat="43.5395" lon="1.14364">
        <ele>239</ele>
        <time>2021-07-29T12:57:03Z</time>
      </trkpt>
      <trkpt lat="43.53958" lon="1.14366">
        <ele>239</ele>
        <time>2021-07-29T12:57:10Z</time>
      </trkpt>
      <trkpt lat="43.53966" lon="1.14369">
        <ele>238</ele>
        <time>2021-07-29T12:57:18Z</time>
      </trkpt>
      <trkpt lat="43.53975" lon="1.1437">
        <ele>238</ele>
        <time>2021-07-29T12:57:24Z</time>
      </trkpt>
      <trkpt lat="43.53983" lon="1.14371">
        <ele>237</ele>
        <time>2021-07-29T12:57:31Z</time>
      </trkpt>
      <trkpt lat="43.53992" lon="1.14373">
        <ele>237</ele>
        <time>2021-07-29T12:57:38Z</time>
      </trkpt>
      <trkpt lat="43.53999" lon="1.14378">
        <ele>237</ele>
        <time>2021-07-29T12:57:45Z</time>
      </trkpt>
      <trkpt lat="43.54008" lon="1.14381">
        <ele>236</ele>
        <time>2021-07-29T12:57:51Z</time>
      </trkpt>
      <trkpt lat="43.54015" lon="1.14384">
        <ele>235</ele>
        <time>2021-07-29T12:57:58Z</time>
      </trkpt>
      <trkpt lat="43.54024" lon="1.14387">
        <ele>233</ele>
        <time>2021-07-29T12:58:05Z</time>
      </trkpt>
      <trkpt lat="43.54032" lon="1.14392">
        <ele>233</ele>
        <time>2021-07-29T12:58:12Z</time>
      </trkpt>
      <trkpt lat="43.5404" lon="1.14395">
        <ele>234</ele>
        <time>2021-07-29T12:58:19Z</time>
      </trkpt>
      <trkpt lat="43.54048" lon="1.14398">
        <ele>234</ele>
        <time>2021-07-29T12:58:25Z</time>
      </trkpt>
      <trkpt lat="43.54056" lon="1.144">
        <ele>231</ele>
        <time>2021-07-29T12:58:34Z</time>
      </trkpt>
      <trkpt lat="43.54065" lon="1.14398">
        <ele>232</ele>
        <time>2021-07-29T12:58:43Z</time>
      </trkpt>
      <trkpt lat="43.5407" lon="1.14389">
        <ele>231</ele>
        <time>2021-07-29T12:58:50Z</time>
      </trkpt>
      <trkpt lat="43.54078" lon="1.14383">
        <ele>233</ele>
        <time>2021-07-29T12:59:00Z</time>
      </trkpt>
      <trkpt lat="43.54084" lon="1.14392">
        <ele>232</ele>
        <time>2021-07-29T12:59:08Z</time>
      </trkpt>
      <trkpt lat="43.5409" lon="1.144">
        <ele>232</ele>
        <time>2021-07-29T12:59:15Z</time>
      </trkpt>
      <trkpt lat="43.54096" lon="1.14408">
        <ele>232</ele>
        <time>2021-07-29T12:59:21Z</time>
      </trkpt>
      <trkpt lat="43.54102" lon="1.14416">
        <ele>232</ele>
        <time>2021-07-29T12:59:27Z</time>
      </trkpt>
      <trkpt lat="43.54108" lon="1.14423">
        <ele>230</ele>
        <time>2021-07-29T12:59:34Z</time>
      </trkpt>
      <trkpt lat="43.54115" lon="1.14429">
        <ele>230</ele>
        <time>2021-07-29T12:59:41Z</time>
      </trkpt>
      <trkpt lat="43.54121" lon="1.14436">
        <ele>230</ele>
        <time>2021-07-29T12:59:47Z</time>
      </trkpt>
      <trkpt lat="43.54127" lon="1.14445">
        <ele>232</ele>
        <time>2021-07-29T12:59:54Z</time>
      </trkpt>
      <trkpt lat="43.54133" lon="1.14453">
        <ele>231</ele>
        <time>2021-07-29T13:00:01Z</time>
      </trkpt>
      <trkpt lat="43.54139" lon="1.14461">
        <ele>230</ele>
        <time>2021-07-29T13:00:08Z</time>
      </trkpt>
      <trkpt lat="43.54145" lon="1.14469">
        <ele>230</ele>
        <time>2021-07-29T13:00:15Z</time>
      </trkpt>
      <trkpt lat="43.54151" lon="1.14477">
        <ele>227</ele>
        <time>2021-07-29T13:00:22Z</time>
      </trkpt>
      <trkpt lat="43.54156" lon="1.14487">
        <ele>227</ele>
        <time>2021-07-29T13:00:29Z</time>
      </trkpt>
      <trkpt lat="43.54162" lon="1.14495">
        <ele>228</ele>
        <time>2021-07-29T13:00:36Z</time>
      </trkpt>
      <trkpt lat="43.54168" lon="1.14504">
        <ele>228</ele>
        <time>2021-07-29T13:00:43Z</time>
      </trkpt>
      <trkpt lat="43.54175" lon="1.14511">
        <ele>226</ele>
        <time>2021-07-29T13:00:51Z</time>
      </trkpt>
      <trkpt lat="43.54181" lon="1.14519">
        <ele>225</ele>
        <time>2021-07-29T13:01:31Z</time>
      </trkpt>
      <trkpt lat="43.54187" lon="1.14527">
        <ele>225</ele>
        <time>2021-07-29T13:01:37Z</time>
      </trkpt>
      <trkpt lat="43.54193" lon="1.14534">
        <ele>225</ele>
        <time>2021-07-29T13:01:43Z</time>
      </trkpt>
      <trkpt lat="43.542" lon="1.14541">
        <ele>225</ele>
        <time>2021-07-29T13:02:17Z</time>
      </trkpt>
      <trkpt lat="43.54207" lon="1.14548">
        <ele>224</ele>
        <time>2021-07-29T13:02:25Z</time>
      </trkpt>
      <trkpt lat="43.54213" lon="1.14557">
        <ele>224</ele>
        <time>2021-07-29T13:02:31Z</time>
      </trkpt>
      <trkpt lat="43.54219" lon="1.14564">
        <ele>224</ele>
        <time>2021-07-29T13:02:39Z</time>
      </trkpt>
      <trkpt lat="43.54224" lon="1.14573">
        <ele>224</ele>
        <time>2021-07-29T13:02:46Z</time>
      </trkpt>
      <trkpt lat="43.5423" lon="1.14581">
        <ele>224</ele>
        <time>2021-07-29T13:02:53Z</time>
      </trkpt>
      <trkpt lat="43.54235" lon="1.14591">
        <ele>223</ele>
        <time>2021-07-29T13:03:00Z</time>
      </trkpt>
      <trkpt lat="43.54241" lon="1.146">
        <ele>222</ele>
        <time>2021-07-29T13:03:08Z</time>
      </trkpt>
      <trkpt lat="43.54247" lon="1.14608">
        <ele>221</ele>
        <time>2021-07-29T13:03:14Z</time>
      </trkpt>
      <trkpt lat="43.54252" lon="1.14616">
        <ele>220</ele>
        <time>2021-07-29T13:03:21Z</time>
      </trkpt>
      <trkpt lat="43.54257" lon="1.14625">
        <ele>220</ele>
        <time>2021-07-29T13:03:26Z</time>
      </trkpt>
      <trkpt lat="43.54262" lon="1.14633">
        <ele>221</ele>
        <time>2021-07-29T13:03:32Z</time>
      </trkpt>
      <trkpt lat="43.54269" lon="1.1464">
        <ele>221</ele>
        <time>2021-07-29T13:03:39Z</time>
      </trkpt>
      <trkpt lat="43.54274" lon="1.1465">
        <ele>221</ele>
        <time>2021-07-29T13:03:46Z</time>
      </trkpt>
      <trkpt lat="43.5428" lon="1.14657">
        <ele>220</ele>
        <time>2021-07-29T13:03:54Z</time>
      </trkpt>
      <trkpt lat="43.54286" lon="1.14666">
        <ele>221</ele>
        <time>2021-07-29T13:04:01Z</time>
      </trkpt>
      <trkpt lat="43.54291" lon="1.14674">
        <ele>221</ele>
        <time>2021-07-29T13:04:09Z</time>
      </trkpt>
      <trkpt lat="43.54298" lon="1.14682">
        <ele>220</ele>
        <time>2021-07-29T13:04:16Z</time>
      </trkpt>
      <trkpt lat="43.54305" lon="1.14689">
        <ele>219</ele>
        <time>2021-07-29T13:04:24Z</time>
      </trkpt>
      <trkpt lat="43.54312" lon="1.14696">
        <ele>221</ele>
        <time>2021-07-29T13:04:31Z</time>
      </trkpt>
      <trkpt lat="43.54318" lon="1.14704">
        <ele>222</ele>
        <time>2021-07-29T13:04:37Z</time>
      </trkpt>
      <trkpt lat="43.54325" lon="1.1471">
        <ele>222</ele>
        <time>2021-07-29T13:04:44Z</time>
      </trkpt>
      <trkpt lat="43.54332" lon="1.14717">
        <ele>222</ele>
        <time>2021-07-29T13:04:51Z</time>
      </trkpt>
      <trkpt lat="43.54338" lon="1.14725">
        <ele>222</ele>
        <time>2021-07-29T13:04:59Z</time>
      </trkpt>
      <trkpt lat="43.54346" lon="1.1473">
        <ele>220</ele>
        <time>2021-07-29T13:05:06Z</time>
      </trkpt>
      <trkpt lat="43.54352" lon="1.14737">
        <ele>217</ele>
        <time>2021-07-29T13:05:13Z</time>
      </trkpt>
      <trkpt lat="43.54358" lon="1.14744">
        <ele>218</ele>
        <time>2021-07-29T13:05:20Z</time>
      </trkpt>
      <trkpt lat="43.54365" lon="1.14749">
        <ele>219</ele>
        <time>2021-07-29T13:05:26Z</time>
      </trkpt>
      <trkpt lat="43.54373" lon="1.14753">
        <ele>219</ele>
        <time>2021-07-29T13:05:33Z</time>
      </trkpt>
      <trkpt lat="43.5438" lon="1.14758">
        <ele>220</ele>
        <time>2021-07-29T13:05:40Z</time>
      </trkpt>
      <trkpt lat="43.54386" lon="1.14766">
        <ele>219</ele>
        <time>2021-07-29T13:05:48Z</time>
      </trkpt>
      <trkpt lat="43.54393" lon="1.14774">
        <ele>217</ele>
        <time>2021-07-29T13:05:55Z</time>
      </trkpt>
      <trkpt lat="43.54399" lon="1.14781">
        <ele>217</ele>
        <time>2021-07-29T13:06:01Z</time>
      </trkpt>
      <trkpt lat="43.54405" lon="1.14788">
        <ele>218</ele>
        <time>2021-07-29T13:06:07Z</time>
      </trkpt>
      <trkpt lat="43.54411" lon="1.14797">
        <ele>218</ele>
        <time>2021-07-29T13:06:13Z</time>
      </trkpt>
      <trkpt lat="43.54416" lon="1.14806">
        <ele>217</ele>
        <time>2021-07-29T13:06:20Z</time>
      </trkpt>
      <trkpt lat="43.54422" lon="1.14815">
        <ele>219</ele>
        <time>2021-07-29T13:06:26Z</time>
      </trkpt>
      <trkpt lat="43.54427" lon="1.14824">
        <ele>219</ele>
        <time>2021-07-29T13:06:33Z</time>
      </trkpt>
      <trkpt lat="43.54432" lon="1.14833">
        <ele>220</ele>
        <time>2021-07-29T13:06:39Z</time>
      </trkpt>
      <trkpt lat="43.54437" lon="1.14841">
        <ele>221</ele>
        <time>2021-07-29T13:06:46Z</time>
      </trkpt>
      <trkpt lat="43.54443" lon="1.1485">
        <ele>220</ele>
        <time>2021-07-29T13:06:52Z</time>
      </trkpt>
      <trkpt lat="43.54447" lon="1.1486">
        <ele>222</ele>
        <time>2021-07-29T13:07:00Z</time>
      </trkpt>
      <trkpt lat="43.54453" lon="1.1487">
        <ele>221</ele>
        <time>2021-07-29T13:07:07Z</time>
      </trkpt>
      <trkpt lat="43.54457" lon="1.14879">
        <ele>221</ele>
        <time>2021-07-29T13:07:14Z</time>
      </trkpt>
      <trkpt lat="43.5446" lon="1.14889">
        <ele>221</ele>
        <time>2021-07-29T13:07:21Z</time>
      </trkpt>
      <trkpt lat="43.54464" lon="1.14899">
        <ele>223</ele>
        <time>2021-07-29T13:07:28Z</time>
      </trkpt>
      <trkpt lat="43.54467" lon="1.1491">
        <ele>221</ele>
        <time>2021-07-29T13:07:36Z</time>
      </trkpt>
      <trkpt lat="43.54472" lon="1.14919">
        <ele>222</ele>
        <time>2021-07-29T13:07:42Z</time>
      </trkpt>
      <trkpt lat="43.54476" lon="1.14928">
        <ele>221</ele>
        <time>2021-07-29T13:07:48Z</time>
      </trkpt>
      <trkpt lat="43.5448" lon="1.14939">
        <ele>218</ele>
        <time>2021-07-29T13:07:55Z</time>
      </trkpt>
      <trkpt lat="43.54483" lon="1.14949">
        <ele>219</ele>
        <time>2021-07-29T13:08:01Z</time>
      </trkpt>
      <trkpt lat="43.54488" lon="1.14959">
        <ele>219</ele>
        <time>2021-07-29T13:08:09Z</time>
      </trkpt>
      <trkpt lat="43.54493" lon="1.14968">
        <ele>219</ele>
        <time>2021-07-29T13:08:15Z</time>
      </trkpt>
      <trkpt lat="43.54498" lon="1.14977">
        <ele>220</ele>
        <time>2021-07-29T13:08:21Z</time>
      </trkpt>
      <trkpt lat="43.54502" lon="1.14987">
        <ele>220</ele>
        <time>2021-07-29T13:08:28Z</time>
      </trkpt>
      <trkpt lat="43.54507" lon="1.14997">
        <ele>220</ele>
        <time>2021-07-29T13:08:36Z</time>
      </trkpt>
      <trkpt lat="43.54513" lon="1.15006">
        <ele>220</ele>
        <time>2021-07-29T13:08:43Z</time>
      </trkpt>
      <trkpt lat="43.54519" lon="1.15015">
        <ele>218</ele>
        <time>2021-07-29T13:08:51Z</time>
      </trkpt>
      <trkpt lat="43.54524" lon="1.15025">
        <ele>218</ele>
        <time>2021-07-29T13:08:59Z</time>
      </trkpt>
      <trkpt lat="43.5453" lon="1.15033">
        <ele>216</ele>
        <time>2021-07-29T13:09:06Z</time>
      </trkpt>
      <trkpt lat="43.54536" lon="1.15039">
        <ele>215</ele>
        <time>2021-07-29T13:09:13Z</time>
      </trkpt>
      <trkpt lat="43.54543" lon="1.15047">
        <ele>214</ele>
        <time>2021-07-29T13:09:20Z</time>
      </trkpt>
      <trkpt lat="43.54549" lon="1.15054">
        <ele>214</ele>
        <time>2021-07-29T13:09:27Z</time>
      </trkpt>
      <trkpt lat="43.54554" lon="1.15063">
        <ele>213</ele>
        <time>2021-07-29T13:09:35Z</time>
      </trkpt>
      <trkpt lat="43.54561" lon="1.15072">
        <ele>211</ele>
        <time>2021-07-29T13:09:42Z</time>
      </trkpt>
      <trkpt lat="43.54565" lon="1.15081">
        <ele>211</ele>
        <time>2021-07-29T13:09:51Z</time>
      </trkpt>
      <trkpt lat="43.54569" lon="1.1509">
        <ele>213</ele>
        <time>2021-07-29T13:09:58Z</time>
      </trkpt>
      <trkpt lat="43.54573" lon="1.15099">
        <ele>216</ele>
        <time>2021-07-29T13:10:04Z</time>
      </trkpt>
      <trkpt lat="43.54582" lon="1.15095">
        <ele>218</ele>
        <time>2021-07-29T13:10:15Z</time>
      </trkpt>
      <trkpt lat="43.54584" lon="1.15084">
        <ele>219</ele>
        <time>2021-07-29T13:10:23Z</time>
      </trkpt>
      <trkpt lat="43.54582" lon="1.15072">
        <ele>216</ele>
        <time>2021-07-29T13:10:31Z</time>
      </trkpt>
      <trkpt lat="43.54583" lon="1.15063">
        <ele>215</ele>
        <time>2021-07-29T13:10:36Z</time>
      </trkpt>
      <trkpt lat="43.54584" lon="1.15051">
        <ele>214</ele>
        <time>2021-07-29T13:10:43Z</time>
      </trkpt>
      <trkpt lat="43.54588" lon="1.15041">
        <ele>214</ele>
        <time>2021-07-29T13:10:49Z</time>
      </trkpt>
      <trkpt lat="43.54592" lon="1.1503">
        <ele>215</ele>
        <time>2021-07-29T13:10:56Z</time>
      </trkpt>
      <trkpt lat="43.54595" lon="1.1502">
        <ele>214</ele>
        <time>2021-07-29T13:11:02Z</time>
      </trkpt>
      <trkpt lat="43.54598" lon="1.15008">
        <ele>215</ele>
        <time>2021-07-29T13:11:09Z</time>
      </trkpt>
      <trkpt lat="43.546" lon="1.14998">
        <ele>216</ele>
        <time>2021-07-29T13:11:16Z</time>
      </trkpt>
      <trkpt lat="43.54602" lon="1.14987">
        <ele>216</ele>
        <time>2021-07-29T13:11:23Z</time>
      </trkpt>
      <trkpt lat="43.54602" lon="1.14975">
        <ele>214</ele>
        <time>2021-07-29T13:11:32Z</time>
      </trkpt>
      <trkpt lat="43.54603" lon="1.14964">
        <ele>214</ele>
        <time>2021-07-29T13:11:38Z</time>
      </trkpt>
      <trkpt lat="43.54608" lon="1.14954">
        <ele>213</ele>
        <time>2021-07-29T13:11:48Z</time>
      </trkpt>
      <trkpt lat="43.54616" lon="1.14958">
        <ele>215</ele>
        <time>2021-07-29T13:12:02Z</time>
      </trkpt>
      <trkpt lat="43.54623" lon="1.14965">
        <ele>218</ele>
        <time>2021-07-29T13:12:23Z</time>
      </trkpt>
      <trkpt lat="43.54632" lon="1.14963">
        <ele>218</ele>
        <time>2021-07-29T13:12:44Z</time>
      </trkpt>
      <trkpt lat="43.54629" lon="1.14964">
        <ele>217</ele>
        <time>2021-07-29T13:13:56Z</time>
      </trkpt>
      <trkpt lat="43.54629" lon="1.14964">
        <ele>217</ele>
        <time>2021-07-29T13:13:57Z</time>
      </trkpt>
      <trkpt lat="43.54612" lon="1.14949">
        <ele>223.2</ele>
      </trkpt>
      <trkpt lat="43.54649" lon="1.14881">
        <ele>224.3</ele>
      </trkpt>
      <trkpt lat="43.54677" lon="1.14907">
        <ele>223.3</ele>
      </trkpt>
      <trkpt lat="43.54704" lon="1.14922">
        <ele>221.2</ele>
      </trkpt>
      <trkpt lat="43.54736" lon="1.1493">
        <ele>218.7</ele>
      </trkpt>
      <trkpt lat="43.54774" lon="1.14943">
        <ele>217.1</ele>
      </trkpt>
      <trkpt lat="43.54808" lon="1.14957">
        <ele>216.7</ele>
      </trkpt>
      <trkpt lat="43.54839" lon="1.14967">
        <ele>216.8</ele>
      </trkpt>
      <trkpt lat="43.54879" lon="1.14985">
        <ele>218.6</ele>
      </trkpt>
      <trkpt lat="43.54913" lon="1.15003">
        <ele>219.8</ele>
      </trkpt>
      <trkpt lat="43.54945" lon="1.15016">
        <ele>220</ele>
      </trkpt>
      <trkpt lat="43.54948" lon="1.15026">
        <ele>219.8</ele>
      </trkpt>
      <trkpt lat="43.54947" lon="1.15034">
        <ele>219.5</ele>
      </trkpt>
      <trkpt lat="43.54943" lon="1.15045">
        <ele>219.2</ele>
      </trkpt>
      <trkpt lat="43.54959" lon="1.15052">
        <ele>219.3</ele>
      </trkpt>
      <trkpt lat="43.54982" lon="1.1507">
        <ele>219.1</ele>
      </trkpt>
      <trkpt lat="43.55008" lon="1.15086">
        <ele>219.2</ele>
      </trkpt>
      <trkpt lat="43.55021" lon="1.15089">
        <ele>219.5</ele>
      </trkpt>
      <trkpt lat="43.55029" lon="1.15079">
        <ele>219.8</ele>
      </trkpt>
      <trkpt lat="43.55049" lon="1.15096">
        <ele>220.1</ele>
      </trkpt>
      <trkpt lat="43.55085" lon="1.15125">
        <ele>220.5</ele>
      </trkpt>
      <trkpt lat="43.55119" lon="1.15151">
        <ele>220.9</ele>
      </trkpt>
      <trkpt lat="43.55146" lon="1.15175">
        <ele>221.5</ele>
      </trkpt>
      <trkpt lat="43.55172" lon="1.15198">
        <ele>222.4</ele>
      </trkpt>
      <trkpt lat="43.55225" lon="1.15182">
        <ele>226.1</ele>
      </trkpt>
      <trkpt lat="43.55266" lon="1.15172">
        <ele>229.1</ele>
      </trkpt>
      <trkpt lat="43.5531" lon="1.15161">
        <ele>232.2</ele>
      </trkpt>
      <trkpt lat="43.55349" lon="1.15148">
        <ele>234.6</ele>
      </trkpt>
      <trkpt lat="43.55401" lon="1.15136">
        <ele>237.9</ele>
      </trkpt>
      <trkpt lat="43.55422" lon="1.15128">
        <ele>239.4</ele>
      </trkpt>
      <trkpt lat="43.55475" lon="1.15112">
        <ele>243.7</ele>
      </trkpt>
      <trkpt lat="43.5554" lon="1.15091">
        <ele>251.5</ele>
      </trkpt>
      <trkpt lat="43.5561" lon="1.15073">
        <ele>260.4</ele>
      </trkpt>
      <trkpt lat="43.55658" lon="1.15058">
        <ele>263.8</ele>
      </trkpt>
      <trkpt lat="43.55684" lon="1.15052">
        <ele>264.3</ele>
      </trkpt>
      <trkpt lat="43.55675" lon="1.15023">
        <ele>263.3</ele>
      </trkpt>
      <trkpt lat="43.55673" lon="1.14982">
        <ele>262</ele>
      </trkpt>
      <trkpt lat="43.55712" lon="1.14956">
        <ele>259.2</ele>
      </trkpt>
      <trkpt lat="43.5578" lon="1.1492">
        <ele>251.8</ele>
      </trkpt>
      <trkpt lat="43.55832" lon="1.14896">
        <ele>243.7</ele>
      </trkpt>
      <trkpt lat="43.55885" lon="1.1487">
        <ele>240</ele>
      </trkpt>
      <trkpt lat="43.55926" lon="1.14847">
        <ele>237</ele>
      </trkpt>
      <trkpt lat="43.55904" lon="1.14769">
        <ele>237.2</ele>
      </trkpt>
      <trkpt lat="43.55879" lon="1.14668">
        <ele>239.6</ele>
      </trkpt>
      <trkpt lat="43.55853" lon="1.14562">
        <ele>245</ele>
      </trkpt>
      <trkpt lat="43.55864" lon="1.14546">
        <ele>244</ele>
      </trkpt>
      <trkpt lat="43.55877" lon="1.14518">
        <ele>242.9</ele>
      </trkpt>
      <trkpt lat="43.55876" lon="1.14512">
        <ele>243</ele>
      </trkpt>
    </trkseg>
  </trk>
</gpx>